[[{"header":{"parameterUnit":"m.s-1","parameterCategory":1,"la1":31.0,"la2":29.5877,"lo1":-88.7671,"lo2":-86.6584,"dy":0.0162,"dx":0.0185,"nx":115,"ny":88,"refTime":"2023-09-12T12:00:00:Z","depth":0,"parameterNumber":2,"parameterNumberName":"U-component_of_WINDS"},"data":[0.0,0.0,0.0,0.0,0.0,0.0,0.0,0.0,0.0,0.0,0.0,0.0,0.0,0.0,0.0,0.0,0.0,0.0,0.0,0.0,0.0,0.0,0.0,0.0,0.0,0.0,0.0,0.0,0.0,0.0,0.0,0.0,0.0,0.0,0.0,0.0,0.0,0.0,0.0,0.0,0.0,0.0,0.0,0.0,0.0,0.0,0.0,0.0,0.0,0.0,0.0,0.0,0.0,0.0,0.0,0.0,0.0,0.0,0.0,0.0,0.0,0.0,0.0,0.0,0.0,0.0,0.0,0.0,0.0,0.0,0.0,0.0,0.0,0.0,0.0,0.0,0.0,0.0,0.0,0.0,0.0,0.0,0.0,0.0,0.0,0.0,0.0,0.0,0.0,0.0,0.0,0.0,0.0,0.0,0.0,0.0,0.0,0.0,0.0,0.0,0.0,0.0,0.0,0.0,0.0,0.0,0.0,0.0,0.0,0.0,0.0,0.0,0.0,0.0,0.0,0.0,0.0,0.0,0.0,0.0,0.0,0.0,0.0,0.0,0.0,0.0,0.0,0.0,0.0,0.0,0.0,0.0,0.0,0.0,0.0,0.0,0.0,0.0,0.0,0.0,0.0,0.0,0.0,0.0,0.0,0.0,0.0,0.0,0.0,0.0,0.0,0.0,0.0,0.0,0.0,0.0,0.0,0.0,0.0,0.0,0.0,0.0,0.0,0.0,0.0,0.0,0.0,0.0,0.0,0.0,0.0,0.0,0.0,0.0,0.0,0.0,0.0,0.0,0.0,0.0,0.0,0.0,0.0,0.0,0.0,0.0,0.0,0.0,0.0,0.0,0.0,0.0,0.0,0.0,0.0,0.0,0.0,0.0,0.0,0.0,0.0,0.0,0.0,0.0,0.0,0.0,0.0,0.0,0.0,0.0,0.0,0.0,0.0,0.0,0.0,0.0,0.0,0.0,0.0,0.0,0.0,0.0,0.0,0.0,0.0,0.0,0.0,0.0,0.0,0.0,0.0,0.0,0.0,0.0,0.0,0.0,0.0,0.0,0.0,0.0,0.0,0.0,0.0,0.0,0.0,0.0,0.0,0.0,0.0,0.0,0.0,0.0,0.0,0.0,0.0,0.0,0.0,0.0,0.0,0.0,0.0,0.0,0.0,0.0,0.0,0.0,0.0,0.0,0.0,0.0,0.0,0.0,0.0,0.0,0.0,0.0,0.0,0.0,0.0,0.0,0.0,0.0,0.0,0.0,0.0,0.0,0.0,0.0,0.0,0.0,0.0,0.0,0.0,0.0,0.0,0.0,0.0,0.0,0.0,0.0,0.0,0.0,0.0,0.0,0.0,0.0,0.0,0.0,0.0,0.0,0.0,0.0,0.0,0.0,0.0,0.0,0.0,0.0,0.0,0.0,0.0,0.0,0.0,0.0,0.0,0.0,0.0,0.0,0.0,0.0,0.0,0.0,0.0,0.0,0.0,0.0,0.0,0.0,0.0,0.0,0.0,0.0,0.0,0.0,0.0,0.0,0.0,0.0,0.0,0.0,0.0,0.0,0.0,0.0,0.0,0.0,0.0,0.0,0.0,0.0,0.0,0.0,0.0,0.0,0.0,0.0,0.0,0.0,0.0,0.0,0.0,0.0,0.0,0.0,0.0,0.0,0.0,0.0,0.0,0.0,0.0,0.0,0.0,0.0,0.0,0.0,0.0,0.0,0.0,0.0,0.0,0.0,0.0,0.0,0.0,0.0,0.0,0.0,0.0,0.0,0.0,0.0,0.0,0.0,0.0,0.0,0.0,0.0,0.0,0.0,0.0,0.0,0.0,0.0,0.0,0.0,0.0,0.0,0.0,0.0,0.0,0.0,0.0,0.0,0.0,0.0,0.0,0.0,0.0,0.0,0.0,0.0,0.0,0.0,0.0,0.0,0.0,0.0,0.0,0.0,0.0,0.0,0.0,0.0,0.0,0.0,0.0,0.0,0.0,0.0,0.0,0.0,0.0,0.0,0.0,0.0,0.0,0.0,0.0,0.0,0.0,0.0,0.0,0.0,0.0,0.0,0.0,0.0,0.0,0.0,0.0,0.0,0.0,0.0,0.0,0.0,0.0,0.0,0.0,0.0,0.0,0.0,0.0,0.0,0.0,0.0,0.0,0.0,0.0,0.0,0.0,0.0,0.0,0.0,0.0,0.0,0.0,0.0,0.0,0.0,0.0,0.0,0.0,0.0,0.0,0.0,0.0,0.0,0.0,0.0,0.0,0.0,0.0,0.0,0.0,0.0,0.0,0.0,0.0,0.0,0.0,0.0,0.0,0.0,0.0,0.0,0.0,0.0,0.0,0.0,0.0,0.0,0.0,0.0,0.0,0.0,0.0,0.0,0.0,0.0,0.0,0.0,0.0,0.0,0.0,0.0,0.0,0.0,0.0,0.0,0.0,0.0,0.0,0.0,0.0,0.0,0.0,0.0,0.0,0.0,0.0,0.0,0.0,0.0,0.0,0.0,0.0,0.0,0.0,0.0,0.0,0.0,0.0,0.0,0.0,0.0,0.0,0.0,0.0,0.0,0.0,0.0,0.0,0.0,0.0,0.0,0.0,0.0,0.0,0.0,0.0,0.0,0.0,0.0,0.0,0.0,0.0,0.0,0.0,0.0,0.0,0.0,0.0,0.0,0.0,0.0,0.0,0.0,0.0,0.0,0.0,0.0,0.0,0.0,0.0,0.0,0.0,0.0,0.0,0.0,0.0,0.0,0.0,0.0,0.0,0.0,0.0,0.0,0.0,0.0,0.0,0.0,0.0,0.0,0.0,0.0,0.0,0.0,0.0,0.0,0.0,0.0,0.0,0.0,0.0,0.0,0.0,0.0,0.0,0.0,0.0,0.0,0.0,0.0,0.0,0.0,0.0,0.0,0.0,0.0,0.0,0.0,0.0,0.0,0.0,0.0,0.0,0.0,0.0,0.0,0.0,0.0,0.0,0.0,0.0,0.0,0.0,0.0,0.0,0.0,0.0,0.0,0.0,0.0,0.0,0.0,0.0,0.0,0.0,0.0,0.0,0.0,0.0,0.0,0.0,0.0,0.0,0.0,0.0,0.0,0.0,0.0,0.0,0.0,0.0,0.0,0.0,0.0,0.0,0.0,0.0,0.0,0.0,0.0,0.0,0.0,0.0,0.0,0.0,0.0,0.0,0.0,0.0,0.0,0.0,0.0,0.0,0.0,0.0,0.0,0.0,0.0,0.0,0.0,0.0,0.0,0.0,0.0,0.0,0.0,0.0,0.0,0.0,0.0,0.0,0.0,0.0,0.0,0.0,0.0,0.0,0.0,0.0,0.0,0.0,0.0,0.0,0.0,0.0,0.0,0.0,0.0,0.0,0.0,0.0,0.0,0.0,0.0,0.0,0.0,0.0,0.0,0.0,0.0,0.0,0.0,0.0,0.0,0.0,0.0,0.0,0.0,0.0,0.0,0.0,0.0,0.0,0.0,0.0,0.0,0.0,0.0,0.0,0.0,0.0,0.0,0.0,0.0,0.0,0.0,0.0,0.0,0.0,0.0,0.0,0.0,0.0,0.0,0.0,0.0,0.0,0.0,0.0,0.0,0.0,0.0,0.0,0.0,0.0,0.0,0.0,0.0,0.0,0.0,0.0,0.0,0.0,0.0,0.0,0.0,0.0,0.0,0.0,0.0,0.0,0.0,0.0,0.0,0.0,0.0,0.0,0.0,0.0,0.0,0.0,0.0,0.0,0.0,0.0,0.0,0.0,0.0,0.0,0.0,0.0,0.0,0.0,0.0,0.0,0.0,0.0,0.0,0.0,0.0,0.0,0.0,0.0,0.0,0.0,0.0,0.0,0.0,0.0,0.0,0.0,0.0,0.0,0.0,0.0,0.0,0.0,0.0,0.0,0.0,0.0,0.0,0.0,0.0,0.0,0.0,0.0,0.0,0.0,0.0,0.0,0.0,0.0,0.0,0.0,0.0,0.0,0.0,0.0,0.0,0.0,0.0,0.0,0.0,0.0,0.0,0.0,0.0,0.0,0.0,0.0,0.0,0.0,0.0,0.0,0.0,0.0,0.0,0.0,0.0,0.0,0.0,0.0,0.0,0.0,0.0,0.0,0.0,0.0,0.0,0.0,0.0,0.0,0.0,0.0,0.0,0.0,0.0,0.0,0.0,0.0,0.0,0.0,0.0,0.0,0.0,0.0,0.0,0.0,0.0,0.0,0.0,0.0,0.0,0.0,0.0,0.0,0.0,0.0,0.0,0.0,0.0,-0.9609,0.0,0.0,0.0,0.0,0.0,0.0,0.0,0.0,0.0,0.0,0.0,0.0,0.0,0.0,0.0,0.0,0.0,0.0,0.0,0.0,0.0,0.0,0.0,0.0,0.0,0.0,0.0,0.0,0.0,0.0,0.0,0.0,0.0,0.0,0.0,0.0,0.0,0.0,0.0,0.0,0.0,0.0,0.0,0.0,0.0,0.0,0.0,0.0,0.0,0.0,0.0,0.0,0.0,0.0,0.0,0.0,0.0,0.0,0.0,0.0,0.0,0.0,0.0,0.0,0.0,0.0,0.0,0.0,0.0,0.0,0.0,0.0,0.0,0.0,0.0,0.0,0.0,0.0,0.0,0.0,0.0,0.0,0.0,0.0,0.0,0.0,0.0,0.0,0.0,0.0,0.0,0.0,0.0,0.0,0.0,0.0,0.0,0.0,0.0,0.0,0.0,0.0,0.0,0.0,0.0,0.0,0.0,0.0,0.0,0.0,-0.8706,-0.9382,-0.971,-0.9912,-0.999,0.0,0.0,0.0,0.0,0.0,0.0,0.0,0.0,0.0,0.0,0.0,0.0,0.0,0.0,0.0,0.0,0.0,0.0,0.0,0.0,0.0,0.0,0.0,0.0,0.0,0.0,0.0,0.0,0.0,0.0,0.0,0.0,0.0,0.0,0.0,0.0,0.0,0.0,0.0,0.0,0.0,0.0,0.0,0.0,0.0,0.0,0.0,0.0,0.0,0.0,0.0,0.0,0.0,0.0,0.0,0.0,0.0,0.0,0.0,0.0,0.0,0.0,0.0,0.0,0.0,0.0,0.0,0.0,0.0,0.0,0.0,0.0,0.0,0.0,0.0,0.0,0.0,0.0,0.0,0.0,0.0,0.0,0.0,0.0,0.0,0.0,0.0,0.0,0.0,0.0,0.0,0.0,0.0,0.0,0.0,0.0,0.0,0.0,0.0,0.0,0.0,0.0,0.0,0.0,0.0,0.0,0.0,0.0,0.0,0.0,0.0,0.0,-1.0304,-1.0473,-1.0341,0.0,0.0,0.0,0.0,0.0,0.0,0.0,0.0,0.0,0.0,0.0,0.0,0.0,0.0,0.0,0.0,0.0,0.0,0.0,0.0,0.0,0.0,0.0,0.0,0.0,0.0,0.0,0.0,0.0,0.0,0.0,0.0,0.0,0.0,0.0,0.0,0.0,0.0,0.0,0.0,0.0,0.0,0.0,0.0,0.0,0.0,0.0,0.0,0.0,0.0,0.0,0.0,0.0,0.0,0.0,0.0,0.0,0.0,0.0,0.0,0.0,0.0,0.0,0.0,0.0,0.0,0.0,0.0,0.0,0.0,0.0,0.0,0.0,0.0,0.0,0.0,0.0,0.0,0.0,0.0,0.0,0.0,0.0,0.0,0.0,0.0,0.0,0.0,0.0,0.0,0.0,0.0,0.0,0.0,0.0,0.0,0.0,0.0,0.0,0.0,0.0,0.0,0.0,0.0,0.0,0.0,0.0,0.0,0.0,0.0,-0.9666,-1.0476,-1.095,0.0,-1.0552,0.0,0.0,0.0,0.0,0.0,0.0,0.0,0.0,0.0,0.0,0.0,0.0,0.0,0.0,0.0,0.0,0.0,0.0,0.0,0.0,0.0,0.0,0.0,0.0,0.0,0.0,0.0,0.0,0.0,0.0,0.0,0.0,0.0,0.0,0.0,0.0,0.0,0.0,0.0,0.0,0.0,0.0,0.0,0.0,0.0,0.0,0.0,0.0,0.0,0.0,0.0,0.0,0.0,0.0,0.0,0.0,0.0,0.0,0.0,0.0,0.0,0.0,0.0,0.0,0.0,0.0,0.0,0.0,0.0,0.0,0.0,0.0,0.0,0.0,0.0,0.0,0.0,0.0,0.0,0.0,0.0,0.0,0.0,0.0,0.0,0.0,0.0,0.0,0.0,0.0,0.0,0.0,0.0,0.0,0.0,0.0,0.0,0.0,0.0,0.0,0.0,0.0,0.0,0.0,0.0,0.0,0.0,0.0,0.0,0.0,-1.0598,-1.1241,-1.1456,-1.1322,0.0,0.0,0.0,0.0,0.0,0.0,0.0,0.0,0.0,0.0,0.0,0.0,0.0,0.0,0.0,0.0,0.0,0.0,0.0,0.0,0.0,0.0,0.0,0.0,0.0,0.0,0.0,0.0,0.0,0.0,0.0,0.0,0.0,0.0,0.0,0.0,0.0,0.0,0.0,0.0,0.0,0.0,0.0,0.0,0.0,0.0,0.0,0.0,0.0,0.0,0.0,0.0,0.0,0.0,0.0,0.0,0.0,0.0,0.0,0.0,0.0,0.0,0.0,0.0,0.0,0.0,0.0,0.0,0.0,0.0,0.0,0.0,0.0,0.0,0.0,0.0,0.0,0.0,0.0,0.0,0.0,0.0,0.0,0.0,0.0,0.0,0.0,0.0,0.0,0.0,0.0,0.0,0.0,0.0,0.0,0.0,0.0,0.0,0.0,0.0,0.0,0.0,0.0,0.0,0.0,0.0,0.0,0.0,0.0,0.0,-1.0598,-1.1499,-1.2106,-1.2015,-1.1628,-1.1117,0.0,0.0,0.0,0.0,0.0,0.0,0.0,0.0,0.0,0.0,0.0,0.0,0.0,0.0,0.0,0.0,0.0,0.0,0.0,0.0,0.0,0.0,0.0,0.0,0.0,0.0,0.0,0.0,0.0,0.0,0.0,0.0,0.0,0.0,0.0,0.0,0.0,0.0,0.0,0.0,0.0,0.0,0.0,0.0,0.0,0.0,0.0,0.0,0.0,0.0,0.0,0.0,0.0,0.0,0.0,0.0,0.0,0.0,0.0,0.0,0.0,0.0,0.0,0.0,0.0,0.0,0.0,0.0,0.0,0.0,0.0,0.0,0.0,0.0,0.0,0.0,0.0,0.0,0.0,0.0,0.0,0.0,0.0,0.0,0.0,0.0,0.0,0.0,0.0,0.0,0.0,0.0,0.0,0.0,0.0,0.0,0.0,0.0,0.0,0.0,0.0,0.0,0.0,0.0,0.0,0.0,0.0,0.0,-0.985,-1.1068,-1.2235,-1.3264,-1.2711,-1.2057,0.0,0.0,0.0,0.0,0.0,0.0,0.0,0.0,0.0,0.0,0.0,0.0,0.0,0.0,0.0,0.0,0.0,0.0,0.0,0.0,0.0,0.0,0.0,0.0,0.0,0.0,0.0,0.0,0.0,0.0,0.0,0.0,0.0,0.0,0.0,0.0,0.0,0.0,0.0,0.0,0.0,0.0,0.0,0.0,0.0,0.0,0.0,0.0,0.0,0.0,0.0,0.0,0.0,0.0,0.0,0.0,0.0,0.0,0.0,0.0,0.0,0.0,0.0,0.0,0.0,0.0,0.0,0.0,0.0,0.0,0.0,0.0,0.0,0.0,0.0,0.0,0.0,0.0,0.0,0.0,0.0,0.0,0.0,0.0,0.0,0.0,0.0,0.0,0.0,0.0,0.0,0.0,0.0,0.0,0.0,0.0,0.0,0.0,0.0,0.0,0.0,0.0,0.0,0.0,0.0,0.0,0.0,0.0,0.0,-1.0794,-1.2522,-1.3633,-1.3977,-1.3239,-1.2388,0.0,0.0,0.0,0.0,0.0,0.0,0.0,0.0,0.0,0.0,0.0,0.0,0.0,0.0,0.0,0.0,0.0,0.0,0.0,0.0,0.0,0.0,0.0,0.0,0.0,0.0,0.0,0.0,0.0,0.0,0.0,0.0,0.0,0.0,0.0,0.0,0.0,0.0,0.0,0.0,0.0,0.0,0.0,0.0,0.0,0.0,0.0,0.0,0.0,0.0,0.0,0.0,0.0,0.0,0.0,0.0,0.0,0.0,0.0,0.0,0.0,0.0,0.0,0.0,0.0,0.0,0.0,0.0,0.0,0.0,0.0,0.0,0.0,0.0,0.0,0.0,0.0,0.0,0.0,0.0,0.0,0.0,0.0,0.0,0.0,0.0,0.0,0.0,0.0,0.0,0.0,0.0,0.0,0.0,0.0,0.0,0.0,0.0,0.0,0.0,0.0,0.0,0.0,0.0,0.0,0.0,0.0,0.0,0.0,-1.2285,0.0,-1.4817,-1.4817,-1.3831,-1.2808,0.0,0.0,0.0,0.0,0.0,0.0,0.0,0.0,0.0,0.0,0.0,0.0,0.0,0.0,0.0,0.0,0.0,0.0,0.0,0.0,0.0,0.0,0.0,0.0,0.0,0.0,0.0,0.0,0.0,0.0,0.0,0.0,0.0,0.0,0.0,0.0,0.0,0.0,0.0,0.0,0.0,0.0,0.0,0.0,0.0,0.0,0.0,0.0,0.0,0.0,0.0,0.0,0.0,0.0,0.0,0.0,0.0,0.0,0.0,0.0,0.0,0.0,0.0,0.0,0.0,0.0,0.0,0.0,0.0,0.0,0.0,0.0,0.0,0.0,0.0,0.0,0.0,0.0,0.0,0.0,0.0,0.0,0.0,0.0,0.0,0.0,0.0,0.0,0.0,0.0,0.0,0.0,0.0,0.0,0.0,0.0,0.0,0.0,0.0,0.0,0.0,0.0,0.0,0.0,0.0,0.0,0.0,0.0,-1.1547,-1.4273,-1.5276,-1.5692,-1.5699,-1.4594,-1.3275,0.0,0.0,0.0,0.0,0.0,0.0,0.0,0.0,0.0,0.0,0.0,0.0,0.0,0.0,0.0,0.0,0.0,0.0,0.0,0.0,0.0,0.0,0.0,0.0,0.0,0.0,0.0,0.0,0.0,0.0,0.0,0.0,0.0,0.0,0.0,0.0,0.0,0.0,0.0,0.0,0.0,0.0,0.0,0.0,0.0,0.0,0.0,0.0,0.0,0.0,0.0,0.0,0.0,0.0,0.0,0.0,0.0,0.0,0.0,0.0,0.0,0.0,0.0,0.0,0.0,0.0,0.0,0.0,0.0,0.0,0.0,0.0,0.0,0.0,0.0,0.0,0.0,0.0,0.0,0.0,0.0,0.0,0.0,0.0,0.0,0.0,0.0,0.0,0.0,0.0,0.0,0.0,0.0,0.0,0.0,0.0,0.0,0.0,0.0,0.0,0.0,0.0,0.0,0.0,0.0,0.0,0.0,0.0,0.0,-1.5448,-1.6263,-1.6517,-1.6188,-1.4956,-1.3529,0.0,0.0,0.0,0.0,0.0,0.0,0.0,0.0,0.0,0.0,0.0,0.0,0.0,0.0,0.0,0.0,0.0,0.0,0.0,0.0,0.0,0.0,0.0,0.0,0.0,0.0,0.0,0.0,0.0,0.0,0.0,0.0,0.0,0.0,0.0,0.0,0.0,0.0,0.0,0.0,0.0,0.0,0.0,0.0,0.0,0.0,0.0,0.0,0.0,0.0,0.0,0.0,0.0,0.0,0.0,0.0,0.0,0.0,0.0,0.0,0.0,0.0,0.0,0.0,0.0,0.0,0.0,0.0,0.0,0.0,0.0,0.0,0.0,0.0,0.0,0.0,0.0,0.0,0.0,0.0,0.0,0.0,0.0,0.0,0.0,0.0,0.0,0.0,0.0,0.0,0.0,0.0,0.0,0.0,0.0,0.0,0.0,0.0,0.0,0.0,0.0,0.0,0.0,0.0,0.0,0.0,0.0,0.0,0.0,-1.6613,-1.7139,-1.7212,-1.6796,-1.5372,-1.3818,-1.204,0.0,0.0,0.0,0.0,0.0,0.0,0.0,0.0,0.0,0.0,0.0,0.0,0.0,0.0,0.0,0.0,0.0,0.0,0.0,0.0,0.0,0.0,0.0,0.0,0.0,0.0,0.0,0.0,0.0,0.0,0.0,0.0,0.0,0.0,0.0,0.0,0.0,0.0,0.0,0.0,0.0,0.0,0.0,0.0,0.0,0.0,0.0,0.0,0.0,0.0,0.0,0.0,0.0,0.0,0.0,0.0,0.0,0.0,0.0,0.0,0.0,0.0,0.0,0.0,0.0,0.0,0.0,0.0,0.0,0.0,0.0,0.0,0.0,0.0,0.0,0.0,0.0,0.0,0.0,0.0,0.0,0.0,0.0,0.0,0.0,0.0,0.0,0.0,0.0,0.0,0.0,0.0,0.0,0.0,0.0,0.0,0.0,0.0,0.0,0.0,0.0,0.0,0.0,0.0,0.0,0.0,0.0,0.0,-1.7731,-1.7937,-1.7844,-1.7399,-1.5861,-1.4063,0.0,0.0,0.0,0.0,0.0,0.0,0.0,0.0,0.0,0.0,0.0,0.0,0.0,0.0,0.0,0.0,0.0,0.0,0.0,0.0,0.0,0.0,0.0,0.0,0.0,0.0,0.0,0.0,0.0,0.0,0.0,0.0,0.0,0.0,0.0,0.0,0.0,0.0,0.0,0.0,0.0,0.0,0.0,0.0,0.0,0.0,0.0,0.0,0.0,0.0,0.0,0.0,0.0,0.0,0.0,0.0,0.0,0.0,0.0,0.0,0.0,0.0,0.0,0.0,0.0,0.0,0.0,0.0,0.0,0.0,0.0,0.0,0.0,0.0,0.0,0.0,0.0,0.0,0.0,0.0,0.0,0.0,0.0,0.0,0.0,0.0,0.0,0.0,0.0,0.0,0.0,0.0,0.0,0.0,0.0,0.0,0.0,0.0,0.0,0.0,0.0,0.0,0.0,0.0,0.0,0.0,0.0,0.0,0.0,-1.8371,-1.8467,-1.8215,-1.7634,-1.6239,-1.4476,0.0,0.0,0.0,0.0,0.0,0.0,0.0,0.0,0.0,0.0,0.0,0.0,0.0,0.0,0.0,0.0,0.0,0.0,0.0,0.0,0.0,0.0,0.0,0.0,0.0,0.0,0.0,0.0,0.0,0.0,0.0,0.0,0.0,0.0,0.0,0.0,0.0,0.0,0.0,0.0,0.0,0.0,0.0,0.0,0.0,0.0,0.0,0.0,0.0,0.0,0.0,0.0,0.0,0.0,0.0,0.0,0.0,0.0,0.0,0.0,0.0,0.0,0.0,0.0,0.0,0.0,0.0,0.0,0.0,0.0,0.0,0.0,0.0,0.0,0.0,0.0,0.0,0.0,0.0,0.0,0.0,0.0,0.0,0.0,0.0,0.0,0.0,0.0,0.0,0.0,0.0,0.0,0.0,0.0,0.0,0.0,0.0,0.0,0.0,0.0,0.0,0.0,0.0,0.0,0.0,0.0,0.0,0.0,-1.7488,-1.8499,-1.8882,-1.8652,-1.7845,-1.6537,-1.481,0.0,0.0,0.0,0.0,0.0,0.0,0.0,0.0,0.0,0.0,0.0,0.0,0.0,0.0,0.0,0.0,0.0,0.0,0.0,0.0,0.0,0.0,0.0,0.0,0.0,0.0,0.0,0.0,0.0,0.0,0.0,0.0,0.0,0.0,0.0,0.0,0.0,0.0,0.0,0.0,0.0,0.0,0.0,0.0,0.0,0.0,0.0,0.0,0.0,0.0,0.0,0.0,0.0,0.0,0.0,0.0,0.0,0.0,0.0,0.0,0.0,0.0,0.0,0.0,0.0,0.0,0.0,0.0,0.0,0.0,0.0,0.0,0.0,0.0,0.0,0.0,0.0,0.0,0.0,0.0,0.0,0.0,0.0,0.0,0.0,0.0,0.0,0.0,0.0,0.0,0.0,0.0,0.0,0.0,0.0,0.0,0.0,0.0,0.0,0.0,0.0,0.0,0.0,0.0,0.0,0.0,0.0,0.0,-1.7984,-1.837,-1.9137,-1.9089,-1.8095,-1.6814,-1.5143,0.0,0.0,0.0,0.0,0.0,0.0,0.0,0.0,0.0,0.0,0.0,0.0,0.0,0.0,0.0,0.0,0.0,0.0,0.0,0.0,0.0,0.0,0.0,0.0,0.0,0.0,0.0,0.0,0.0,0.0,0.0,0.0,0.0,0.0,0.0,0.0,0.0,0.0,0.0,0.0,0.0,0.0,0.0,0.0,0.0,0.0,0.0,0.0,0.0,0.0,0.0,0.0,0.0,0.0,0.0,0.0,0.0,0.0,0.0,0.0,0.0,0.0,0.0,0.0,0.0,0.0,0.0,0.0,0.0,0.0,0.0,0.0,0.0,0.0,0.0,0.0,0.0,0.0,0.0,0.0,0.0,0.0,0.0,0.0,0.0,0.0,0.0,0.0,0.0,0.0,0.0,0.0,0.0,0.0,0.0,0.0,0.0,0.0,0.0,0.0,0.0,0.0,0.0,0.0,0.0,0.0,0.0,0.0,-1.8232,-1.8754,-1.8935,-1.8901,-1.8546,-1.74,-1.5688,0.0,0.0,0.0,0.0,0.0,0.0,0.0,0.0,0.0,0.0,0.0,0.0,0.0,0.0,0.0,0.0,0.0,0.0,0.0,0.0,0.0,0.0,0.0,0.0,0.0,0.0,0.0,0.0,0.0,0.0,0.0,0.0,0.0,0.0,0.0,0.0,0.0,0.0,0.0,0.0,0.0,0.0,0.0,0.0,0.0,0.0,0.0,0.0,-2.1025,0.0,0.0,0.0,0.0,0.0,0.0,0.0,0.0,0.0,0.0,0.0,0.0,0.0,0.0,0.0,0.0,0.0,0.0,0.0,0.0,0.0,0.0,0.0,0.0,0.0,0.0,0.0,0.0,0.0,0.0,0.0,0.0,0.0,0.0,0.0,0.0,0.0,0.0,0.0,0.0,0.0,0.0,0.0,0.0,0.0,0.0,0.0,0.0,0.0,0.0,0.0,0.0,0.0,0.0,0.0,0.0,0.0,0.0,0.0,-1.8616,-1.9052,-1.9103,-1.8927,-1.8526,-1.7558,-1.6022,0.0,0.0,0.0,0.0,0.0,0.0,0.0,0.0,0.0,0.0,0.0,0.0,0.0,0.0,0.0,0.0,0.0,0.0,0.0,0.0,0.0,0.0,0.0,0.0,0.0,0.0,0.0,0.0,0.0,0.0,0.0,0.0,0.0,0.0,0.0,0.0,0.0,0.0,0.0,0.0,0.0,0.0,0.0,0.0,0.0,0.0,0.0,0.0,0.0,0.0,0.0,0.0,0.0,0.0,0.0,0.0,0.0,0.0,0.0,0.0,0.0,0.0,0.0,0.0,0.0,0.0,0.0,0.0,0.0,0.0,0.0,0.0,0.0,0.0,0.0,0.0,0.0,0.0,0.0,0.0,0.0,0.0,0.0,0.0,0.0,0.0,0.0,0.0,0.0,0.0,0.0,0.0,0.0,0.0,0.0,0.0,0.0,0.0,0.0,0.0,0.0,0.0,0.0,0.0,0.0,0.0,0.0,-1.8942,-1.9108,-1.9417,-1.9448,-1.9127,-1.8414,-1.7633,-1.6378,-1.4602,0.0,0.0,0.0,0.0,0.0,0.0,0.0,0.0,0.0,0.0,0.0,0.0,0.0,0.0,0.0,0.0,0.0,0.0,0.0,0.0,0.0,0.0,0.0,0.0,0.0,0.0,0.0,0.0,0.0,0.0,0.0,0.0,0.0,0.0,0.0,0.0,0.0,0.0,-1.3899,-1.5249,0.0,0.0,0.0,0.0,0.0,0.0,0.0,0.0,-2.1454,0.0,0.0,0.0,0.0,0.0,0.0,0.0,0.0,0.0,0.0,0.0,0.0,0.0,0.0,0.0,0.0,0.0,0.0,0.0,0.0,0.0,0.0,0.0,0.0,0.0,0.0,0.0,0.0,0.0,0.0,0.0,0.0,0.0,0.0,0.0,0.0,0.0,0.0,0.0,0.0,0.0,0.0,0.0,0.0,0.0,0.0,0.0,0.0,0.0,0.0,0.0,0.0,0.0,0.0,0.0,0.0,-1.9199,-1.9561,-1.9802,-1.9977,-1.9866,-1.9446,-1.8728,-1.8101,-1.6962,-1.518,0.0,0.0,0.0,0.0,0.0,0.0,0.0,0.0,0.0,0.0,0.0,0.0,0.0,0.0,0.0,0.0,0.0,0.0,0.0,0.0,0.0,0.0,0.0,0.0,0.0,0.0,0.0,0.0,0.0,0.0,0.0,0.0,0.0,0.0,0.0,0.0,0.0,0.0,0.0,-1.6064,-1.6779,0.0,0.0,0.0,0.0,0.0,0.0,0.0,0.0,-2.1861,0.0,0.0,0.0,0.0,0.0,0.0,0.0,0.0,0.0,0.0,0.0,0.0,0.0,0.0,0.0,0.0,0.0,0.0,0.0,0.0,0.0,0.0,0.0,0.0,0.0,0.0,0.0,0.0,0.0,0.0,0.0,0.0,0.0,0.0,0.0,0.0,0.0,0.0,0.0,0.0,0.0,0.0,0.0,0.0,0.0,0.0,0.0,0.0,0.0,0.0,0.0,0.0,0.0,0.0,0.0,-1.9704,-1.9987,-2.0291,-2.0495,-2.0172,-1.9682,-1.9054,-1.8335,-1.7182,0.0,0.0,0.0,0.0,0.0,0.0,0.0,0.0,0.0,0.0,0.0,0.0,0.0,0.0,0.0,0.0,0.0,0.0,0.0,0.0,0.0,0.0,0.0,0.0,0.0,0.0,0.0,0.0,0.0,0.0,0.0,0.0,0.0,0.0,0.0,0.0,0.0,0.0,0.0,0.0,-1.6196,-1.6648,-1.6976,0.0,0.0,0.0,0.0,0.0,0.0,-2.0327,-2.1138,0.0,0.0,0.0,0.0,0.0,0.0,0.0,0.0,0.0,0.0,0.0,0.0,0.0,0.0,0.0,0.0,0.0,0.0,0.0,0.0,0.0,0.0,0.0,0.0,0.0,0.0,0.0,0.0,0.0,0.0,0.0,0.0,0.0,0.0,0.0,0.0,0.0,0.0,0.0,0.0,0.0,0.0,0.0,0.0,0.0,0.0,0.0,0.0,0.0,0.0,0.0,0.0,0.0,0.0,0.0,-2.0226,-2.0464,-2.0711,-2.0955,-2.0528,-2.0009,-1.9441,-1.861,-1.7448,0.0,0.0,0.0,0.0,0.0,0.0,0.0,0.0,0.0,0.0,0.0,0.0,0.0,0.0,0.0,0.0,0.0,0.0,0.0,0.0,0.0,0.0,0.0,0.0,0.0,0.0,0.0,0.0,0.0,0.0,0.0,0.0,0.0,0.0,0.0,0.0,0.0,0.0,0.0,0.0,0.0,-1.6507,-1.6743,-1.6965,0.0,0.0,0.0,0.0,-1.8649,-1.9452,0.0,0.0,0.0,0.0,0.0,0.0,0.0,0.0,0.0,0.0,0.0,0.0,0.0,0.0,0.0,0.0,0.0,0.0,0.0,0.0,0.0,0.0,0.0,0.0,0.0,0.0,0.0,0.0,0.0,0.0,0.0,0.0,0.0,0.0,0.0,0.0,0.0,0.0,0.0,0.0,0.0,0.0,0.0,0.0,0.0,0.0,0.0,0.0,0.0,0.0,0.0,0.0,0.0,0.0,0.0,0.0,-2.0796,-2.0999,-2.1178,-2.1336,-2.0987,-2.0506,-1.9868,-1.9108,-1.808,0.0,0.0,0.0,0.0,0.0,0.0,0.0,0.0,0.0,0.0,0.0,0.0,0.0,0.0,0.0,0.0,0.0,0.0,0.0,0.0,0.0,0.0,0.0,0.0,0.0,0.0,0.0,0.0,0.0,0.0,0.0,0.0,0.0,0.0,0.0,0.0,0.0,0.0,0.0,0.0,0.0,-1.6593,-1.7075,-1.7165,-1.7395,0.0,0.0,-1.7951,-1.8965,-1.8972,0.0,0.0,0.0,0.0,0.0,0.0,0.0,0.0,0.0,0.0,0.0,0.0,0.0,0.0,0.0,0.0,0.0,0.0,0.0,0.0,0.0,0.0,0.0,0.0,0.0,0.0,0.0,0.0,0.0,0.0,0.0,0.0,0.0,0.0,0.0,0.0,0.0,0.0,0.0,0.0,0.0,0.0,0.0,0.0,0.0,0.0,0.0,0.0,0.0,0.0,0.0,0.0,0.0,0.0,0.0,-2.0688,-2.1008,-2.1316,-2.1529,-2.1549,-2.1126,-2.0679,-2.0205,-1.9473,-1.8563,0.0,0.0,0.0,0.0,0.0,0.0,0.0,0.0,0.0,0.0,0.0,0.0,0.0,0.0,0.0,0.0,0.0,0.0,0.0,0.0,0.0,0.0,0.0,0.0,0.0,0.0,0.0,0.0,0.0,0.0,0.0,0.0,0.0,0.0,0.0,0.0,0.0,0.0,0.0,0.0,0.0,0.0,-1.6262,-1.6607,0.0,0.0,0.0,-1.7596,-1.8102,0.0,0.0,0.0,0.0,0.0,0.0,0.0,0.0,0.0,0.0,0.0,0.0,0.0,0.0,0.0,0.0,0.0,0.0,0.0,0.0,0.0,0.0,0.0,0.0,0.0,0.0,0.0,0.0,0.0,0.0,0.0,0.0,0.0,0.0,0.0,0.0,0.0,0.0,0.0,0.0,0.0,0.0,0.0,0.0,0.0,0.0,0.0,0.0,0.0,0.0,0.0,0.0,0.0,0.0,0.0,0.0,0.0,-2.1356,-2.1612,-2.1761,-2.173,-2.1296,-2.0839,-2.041,-1.9747,0.0,0.0,0.0,0.0,0.0,0.0,0.0,0.0,0.0,0.0,0.0,0.0,0.0,0.0,0.0,0.0,0.0,0.0,0.0,0.0,0.0,0.0,0.0,0.0,0.0,0.0,0.0,-1.4138,0.0,0.0,0.0,0.0,0.0,0.0,0.0,0.0,0.0,0.0,0.0,0.0,0.0,0.0,-1.5778,-1.5588,-1.608,-1.6483,0.0,0.0,-1.7209,-1.7414,-1.7694,-1.7977,0.0,0.0,0.0,0.0,0.0,0.0,0.0,0.0,0.0,0.0,0.0,0.0,0.0,0.0,0.0,0.0,0.0,0.0,0.0,0.0,0.0,0.0,0.0,0.0,0.0,0.0,0.0,0.0,0.0,0.0,0.0,0.0,0.0,0.0,0.0,0.0,0.0,0.0,0.0,0.0,0.0,0.0,0.0,0.0,0.0,0.0,0.0,0.0,0.0,0.0,0.0,0.0,0.0,0.0,0.0,-2.2092,-2.1968,-2.1894,-2.1862,-2.1537,-2.1051,-2.041,-1.9878,-1.922,0.0,0.0,0.0,0.0,0.0,0.0,0.0,0.0,0.0,0.0,0.0,0.0,0.0,0.0,0.0,0.0,0.0,0.0,0.0,0.0,0.0,0.0,0.0,0.0,0.0,0.0,0.0,0.0,0.0,0.0,0.0,0.0,0.0,0.0,0.0,0.0,0.0,0.0,0.0,0.0,0.0,-1.5068,-1.5629,-1.5725,-1.6072,0.0,0.0,-1.6684,-1.7394,-1.7063,-1.6899,-1.7469,0.0,0.0,0.0,0.0,0.0,0.0,0.0,0.0,0.0,0.0,0.0,0.0,0.0,0.0,0.0,0.0,0.0,0.0,0.0,0.0,0.0,0.0,0.0,0.0,0.0,0.0,0.0,0.0,0.0,0.0,0.0,0.0,0.0,0.0,0.0,0.0,0.0,0.0,0.0,0.0,0.0,0.0,0.0,0.0,0.0,0.0,0.0,0.0,0.0,0.0,0.0,0.0,0.0,-2.2011,-2.203,-2.2073,-2.203,-2.1894,-2.1557,-2.1253,-2.0914,-2.0248,-1.9616,0.0,0.0,0.0,0.0,0.0,0.0,0.0,0.0,0.0,0.0,0.0,0.0,0.0,0.0,0.0,0.0,0.0,0.0,0.0,0.0,0.0,0.0,0.0,0.0,0.0,0.0,0.0,0.0,-1.5824,-1.5506,-1.4999,0.0,0.0,0.0,0.0,0.0,0.0,0.0,0.0,0.0,0.0,-1.4689,-1.4764,-1.4937,0.0,0.0,-1.5819,-1.5879,-1.6152,-1.6016,-1.5929,-1.6178,-1.5966,0.0,0.0,0.0,0.0,0.0,0.0,0.0,0.0,0.0,0.0,0.0,0.0,0.0,0.0,0.0,0.0,0.0,0.0,0.0,0.0,0.0,0.0,0.0,0.0,0.0,0.0,0.0,0.0,0.0,0.0,0.0,0.0,0.0,0.0,0.0,0.0,0.0,0.0,0.0,0.0,0.0,0.0,0.0,0.0,0.0,0.0,0.0,0.0,0.0,0.0,0.0,0.0,-2.2278,-2.2154,-2.2216,-2.2197,-2.1999,-2.1694,-2.1431,-2.119,-2.0592,-1.9998,0.0,0.0,0.0,0.0,0.0,0.0,0.0,0.0,0.0,0.0,0.0,0.0,0.0,0.0,0.0,0.0,0.0,0.0,0.0,0.0,0.0,0.0,0.0,0.0,0.0,0.0,0.0,0.0,-1.6368,-1.5839,-1.5173,0.0,0.0,0.0,0.0,0.0,0.0,0.0,0.0,0.0,0.0,-1.4076,-1.3908,-1.4028,-1.4244,-1.4573,-1.4663,-1.4765,-1.4908,-1.4908,-1.486,-1.4949,0.0,0.0,0.0,0.0,0.0,0.0,0.0,0.0,0.0,0.0,0.0,0.0,0.0,0.0,0.0,0.0,0.0,0.0,0.0,0.0,0.0,0.0,0.0,0.0,0.0,0.0,0.0,0.0,0.0,0.0,-3.0568,0.0,0.0,0.0,0.0,0.0,0.0,0.0,0.0,0.0,0.0,0.0,0.0,0.0,0.0,0.0,0.0,0.0,0.0,0.0,0.0,0.0,0.0,-2.2678,-2.2678,-2.2494,-2.2328,-2.2185,-2.1999,-2.1663,-2.1221,-2.0807,-2.0345,-1.99,0.0,0.0,0.0,0.0,0.0,0.0,0.0,0.0,0.0,0.0,0.0,0.0,0.0,0.0,0.0,0.0,0.0,0.0,0.0,0.0,0.0,0.0,0.0,0.0,0.0,0.0,-1.7659,-1.673,-1.5839,0.0,0.0,0.0,0.0,0.0,0.0,0.0,0.0,0.0,0.0,-1.3124,-1.3142,-1.3128,-1.2872,-1.2926,-1.3414,-1.3312,-1.3318,-1.38,-1.3709,-1.3613,0.0,0.0,0.0,0.0,0.0,0.0,0.0,0.0,0.0,0.0,0.0,0.0,0.0,0.0,0.0,0.0,0.0,0.0,0.0,0.0,0.0,0.0,0.0,0.0,0.0,0.0,0.0,-3.2066,-3.1898,0.0,0.0,0.0,0.0,0.0,0.0,0.0,0.0,0.0,0.0,0.0,-2.9067,-2.8986,0.0,0.0,0.0,0.0,0.0,0.0,0.0,0.0,0.0,0.0,0.0,0.0,-2.2805,-2.2512,-2.242,-2.234,-2.2197,-2.1999,-2.1831,-2.1663,-2.1221,-2.0646,-1.9933,0.0,0.0,0.0,0.0,0.0,0.0,0.0,0.0,0.0,0.0,0.0,0.0,0.0,0.0,0.0,0.0,0.0,0.0,0.0,0.0,0.0,0.0,0.0,0.0,0.0,-1.821,0.0,0.0,0.0,0.0,0.0,0.0,0.0,0.0,0.0,0.0,0.0,-1.3652,-1.3408,-1.2959,-1.2517,-1.215,-1.1727,-1.1575,0.0,0.0,0.0,0.0,0.0,0.0,0.0,0.0,0.0,0.0,0.0,0.0,0.0,0.0,-1.6136,-1.7178,-1.7893,-1.8504,-1.8974,0.0,0.0,0.0,0.0,0.0,0.0,0.0,0.0,0.0,0.0,0.0,0.0,0.0,0.0,-3.1509,0.0,-3.0807,0.0,0.0,0.0,0.0,0.0,0.0,0.0,0.0,-2.8908,-2.9049,-2.9099,-2.8972,-2.8844,0.0,-2.8716,-2.7976,0.0,0.0,0.0,0.0,0.0,0.0,0.0,0.0,-2.3047,-2.2604,-2.2439,-2.2297,-2.2092,-2.1937,-2.18,-2.1726,-2.1285,-2.0722,-1.9998,-1.9539,-1.8998,0.0,0.0,0.0,0.0,0.0,0.0,0.0,0.0,0.0,0.0,0.0,0.0,0.0,0.0,0.0,0.0,0.0,0.0,0.0,0.0,0.0,0.0,0.0,-1.8371,0.0,0.0,0.0,0.0,0.0,0.0,0.0,0.0,0.0,-1.4128,-1.3787,-1.343,-1.3128,-1.2411,-1.1683,-1.1243,0.0,0.0,0.0,0.0,0.0,0.0,0.0,-1.056,-1.0413,-1.0167,-1.0113,-1.0551,-1.157,-1.2398,-1.2791,0.0,0.0,-1.6285,-1.7145,-1.7753,-1.8311,-1.8635,-1.8958,-1.9425,-1.9654,-1.9882,0.0,0.0,0.0,0.0,0.0,0.0,0.0,0.0,-3.0955,-3.0628,0.0,-3.016,0.0,0.0,0.0,0.0,0.0,-2.8619,0.0,0.0,-2.8826,-2.8908,-2.9067,-2.9067,-2.8972,-2.878,-2.878,-2.8098,-2.6874,-2.6776,0.0,0.0,0.0,0.0,0.0,0.0,-2.336,-2.2848,-2.2543,-2.2223,-2.1906,-2.1792,-2.1592,-2.142,-2.0978,-2.055,-2.0139,-1.9824,-1.9473,-1.9108,-1.8573,0.0,0.0,0.0,0.0,0.0,0.0,0.0,0.0,0.0,0.0,0.0,0.0,0.0,0.0,0.0,0.0,0.0,0.0,0.0,0.0,-1.882,0.0,0.0,0.0,0.0,0.0,0.0,0.0,0.0,0.0,0.0,-1.4166,-1.3546,-1.2916,-1.2472,0.0,0.0,0.0,0.0,-0.9282,-0.9525,-0.9331,-0.9282,-0.9529,-0.9579,-0.9579,-0.9579,0.0,0.0,-0.9509,-1.0252,-1.0944,-1.1443,-1.2029,-1.3093,-1.5248,-1.6109,-1.6763,-1.7512,-1.7893,-1.8218,-1.8735,-1.9234,-1.96,-3.3494,0.0,0.0,0.0,0.0,-3.2599,-3.1952,-3.1205,-3.0881,-3.0437,-2.9931,-2.9654,0.0,0.0,0.0,0.0,0.0,0.0,-2.8716,-2.8683,-2.8748,-2.878,-2.8748,-2.8748,-2.8638,-2.843,-2.843,-2.7956,-2.7086,-2.6644,-2.5871,-2.4776,0.0,0.0,0.0,0.0,-2.2969,-2.2432,-2.2309,-2.2092,-2.1761,-2.173,-2.1592,-2.1388,-2.1273,-2.0999,-2.055,-2.0302,-1.9878,-1.9274,-1.8731,0.0,0.0,0.0,0.0,0.0,0.0,0.0,0.0,0.0,0.0,0.0,0.0,0.0,0.0,0.0,0.0,0.0,0.0,0.0,-1.9222,-1.9124,-1.8804,0.0,0.0,0.0,0.0,0.0,0.0,0.0,0.0,0.0,-1.3985,-1.3491,-1.2836,0.0,0.0,-1.0261,-0.9628,-0.9031,-0.863,-0.873,-0.868,0.0,-0.8977,-0.8878,-0.8733,-0.8733,-0.8684,-0.873,-0.8973,-0.9513,-1.0105,-1.0654,-1.134,-1.2219,-1.3329,-1.4478,-1.5575,-1.6622,-1.6958,-1.7372,-1.8295,-1.8812,-1.9196,-3.2616,-3.3072,-3.3209,-3.3024,-3.2679,-3.2202,-3.1646,-3.1029,-3.069,-3.0285,-2.9859,-2.943,-2.9191,-2.9126,-2.8779,0.0,0.0,0.0,-2.8683,-2.8587,-2.8683,-2.8638,-2.8476,-2.8463,-2.8365,-2.8216,-2.8137,-2.7759,-2.7059,-2.6575,-2.5822,-2.4988,0.0,0.0,-2.3407,-2.3053,-2.2628,-2.2099,-2.1851,-2.1643,-2.1391,-2.1308,-2.1244,-2.1126,-2.1051,-2.0839,-2.0485,-2.0205,-1.9846,-1.9308,-1.8798,-1.8363,0.0,0.0,0.0,0.0,0.0,0.0,0.0,0.0,0.0,0.0,0.0,-1.8922,-1.8931,0.0,0.0,0.0,-1.9624,-1.9747,-1.9675,-1.9431,0.0,0.0,0.0,0.0,0.0,0.0,0.0,-1.4509,-1.4021,-1.3648,-1.3451,-1.2912,-1.2347,-1.1912,-1.0806,-0.9871,-0.9282,0.0,-0.8233,-0.8233,-0.8233,-0.8283,-0.8482,-0.8333,-0.8233,-0.8233,-0.8237,-0.8283,-0.8478,-0.8825,-0.932,-0.9821,-1.0413,-1.1145,-1.2219,-1.3184,-1.4286,-1.5689,-1.6163,-1.6629,-1.766,-1.821,-1.8689,-3.1249,-3.114,-3.186,-3.2033,-3.1735,-3.1299,-3.097,-3.0725,-3.0385,-3.0104,-2.981,-2.9322,-2.9013,-2.8818,-2.8444,0.0,-2.8554,-2.8554,-2.8554,-2.8554,-2.8554,-2.8444,-2.8254,-2.8254,-2.8183,-2.8,-2.7822,-2.7446,-2.6836,-2.6414,-2.5825,-2.5122,-2.4391,-2.3705,-2.311,-2.2702,-2.2298,-2.1815,-2.1356,-2.104,-2.0903,-2.0754,-2.0669,-2.0669,-2.0475,-2.0291,-2.0074,-1.9758,-1.9506,-1.9285,-1.8785,-1.8502,-1.8543,0.0,0.0,0.0,0.0,0.0,0.0,0.0,0.0,0.0,0.0,0.0,0.0,0.0,0.0,0.0,-2.0268,0.0,-2.0201,-1.9743,0.0,0.0,0.0,-1.6378,-1.572,-1.5014,-1.4509,-1.4274,0.0,0.0,-1.2813,-1.2024,-1.1536,-1.1438,-1.0364,-0.948,-0.9183,-0.8489,-0.7988,-0.7988,-0.7988,-0.7988,-0.8038,-0.8038,-0.8038,-0.8038,-0.7988,-0.7988,-0.8041,-0.8233,-0.8584,-0.9084,-0.9377,-1.0068,-1.1639,-1.2175,-1.2899,-1.4646,-1.5356,-1.5974,-1.6831,-1.7527,-1.8172,-3.0152,-3.0,-3.0173,-3.0774,-3.1606,-3.1343,-3.0889,-3.0261,-3.0019,-2.9421,-2.8559,-2.8398,-2.8325,-2.8279,-2.8198,-2.8177,-2.8243,-2.821,-2.821,-2.821,-2.8243,-2.8099,-2.7894,-2.7894,-2.7756,-2.7469,-2.7289,-2.6963,-2.6506,-2.5845,-2.5236,-2.464,-2.3784,-2.322,-2.2941,-2.226,-2.1639,-2.1146,-2.1019,-2.0903,-2.0765,-2.0572,-2.0475,-2.0475,-2.0291,-2.0118,-1.9955,-1.9736,-1.9473,-1.9175,-1.864,-1.8331,-1.8376,-1.8301,0.0,0.0,0.0,0.0,0.0,0.0,0.0,0.0,0.0,-1.9512,-1.9553,0.0,-1.9823,0.0,-2.0232,-2.0201,-1.9905,-1.9592,0.0,0.0,-1.7219,-1.6292,-1.5564,-1.482,-1.4279,-1.4016,-1.3539,-1.2953,-1.2273,-1.1492,-1.0752,-1.0167,-0.9628,-0.9133,-0.8634,-0.8237,-0.7988,-0.7988,-0.7988,-0.7988,-0.7988,-0.7988,-0.7988,-0.7988,-0.7988,-0.7988,-0.7988,-0.8041,-0.8187,-0.8535,-0.8985,-0.9723,-1.085,-1.1634,-1.2467,-1.3636,-1.4448,-1.5309,-1.6447,-1.6951,-1.7498,-2.8739,-2.8567,-2.8567,-2.9069,-2.9856,-3.0135,-3.0033,-2.9601,-2.9495,-2.9092,-2.8499,-2.8236,-2.7986,-2.7802,-2.7782,-2.7782,-2.7835,-2.7835,-2.7848,-2.7848,-2.7723,-2.761,-2.7443,-2.7356,-2.7154,-2.6816,-2.653,-2.622,-2.5871,-2.5173,-2.4658,-2.4354,-2.3352,-2.2754,-2.2615,-2.1835,-2.1183,-2.0679,-2.0421,-2.0226,-2.0064,-1.9911,-1.9835,-1.9835,-1.9726,-1.9518,-1.9287,-1.9154,-1.8954,-1.8607,-1.8311,-1.8222,-1.8286,-1.8239,-1.831,0.0,0.0,0.0,0.0,0.0,0.0,0.0,0.0,0.0,0.0,0.0,-1.9924,-2.0264,-2.0443,-2.0411,-2.0062,-1.9669,-1.9106,-1.8253,-1.7123,-1.6143,-1.548,-1.4634,-1.3973,-1.3588,-1.3007,-1.237,-1.1731,-1.0855,-1.0015,-0.9324,-0.8882,-0.8634,-0.8435,-0.8187,-0.7988,-0.7988,-0.7988,-0.7939,-0.7842,-0.769,-0.7637,-0.764,-0.7637,-0.764,-0.7637,-0.7637,-0.7786,-0.8187,-0.8634,-0.9377,-1.0408,-1.1389,-1.2273,-1.3001,-1.3829,-1.4736,-1.5818,-1.6426,-1.7091,-2.7268,-2.7134,-2.71,-2.7165,-2.7404,-2.8206,-2.8605,-2.8789,-2.8789,-2.8737,-2.8647,-2.8109,-2.77,-2.7369,-2.7235,-2.7268,-2.7369,-2.7356,-2.7356,-2.7323,-2.7129,-2.696,-2.6803,-2.6598,-2.6336,-2.5978,-2.5594,-2.5312,-2.5064,-2.4407,-2.4045,-2.3938,-2.2989,-2.2385,-2.2165,-2.1474,-2.083,-2.0259,-1.9736,-1.9407,-1.9252,-1.9075,-1.8998,-1.8998,-1.8965,-1.8764,-1.8408,-1.8341,-1.8182,-1.7881,-1.7875,-1.7959,-1.8138,-1.8228,-1.8362,0.0,-1.8652,0.0,0.0,0.0,0.0,0.0,0.0,0.0,0.0,-1.9892,-2.0051,-2.0298,-2.0668,-2.0682,-2.0192,-1.9737,-1.9042,-1.8079,-1.685,-1.5906,-1.5391,-1.4502,-1.369,-1.3152,-1.2419,-1.1731,-1.1091,-1.0113,-0.9229,-0.8726,-0.8233,-0.7985,-0.8184,-0.7985,-0.7839,-0.7889,-0.7885,-0.7739,-0.7593,-0.7338,-0.7235,-0.7235,-0.7235,-0.7185,-0.7235,-0.7235,-0.7388,-0.7885,-0.8432,-0.9126,-1.0162,-1.1194,-1.2029,-1.2662,-1.3346,-1.4118,-1.5112,-1.5967,-1.673,-2.6327,-2.6141,-2.599,-2.5935,-2.5975,-2.599,-2.6604,-2.7622,-2.7609,-2.7344,-2.6914,-2.6754,-2.67,-2.6633,-2.6586,-2.6586,-2.6586,-2.6598,-2.6552,-2.6427,-2.6405,-2.6117,-2.5616,-2.5581,-2.5264,-2.4743,-2.4528,-2.4274,-2.3911,-2.3618,-2.3287,-2.2979,-2.2595,-2.2147,-2.1591,0.0,0.0,0.0,-1.9152,-1.8942,-1.8885,-1.8607,-1.8438,-1.8438,-1.8114,0.0,-1.7833,-1.7569,-1.7329,-1.7132,-1.7124,0.0,0.0,0.0,0.0,0.0,0.0,0.0,0.0,0.0,0.0,0.0,-1.9739,-1.973,-2.0035,-2.035,-2.0373,-2.0045,-2.0249,-2.0147,-1.9471,-1.8773,-1.8125,-1.7466,-1.6285,-1.5439,-1.5172,-1.4406,-1.369,-1.3147,-1.2273,-1.1292,-1.0346,-0.932,-0.8428,-0.7932,-0.7534,-0.7388,-0.7437,-0.7388,-0.7338,-0.7388,-0.7388,-0.7338,-0.7288,-0.7185,-0.7135,-0.7185,-0.7185,-0.7188,-0.7185,-0.7188,-0.7388,-0.7889,-0.8233,-0.8878,-1.0113,-1.0949,-1.1639,-1.2322,-1.2905,-1.3582,-1.4586,-1.5397,-1.6251,-2.55,0.0,-2.5194,-2.5135,0.0,-2.4945,-2.5218,-2.5792,-2.6256,-2.6272,-2.6,-2.5814,-2.5709,-2.5709,-2.5709,-2.5721,-2.5721,-2.5709,-2.5674,-2.5581,-2.5441,-2.5123,-2.4767,-2.4671,-2.4335,-2.3863,-2.3692,-2.3434,-2.315,-2.2841,-2.2553,-2.2252,-2.2063,-2.1683,-2.1135,-2.0434,-1.974,-1.9111,-1.8538,-1.8192,-1.8022,-1.775,-1.7632,-1.7588,0.0,0.0,0.0,0.0,0.0,0.0,0.0,0.0,0.0,0.0,0.0,-1.7708,-1.7975,-1.8235,-1.8397,-1.8735,-1.9151,-1.9525,-1.9603,-1.9794,-2.0152,-2.0279,-2.0201,-1.9928,-1.9828,-1.9509,-1.8858,-1.8118,-1.7466,-1.681,-1.5872,-1.5118,-1.4688,-1.4022,-1.3249,-1.2565,-1.1634,-1.065,-0.9756,-0.8775,-0.8035,-0.7484,-0.7138,-0.6939,-0.6886,-0.7036,-0.7185,-0.7185,-0.7039,-0.6939,-0.6836,-0.6786,-0.6736,-0.6639,-0.6736,-0.6786,-0.6786,-0.6939,-0.7141,-0.7537,-0.8134,-0.8928,-0.9821,-1.0757,-1.1585,-1.2122,-1.271,-1.3195,-1.3871,-1.4729,-1.5724,-2.4636,-2.4432,-2.4396,-2.4288,-2.419,-2.4154,-2.4057,-2.3945,0.0,0.0,0.0,-2.4909,-2.4755,-2.4767,-2.4731,-2.4731,-2.4695,-2.4695,-2.4683,-2.4576,-2.4299,-2.4045,-2.3827,-2.3666,-2.3372,-2.2964,-2.2777,-2.259,-2.2365,-2.2025,-2.1769,-2.1578,-2.1387,-2.1069,-2.0556,-1.9439,-1.8733,-1.8562,-1.7929,-1.7441,-1.7197,-1.6969,-1.6864,-1.6864,-1.6678,-1.6493,-1.6333,-1.6467,-1.6447,-1.6272,-1.6715,-1.7004,-1.6934,-1.7145,-1.7302,-1.7376,-1.7613,-1.7826,-1.7957,-1.8504,-1.8917,-1.8974,-1.9269,-1.9671,-2.0155,-1.9973,-1.9791,-1.97,-1.9325,-1.8812,-1.8203,-1.7458,-1.6763,-1.6048,-1.5356,-1.4688,-1.4196,-1.348,-1.271,-1.198,-1.0998,-0.9961,-0.9167,-0.8333,-0.769,-0.7188,-0.6839,-0.6642,-0.6487,-0.6786,-0.6986,-0.6989,-0.6839,-0.6642,-0.6489,-0.6437,-0.6339,-0.6239,-0.6289,-0.6387,-0.6437,-0.6642,-0.6892,-0.7285,-0.8081,-0.8878,-0.9575,-1.0609,-1.1536,-1.1927,-1.2516,-1.3007,-1.3195,-1.4052,-1.5194,-2.3621,-2.3471,-2.3102,-2.2964,-2.2916,-2.2767,-2.2703,-2.274,-2.3714,-2.4032,-2.3875,-2.3801,-2.3813,-2.3801,-2.3801,-2.3703,-2.3545,-2.3545,-2.3361,-2.3027,-2.299,-2.2729,-2.2392,-2.2365,-2.2138,-2.1769,-2.154,-2.1349,-2.1136,-2.0905,-2.0799,-2.076,-2.0518,-2.0089,-1.9502,-1.8665,-1.7941,-1.7377,-1.7249,-1.7169,-1.7132,-1.6925,-1.6822,-1.6813,-1.6609,-1.6497,-1.6459,-1.6384,-1.6228,-1.6084,-1.639,-1.6531,-1.6341,-1.6629,-1.6915,-1.7201,-1.7281,-1.7568,-1.8193,-1.8337,-1.852,-1.8816,-1.8896,-1.9112,-1.9625,-1.9679,-1.9442,-1.9012,-1.8673,-1.8156,-1.7271,-1.648,-1.5818,-1.5289,-1.4532,-1.3956,-1.3661,-1.2948,-1.2273,-1.1688,-1.0502,-0.9414,-0.8627,-0.7832,-0.7138,-0.6686,-0.6537,-0.6439,-0.6387,-0.6437,-0.6487,-0.6487,-0.6487,-0.6437,-0.6387,-0.6387,-0.6337,-0.6337,-0.6337,-0.6387,-0.6387,-0.6592,-0.6942,-0.7434,-0.8031,-0.8779,-0.9723,-1.0462,-1.1194,-1.1834,-1.2273,-1.2613,-1.2953,-1.3673,-1.4519,-2.2483,-2.2289,-2.2014,-2.189,-2.189,-2.1787,-2.1672,-2.1634,-2.208,-2.2467,-2.2777,-2.2665,-2.2628,-2.2628,-2.274,-2.274,-2.2628,-2.2542,-2.2381,-2.2193,-2.2014,-2.17,-2.1471,-2.1443,-2.1213,-2.0789,-2.0683,-2.0557,-2.0343,-2.0157,-2.0001,-1.9854,-1.9411,-1.8935,-1.8407,-1.7852,-1.7279,-1.6742,-1.6644,-1.6514,-1.6286,-1.6179,-1.6149,-1.6141,-1.6065,-1.595,-1.5865,-1.5997,-1.5983,-1.578,-1.6109,-1.6168,-1.5965,-1.607,-1.6258,-1.646,-1.6657,-1.6969,-1.7447,-1.7644,-1.7819,-1.7971,-1.7885,-1.7932,-1.8172,-1.855,-1.8689,-1.8404,-1.7846,-1.7138,-1.6386,-1.5683,-1.5016,-1.4478,-1.3956,-1.3528,-1.3141,-1.2559,-1.1878,-1.0998,-0.9912,-0.8871,-0.8031,-0.7388,-0.6839,-0.6487,-0.6387,-0.6337,-0.6189,-0.6189,-0.6237,-0.6337,-0.6387,-0.6337,-0.6239,-0.6337,-0.6337,-0.6187,-0.6287,-0.6387,-0.6437,-0.6642,-0.6942,-0.7338,-0.7935,-0.868,-0.962,-1.0364,-1.0998,-1.1585,-1.1975,-1.2316,-1.2705,-1.3431,-1.4526,-2.1318,-2.1118,-2.0905,-2.0818,-2.0769,-2.0769,-2.0653,-2.0547,-2.0547,-2.0895,-2.1415,-2.1492,-2.154,-2.153,-2.1683,-2.1721,-2.1596,-2.1433,-2.1308,-2.1183,-2.0924,-2.0692,-2.0547,-2.0479,-2.0274,-1.9932,-1.9805,-1.9678,-1.9462,-1.9274,-1.9045,-1.8776,-1.8256,-1.7813,-1.7408,-1.709,-1.6722,-1.6281,-1.615,-1.5959,-1.5732,-1.5693,-1.5701,-1.5701,-1.5748,-1.5654,-1.5505,-1.5792,-1.5867,-1.5665,-1.5819,-1.5824,-1.5575,-1.5443,-1.5485,-1.5684,-1.5914,-1.623,-1.6557,-1.6807,-1.6951,-1.6951,-1.6763,-1.6669,-1.6662,-1.7044,-1.7426,-1.752,-1.6864,-1.6109,-1.5588,-1.4879,-1.425,-1.3763,-1.3437,-1.3055,-1.2565,-1.2024,-1.1292,-1.0314,-0.927,-0.8379,-0.7733,-0.7138,-0.6692,-0.6389,-0.6289,-0.6187,-0.5989,-0.5942,-0.5989,-0.6139,-0.6237,-0.6137,-0.5939,-0.6037,-0.6087,-0.5939,-0.6087,-0.6134,-0.6237,-0.6439,-0.6792,-0.7141,-0.7786,-0.8531,-0.9377,-1.0068,-1.0752,-1.134,-1.1731,-1.2029,-1.2419,-1.319,-1.4436,-2.0255,-2.002,-1.9833,-1.9627,-1.949,-1.9499,-1.946,-1.945,-1.946,-1.946,-1.9657,-2.0362,-2.0683,-2.0722,-2.0722,-2.0527,-2.0167,-2.0089,-1.9893,-1.9559,-1.9499,-1.946,-1.942,-1.9262,-1.9161,-1.9033,-1.8705,-1.8416,-1.8198,-1.7965,-1.7651,-1.7237,-1.7155,-1.6919,-1.6558,-1.6476,-1.6229,-1.5775,-1.5756,-1.5857,-1.6037,-1.6037,-1.6044,-1.6044,-1.6029,-1.6037,-1.595,-1.6067,-1.5951,-1.5696,-1.5496,-1.5367,-1.5124,-1.4741,-1.4779,-1.5287,-1.516,-1.5281,-1.5806,-1.59,-1.5927,-1.592,-1.5724,-1.5527,-1.5527,-1.5255,-1.5397,-1.6008,-1.5812,-1.5296,-1.4831,-1.4112,-1.3534,-1.319,-1.2807,-1.2273,-1.178,-1.0998,-1.0314,-0.9727,-0.8715,-0.7935,-0.7568,-0.7083,-0.6592,-0.6089,-0.6039,-0.5939,-0.5689,-0.5636,-0.5636,-0.5684,-0.5684,-0.5684,-0.5636,-0.5636,-0.5737,-0.5687,-0.5636,-0.5734,-0.5834,-0.6137,-0.6539,-0.6842,-0.7487,-0.8283,-0.9031,-0.9677,-1.0314,-1.1042,-1.1477,-1.177,-1.2273,-1.2813,-1.3705,-1.9054,-1.8944,-1.8754,-1.8554,-1.8336,-1.8215,-1.8167,-1.8167,-1.8167,-1.8167,-1.8198,-1.8559,-1.9054,-1.9627,-1.9666,-1.946,-1.9183,-1.9015,-1.8865,-1.8696,-1.8585,-1.8465,-1.8336,-1.8256,-1.8103,-1.7813,-1.7472,-1.7237,-1.7033,-1.6714,-1.6345,-1.609,-1.6057,-1.5891,-1.5658,-1.5733,-1.565,-1.5374,-1.5458,-1.559,-1.5673,-1.568,-1.568,-1.5714,-1.5797,-1.5741,-1.5548,-1.5506,-1.5284,-1.481,-1.4517,-1.423,-1.3851,-1.3682,-1.3769,-1.418,-1.445,-1.4675,-1.4902,-1.4914,-1.4921,-1.4921,-1.4675,-1.4526,-1.4478,-1.4202,-1.4208,-1.4484,-1.458,-1.4388,-1.4016,-1.3539,-1.3104,-1.271,-1.237,-1.1873,-1.1189,-1.0498,-0.9753,-0.8931,-0.815,-0.7514,-0.7085,-0.6647,-0.6187,-0.5839,-0.5737,-0.5625,-0.5434,-0.5388,-0.5288,-0.5186,-0.5133,-0.5284,-0.5484,-0.5584,-0.5584,-0.5584,-0.5584,-0.5584,-0.5634,-0.5887,-0.6239,-0.6489,-0.7185,-0.7982,-0.8829,-0.9426,-1.0019,-1.0672,-1.1211,-1.15,-1.1687,-1.201,-1.2684,-1.8014,-1.7934,-1.7659,-1.7465,-1.7245,-1.7115,-1.7033,-1.7033,-1.7033,-1.7025,-1.7033,-1.7033,-1.7399,-1.8063,-1.8385,-1.8425,-1.8215,-1.7974,-1.7844,-1.7772,-1.7578,-1.7375,-1.7253,-1.7164,-1.696,-1.6665,-1.6453,-1.6167,-1.5886,-1.5453,-1.5133,-1.5042,-1.5015,-1.4948,-1.4866,-1.4992,-1.5026,-1.4957,-1.509,-1.5173,-1.5215,-1.5173,-1.5173,-1.5298,-1.5325,-1.5193,-1.4957,-1.4797,-1.4447,-1.3851,-1.3555,-1.3215,-1.2784,-1.2705,-1.2903,-1.3302,-1.3773,-1.4112,-1.4106,-1.4058,-1.4106,-1.4064,-1.3817,-1.3667,-1.3619,-1.3431,-1.3298,-1.334,-1.3431,-1.3431,-1.3389,-1.3104,-1.2732,-1.2287,-1.1889,-1.1288,-1.0435,-0.9731,-0.8941,-0.8034,-0.7366,-0.6891,-0.6421,-0.6035,-0.5736,-0.5487,-0.5445,-0.5304,-0.5118,-0.5027,-0.4999,-0.4802,-0.4766,-0.4985,-0.5334,-0.5334,-0.5384,-0.5386,-0.5336,-0.5336,-0.5384,-0.5589,-0.5892,-0.6089,-0.6836,-0.7428,-0.8067,-0.8715,-0.951,-1.0285,-1.0767,-1.0995,-1.1137,-1.1316,-1.1672,-1.7318,-1.6992,-1.664,-1.6345,-1.618,-1.6131,-1.6139,-1.609,-1.6131,-1.6139,-1.6131,-1.6139,-1.6015,-1.5974,-1.6952,-1.7318,-1.7082,-1.6862,-1.6665,-1.6468,-1.6304,-1.6173,-1.6139,-1.5899,-1.5767,-1.5696,-1.5474,-1.5136,-1.4665,-1.4193,-1.4013,-1.4035,-1.4069,-1.409,-1.4147,-1.4181,-1.4272,-1.4398,-1.4482,-1.4524,-1.465,-1.4524,-1.4615,-1.4922,-1.4699,-1.4475,-1.4349,-1.3984,-1.3512,-1.3045,-1.2833,-1.2485,-1.21,-1.2037,-1.2277,-1.2757,-1.3248,-1.3534,-1.3534,-1.3491,-1.3491,-1.3491,-1.3244,-1.3147,-1.3098,-1.2905,-1.2807,-1.2807,-1.2597,-1.263,-1.2877,-1.2619,-1.2212,-1.175,-1.1086,-1.0285,-0.9379,-0.8613,-0.7835,-0.7076,-0.6514,-0.6055,-0.5578,-0.5434,-0.5315,-0.5124,-0.5065,-0.4979,-0.4764,-0.4718,-0.4708,-0.4728,-0.4769,-0.483,-0.483,-0.4935,-0.4935,-0.4935,-0.5035,-0.4878,-0.4933,-0.5037,-0.5331,-0.5672,-0.6189,-0.6726,-0.7242,-0.7919,-0.8793,-0.9514,-1.0052,-1.0362,-1.0594,-1.0862,-1.1105,-1.5974,-1.5733,-1.5318,-1.5061,-1.5019,-1.4894,-1.4817,-1.4817,-1.481,-1.481,-1.4817,-1.481,-1.4768,-1.4685,-1.5095,-1.547,-1.5782,-1.5692,-1.5526,-1.5311,-1.5235,-1.5144,-1.5012,-1.4894,-1.4781,-1.4584,-1.4234,-1.3804,-1.334,-1.3008,-1.2968,-1.3093,-1.314,-1.3242,-1.3435,-1.3688,-1.3899,-1.3977,-1.4104,-1.4188,-1.4026,-1.3682,-1.3555,-1.3597,-1.3851,-1.3815,-1.3506,-1.3088,-1.2662,-1.2186,-1.1794,-1.1456,-1.1214,-1.127,-1.1486,-1.1798,-1.2167,-1.2416,-1.2538,-1.2559,-1.2516,-1.2516,-1.2467,-1.2419,-1.237,-1.2322,-1.2224,-1.2052,-1.1829,-1.1763,-1.1657,-1.1662,-1.1489,-1.0977,-1.0236,-0.9341,-0.8524,-0.7695,-0.6941,-0.6337,-0.583,-0.5435,-0.5204,-0.5135,-0.5041,-0.4806,-0.4759,-0.4707,-0.4668,-0.4652,-0.4622,-0.4624,-0.4647,-0.4667,-0.4667,-0.4775,-0.4784,-0.4784,-0.4828,-0.479,-0.4829,-0.4952,-0.5237,-0.528,-0.5664,-0.6093,-0.6614,-0.7398,-0.8218,-0.8839,-0.9364,-0.9789,-1.0108,-1.0298,-1.0477,-1.4783,-1.4622,-1.4321,-1.4146,-1.4062,-1.3935,-1.3857,-1.387,-1.3815,-1.3773,-1.3779,-1.3682,-1.3633,-1.3633,-1.3633,-1.3808,-1.423,-1.4489,-1.4496,-1.4279,-1.423,-1.4057,-1.3761,-1.3754,-1.3602,-1.3338,-1.2938,-1.2563,-1.2195,-1.1944,-1.1866,-1.1964,-1.2061,-1.2237,-1.2525,-1.2877,-1.3121,-1.3281,-1.3385,-1.3336,-1.3222,-1.2741,-1.2357,-1.2229,-1.2443,-1.2613,-1.2528,-1.2192,-1.1763,-1.137,-1.1073,-1.0857,-1.0748,-1.0863,-1.105,-1.1207,-1.1466,-1.1694,-1.1887,-1.1923,-1.1953,-1.1975,-1.1927,-1.1878,-1.1878,-1.1672,-1.1439,-1.1245,-1.0948,-1.0674,-1.0429,-1.0336,-1.0248,-0.9959,-0.9203,-0.8325,-0.7494,-0.6718,-0.6128,-0.5574,-0.5163,-0.4878,-0.4789,-0.48,-0.4661,-0.4485,-0.4532,-0.4483,-0.4483,-0.4514,-0.4528,-0.4532,-0.461,-0.4631,-0.4596,-0.4675,-0.4712,-0.4716,-0.4736,-0.4716,-0.4696,-0.4865,-0.4927,-0.4966,-0.5171,-0.5586,-0.6134,-0.6907,-0.7531,-0.8149,-0.8651,-0.9093,-0.9371,-0.9677,-0.9874,-1.3688,-1.3652,-1.3695,-1.3519,-1.3349,-1.3349,-1.3355,-1.3264,-1.3118,-1.3008,-1.2911,-1.2747,-1.265,-1.265,-1.2638,-1.2571,-1.2626,-1.3206,-1.3442,-1.3305,-1.3117,-1.2818,-1.2448,-1.2436,-1.229,-1.201,-1.1721,-1.1489,-1.1233,-1.093,-1.0728,-1.0662,-1.0852,-1.1112,-1.143,-1.1666,-1.196,-1.2268,-1.2235,-1.2143,-1.2277,-1.1671,-1.1192,-1.0982,-1.0679,-1.0852,-1.1585,-1.1203,-1.0901,-1.0636,-1.0636,-1.0684,-1.0671,-1.0799,-1.098,-1.099,-1.1202,-1.1461,-1.1622,-1.1609,-1.1642,-1.1714,-1.1648,-1.1414,-1.1279,-1.088,-1.0544,-1.0373,-0.9896,-0.9448,-0.9144,-0.8658,-0.8435,-0.8725,-0.8011,-0.7128,-0.6317,-0.5738,-0.524,-0.4846,-0.4538,-0.4346,-0.4304,-0.4373,-0.4383,-0.4336,-0.4332,-0.4334,-0.4346,-0.4395,-0.4382,-0.4402,-0.4475,-0.4546,-0.4581,-0.4619,-0.4616,-0.4571,-0.46,-0.4654,-0.4589,-0.4664,-0.4643,-0.4691,-0.4762,-0.5122,-0.5409,-0.6122,-0.6542,-0.7133,-0.7727,-0.842,-0.8809,-0.9156,-0.9323,-1.2528,-1.2528,-1.2546,-1.2509,-1.2423,-1.2423,-1.2375,-1.2206,-1.2018,-1.1811,-1.1651,-1.141,-1.1331,-1.1331,-1.1331,-1.1295,-1.1249,-1.1547,-1.1757,-1.1921,-1.1628,-1.1431,-1.1281,-1.1218,-1.1094,-1.0802,-1.0561,-1.0334,-1.009,-0.9754,-0.9613,-0.9724,-0.9803,-1.015,-1.0612,-1.0902,-1.1185,-1.1386,-1.137,-1.1198,-1.0939,-1.0554,-1.025,-1.0033,-0.9777,-0.9777,-1.0038,-1.0033,-0.999,-0.9907,-0.9946,-1.0038,-1.0183,-1.0275,-1.0382,-1.0527,-1.0595,-1.0731,-1.0869,-1.0772,-1.0697,-1.0665,-1.04,-1.0207,-1.0112,-0.9682,-0.9306,-0.9055,-0.8494,-0.7978,-0.7678,-0.716,-0.7082,-0.7573,-0.6956,-0.6266,-0.5694,-0.5193,-0.4792,-0.4523,-0.4344,-0.4297,-0.4297,-0.4297,-0.4297,-0.4297,-0.4297,-0.4297,-0.4304,-0.4281,-0.434,-0.4349,-0.4381,-0.4316,-0.429,-0.4256,-0.4254,-0.4322,-0.4398,-0.4504,-0.4487,-0.4475,-0.4453,-0.4434,-0.4505,-0.4669,-0.4953,-0.529,-0.5807,-0.6284,-0.6982,-0.7639,-0.8292,-0.864,-0.8863,-1.1279,-1.1399,-1.1411,-1.1458,-1.15,-1.1458,-1.1326,-1.1173,-1.0918,-1.0688,-1.0527,-1.0325,-1.0258,-1.0298,-1.0258,-1.0258,-1.0288,-1.0129,-1.0165,-1.0463,-1.064,-1.0458,-1.0208,-1.0029,-0.9862,-0.9606,-0.942,-0.9198,-0.8932,-0.8699,-0.858,-0.8651,-0.8763,-0.9048,-0.9578,-0.9909,-1.0201,-1.0418,-1.0467,-1.0337,-1.0033,-0.9689,-0.9471,-0.9345,-0.913,-0.9043,-0.9047,-0.917,-0.9301,-0.9432,-0.9476,-0.9563,-0.9733,-0.9742,-0.9798,-0.9899,-0.9906,-0.9975,-1.0058,-0.9907,-0.9809,-0.9764,-0.9368,-0.9096,-0.8987,-0.8486,-0.7923,-0.772,-0.7181,-0.6689,-0.6451,-0.6135,-0.5992,-0.6139,-0.5908,-0.546,-0.5057,-0.4748,-0.4525,-0.4344,-0.4297,-0.4297,-0.4297,-0.4297,-0.4297,-0.4297,-0.4297,-0.421,-0.421,-0.4125,-0.4123,-0.4034,-0.3871,-0.3834,-0.3864,-0.3862,-0.3862,-0.4032,-0.4165,-0.4306,-0.4391,-0.4385,-0.4371,-0.4359,-0.4387,-0.4392,-0.4636,-0.4855,-0.5198,-0.5769,-0.6257,-0.6877,-0.7496,-0.8113,-0.838,-0.9943,-1.0298,-1.0303,-1.0411,-1.0532,-1.038,-1.0269,-1.0197,-0.9882,-0.9679,-0.9588,-0.9333,-0.9373,-0.9468,-0.9299,-0.9304,-0.9449,-0.9042,-0.8804,-0.9063,-0.9537,-0.9747,-0.9232,-0.8884,-0.865,-0.8464,-0.8369,-0.8169,-0.7897,-0.7821,-0.7672,-0.7599,-0.7774,-0.7977,-0.8476,-0.8759,-0.9173,-0.9509,-0.9559,-0.9515,-0.9428,-0.9082,-0.8823,-0.8823,-0.8652,-0.8564,-0.8564,-0.8608,-0.8828,-0.9218,-0.9262,-0.9213,-0.9305,-0.9262,-0.9266,-0.9288,-0.9262,-0.9226,-0.9172,-0.907,-0.9038,-0.8928,-0.8486,-0.8268,-0.8069,-0.728,-0.6715,-0.6667,-0.6113,-0.5644,-0.5471,-0.5329,-0.5156,-0.4839,-0.4928,-0.479,-0.4387,-0.4342,-0.4342,-0.4297,-0.4297,-0.4297,-0.4297,-0.43,-0.4255,-0.421,-0.421,-0.3987,-0.3855,-0.3765,-0.3721,-0.3542,-0.3317,-0.3226,-0.3224,-0.3179,-0.3179,-0.3413,-0.3664,-0.3933,-0.4197,-0.4283,-0.4322,-0.4308,-0.4297,-0.4297,-0.4342,-0.4567,-0.4748,-0.5146,-0.568,-0.6171,-0.6704,-0.7275,-0.7804,-0.8919,-0.9037,-0.9155,-0.9236,-0.9272,-0.9236,-0.9109,-0.8968,-0.8676,-0.8466,-0.8325,-0.8112,-0.8073,-0.8095,-0.8021,-0.8008,-0.8052,-0.7935,-0.7863,-0.7867,-0.8095,-0.8186,-0.8022,-0.7893,-0.7787,-0.7714,-0.7603,-0.745,-0.733,-0.7211,-0.7134,-0.7057,-0.7138,-0.7383,-0.7841,-0.7975,-0.8333,-0.8757,-0.8679,-0.8592,-0.8548,-0.8332,-0.816,-0.8164,-0.812,-0.8076,-0.8076,-0.808,-0.8384,-0.8955,-0.8859,-0.8863,-0.8907,-0.8815,-0.8727,-0.8679,-0.8552,-0.8476,-0.8388,-0.8138,-0.7893,-0.7651,-0.7288,-0.6902,-0.6677,-0.611,-0.5773,-0.5681,-0.5248,-0.4971,-0.4882,-0.4746,-0.4569,-0.4478,-0.4523,-0.4476,-0.4344,-0.4297,-0.4297,-0.4297,-0.4297,-0.43,-0.4255,-0.4123,-0.3989,-0.3944,-0.3719,-0.3449,-0.3317,-0.3138,-0.3004,-0.2868,-0.2688,-0.2597,-0.2551,-0.2506,-0.2551,-0.2731,-0.3054,-0.3462,-0.3819,-0.4178,-0.4216,-0.4297,-0.4297,-0.4297,-0.4297,-0.4389,-0.4567,-0.4748,-0.5057,-0.5591,-0.5947,-0.6432,-0.6918,-0.7589,-0.7713,-0.7829,-0.7944,-0.7984,-0.7904,-0.7789,-0.7653,-0.7407,-0.7242,-0.7101,-0.7029,-0.7019,-0.7096,-0.7019,-0.7057,-0.7211,-0.7176,-0.7176,-0.7249,-0.7223,-0.7261,-0.7334,-0.7292,-0.7211,-0.7099,-0.7026,-0.6914,-0.6795,-0.6679,-0.6676,-0.6679,-0.6676,-0.6846,-0.7053,-0.7247,-0.7521,-0.7872,-0.7801,-0.7757,-0.7889,-0.7672,-0.7584,-0.7588,-0.7584,-0.7588,-0.7544,-0.7496,-0.7713,-0.8153,-0.8197,-0.8153,-0.8113,-0.8065,-0.7933,-0.7841,-0.7705,-0.7536,-0.7316,-0.7051,-0.6827,-0.652,-0.6166,-0.5991,-0.5774,-0.5371,-0.5104,-0.5065,-0.475,-0.4569,-0.4525,-0.4389,-0.4297,-0.4297,-0.4297,-0.4297,-0.4297,-0.4297,-0.4297,-0.4297,-0.421,-0.4123,-0.4123,-0.381,-0.3587,-0.3451,-0.3135,-0.2868,-0.2601,-0.242,-0.2152,-0.1927,-0.1702,-0.1523,-0.1433,-0.1388,-0.1522,-0.1747,-0.233,-0.278,-0.3363,-0.3855,-0.4123,-0.421,-0.4255,-0.4297,-0.4255,-0.43,-0.4389,-0.4567,-0.4746,-0.4966,-0.5366,-0.5722,-0.621,-0.6209,-0.6447,-0.6409,-0.656,-0.6686,-0.6525,-0.6475,-0.6416,-0.6225,-0.6138,-0.6096,-0.6093,-0.6205,-0.6402,-0.6167,-0.6279,-0.6633,-0.644,-0.6518,-0.6556,-0.656,-0.6641,-0.6834,-0.6868,-0.6753,-0.6641,-0.6563,-0.6447,-0.637,-0.6296,-0.6261,-0.6222,-0.6222,-0.6265,-0.6397,-0.6536,-0.6776,-0.7088,-0.7051,-0.7092,-0.718,-0.7003,-0.6874,-0.6833,-0.6874,-0.6874,-0.683,-0.6738,-0.6823,-0.718,-0.7265,-0.7224,-0.7051,-0.7007,-0.6915,-0.6735,-0.6691,-0.6476,-0.6124,-0.6083,-0.5902,-0.5633,-0.546,-0.5282,-0.5193,-0.4882,-0.4703,-0.4703,-0.4433,-0.4344,-0.4344,-0.4297,-0.4297,-0.43,-0.43,-0.4255,-0.4255,-0.4255,-0.4253,-0.4255,-0.4034,-0.3855,-0.3678,-0.3363,-0.2959,-0.2599,-0.2285,-0.1836,-0.1569,-0.13,-0.1031,-0.0762,-0.0538,-0.0269,-0.0224,-0.0224,-0.0403,-0.0672,-0.148,-0.2108,-0.2871,-0.3363,-0.381,-0.3989,-0.4032,-0.4076,-0.421,-0.421,-0.43,-0.4389,-0.4567,-0.4699,-0.4921,-0.5233,-0.5633,-0.5315,-0.5351,-0.5354,-0.5354,-0.5392,-0.5354,-0.5354,-0.5354,-0.5273,-0.5273,-0.5273,-0.5237,-0.5315,-0.5354,-0.5276,-0.5315,-0.5467,-0.5431,-0.5431,-0.5631,-0.5789,-0.5831,-0.6025,-0.6215,-0.6412,-0.6335,-0.6338,-0.6219,-0.6057,-0.5983,-0.5906,-0.5754,-0.5808,-0.5851,-0.6036,-0.6085,-0.6378,-0.6697,-0.6482,-0.6299,-0.6293,-0.6118,-0.5944,-0.5813,-0.5944,-0.5899,-0.5813,-0.5725,-0.5586,-0.5539,-0.5941,-0.6254,-0.6257,-0.6121,-0.603,-0.5944,-0.5811,-0.568,-0.5549,-0.5369,-0.5146,-0.4971,-0.4926,-0.4746,-0.4567,-0.4523,-0.4389,-0.4389,-0.4344,-0.4297,-0.4255,-0.43,-0.4255,-0.421,-0.4078,-0.3944,-0.3991,-0.3991,-0.3944,-0.39,-0.3587,-0.327,-0.309,-0.2417,-0.2059,-0.1748,-0.1297,-0.0761,-0.0491,-0.0223,0.0,0.0221,0.0443,0.0618,0.0663,0.0621,0.0446,0.0224,-0.0493,-0.1121,-0.1883,-0.2601,-0.2913,-0.3317,-0.3765,-0.3855,-0.3898,-0.4121,-0.421,-0.43,-0.4344,-0.4433,-0.4612,-0.4835,-0.501,-0.4423,-0.4421,-0.4421,-0.4421,-0.4423,-0.4423,-0.4462,-0.4462,-0.4423,-0.4423,-0.4421,-0.4423,-0.4421,-0.446,-0.4421,-0.4499,-0.4616,-0.4774,-0.4929,-0.5087,-0.5246,-0.5321,-0.5321,-0.5553,-0.5747,-0.5906,-0.5867,-0.5789,-0.5747,-0.567,-0.5556,-0.5479,-0.5443,-0.5462,-0.554,-0.5535,-0.5667,-0.5808,-0.5638,-0.5413,-0.5275,-0.5142,-0.5013,-0.4924,-0.501,-0.501,-0.4924,-0.4746,-0.4563,-0.4472,-0.4699,-0.5102,-0.5416,-0.5411,-0.5322,-0.5235,-0.5149,-0.4971,-0.4879,-0.4743,-0.461,-0.4525,-0.4525,-0.4433,-0.4344,-0.4297,-0.4297,-0.4297,-0.4297,-0.4253,-0.4123,-0.4123,-0.4078,-0.3942,-0.3719,-0.3587,-0.3542,-0.3542,-0.354,-0.3361,-0.2869,-0.251,-0.206,-0.147,-0.0972,-0.0616,-0.026,0.0217,0.0476,0.0733,0.0908,0.1123,0.1342,0.1474,0.1521,0.1444,0.1196,0.0936,0.0538,0.0,-0.0538,-0.1255,-0.1882,-0.2419,-0.3047,-0.3406,-0.3494,-0.3807,-0.3987,-0.4078,-0.4123,-0.4168,-0.43,-0.4523,-0.4612,-0.3647,-0.3645,-0.3606,-0.3606,-0.3645,-0.3647,-0.3684,-0.3724,-0.3686,-0.3724,-0.3684,-0.3684,-0.3724,-0.3686,-0.3724,-0.38,-0.4034,-0.4307,-0.4426,-0.4465,-0.4659,-0.4735,-0.4771,-0.4771,-0.4851,-0.5246,-0.5285,-0.5285,-0.5285,-0.5243,-0.5049,-0.5051,-0.5049,-0.492,-0.4835,-0.4826,-0.4827,-0.4858,-0.4643,-0.4344,-0.4164,-0.4072,-0.4074,-0.4074,-0.4119,-0.4076,-0.3987,-0.3851,-0.3715,-0.3626,-0.3496,-0.381,-0.4212,-0.4656,-0.4746,-0.4572,-0.4572,-0.4525,-0.4433,-0.4342,-0.4255,-0.421,-0.421,-0.4166,-0.4166,-0.4121,-0.4121,-0.4121,-0.4074,-0.3942,-0.381,-0.3721,-0.3585,-0.3406,-0.3183,-0.3048,-0.2914,-0.2914,-0.2643,-0.2689,-0.206,-0.1522,-0.102,-0.044,0.0044,0.0474,0.0848,0.1133,0.1384,0.1555,0.1648,0.1826,0.2006,0.2052,0.2097,0.1929,0.1739,0.1587,0.129,0.0938,0.0581,0.0134,-0.0627,-0.1657,-0.2285,-0.2598,-0.2913,-0.3136,-0.3361,-0.3676,-0.381,-0.3855,-0.3987,-0.4212,-0.4255,-0.2982,-0.2943,-0.2784,-0.2824,-0.2943,-0.2981,-0.3061,-0.3178,-0.318,-0.3217,-0.3217,-0.3219,-0.318,-0.3178,-0.3217,-0.3256,-0.3335,-0.3565,-0.3682,-0.3722,-0.3878,-0.3997,-0.3917,-0.3798,-0.3759,-0.3954,-0.4268,-0.4543,-0.454,-0.4382,-0.4309,-0.4233,-0.4155,-0.4068,-0.4042,-0.3993,-0.3996,-0.3978,-0.3732,-0.3449,-0.3226,-0.3181,-0.3179,-0.3226,-0.3315,-0.3183,-0.296,-0.2959,-0.2868,-0.2557,-0.2602,-0.2738,-0.3005,-0.3496,-0.381,-0.4034,-0.4036,-0.4078,-0.4166,-0.4034,-0.3991,-0.3946,-0.381,-0.3719,-0.3719,-0.3721,-0.3719,-0.363,-0.3494,-0.336,-0.3315,-0.3136,-0.2957,-0.2734,-0.242,-0.2153,-0.1749,-0.1479,-0.1387,-0.1562,-0.1027,-0.0445,0.0044,0.0477,0.0897,0.1226,0.146,0.1698,0.1904,0.2077,0.2174,0.2351,0.2573,0.2574,0.2575,0.2366,0.2169,0.2121,0.1884,0.1681,0.1421,0.1298,0.0628,-0.0314,-0.1121,-0.1614,-0.1973,-0.233,-0.2689,-0.2959,-0.3183,-0.3451,-0.3674,-0.3853,-0.4034,-0.212,-0.2042,-0.1923,-0.1923,-0.2042,-0.2159,-0.2238,-0.2316,-0.2435,-0.2474,-0.2474,-0.2474,-0.2474,-0.2474,-0.2474,-0.2474,-0.2552,-0.2705,-0.2823,-0.2899,-0.3018,-0.3057,-0.2979,-0.2821,-0.2663,-0.2624,-0.2898,-0.3405,-0.3641,-0.3526,-0.345,-0.3411,-0.3335,-0.3256,-0.325,-0.3202,-0.3184,-0.3123,-0.2924,-0.2645,-0.2377,-0.2332,-0.2376,-0.2511,-0.2466,-0.2332,-0.2243,-0.2063,-0.2017,-0.1884,-0.1885,-0.193,-0.2064,-0.2287,-0.2781,-0.3317,-0.3496,-0.3631,-0.3853,-0.3676,-0.354,-0.3496,-0.3361,-0.327,-0.3226,-0.3226,-0.3136,-0.3047,-0.2957,-0.2732,-0.2465,-0.2286,-0.2017,-0.1793,-0.148,-0.1121,-0.0718,-0.0269,-0.0267,-0.0354,0.0088,0.0525,0.0957,0.1369,0.1719,0.1944,0.2128,0.2245,0.2366,0.2411,0.2459,0.2496,0.2624,0.2635,0.2639,0.2523,0.2417,0.2418,0.2375,0.2181,0.2074,0.1913,0.1745,0.1166,0.0404,-0.0448,-0.0942,-0.1255,-0.1748,-0.2241,-0.2466,-0.2735,-0.3183,-0.3496,-0.363,-0.1297,-0.114,-0.1061,-0.1061,-0.11,-0.1258,-0.1375,-0.1493,-0.1651,-0.1768,-0.1769,-0.1769,-0.1808,-0.1769,-0.1807,-0.1808,-0.1807,-0.1962,-0.204,-0.2079,-0.2196,-0.2157,-0.2079,-0.1922,-0.1803,-0.1647,-0.1568,-0.1919,-0.2663,-0.2668,-0.263,-0.2669,-0.2669,-0.2572,-0.2543,-0.2428,-0.2366,-0.2289,-0.2162,-0.1919,-0.1658,-0.157,-0.1615,-0.184,-0.166,-0.1525,-0.1346,-0.1301,-0.1166,-0.1121,-0.1121,-0.1122,-0.1121,-0.1122,-0.1614,-0.2465,-0.2778,-0.3048,-0.3183,-0.3048,-0.2825,-0.2734,-0.2643,-0.2553,-0.2509,-0.2419,-0.2373,-0.224,-0.2061,-0.1837,-0.1434,-0.1166,-0.0897,-0.0628,-0.0314,0.0045,0.0358,0.0713,0.1014,0.1049,0.1254,0.1411,0.1652,0.1891,0.218,0.2146,0.2324,0.2358,0.2435,0.2466,0.2505,0.2496,0.2538,0.2556,0.2568,0.2582,0.253,0.2536,0.2588,0.2499,0.2492,0.248,0.2272,0.2019,0.157,0.0762,0.0314,-0.0224,-0.0717,-0.1165,-0.157,-0.2018,-0.2466,-0.2869,-0.3093,-0.0707,-0.0667,-0.0314,-0.0236,-0.0431,-0.047,-0.0667,-0.0942,-0.1021,-0.114,-0.1297,-0.1336,-0.1336,-0.1336,-0.1336,-0.1336,-0.1375,-0.1335,-0.1335,-0.1335,-0.1413,-0.1413,-0.1375,-0.1139,-0.1021,-0.0864,-0.0746,-0.1255,-0.1725,-0.1766,-0.1923,-0.2079,-0.2003,-0.1972,-0.1835,-0.1633,-0.1445,-0.1395,-0.1125,-0.0927,-0.085,-0.0807,-0.0762,-0.0718,-0.0718,-0.0628,-0.0359,-0.0359,-0.0359,-0.0179,-0.0179,-0.0179,-0.0179,-0.0179,-0.0359,-0.0852,-0.1435,-0.2063,-0.224,-0.2107,-0.1884,-0.1704,-0.148,-0.1345,-0.13,-0.1345,-0.13,-0.1256,-0.0941,-0.0583,-0.0314,0.0,0.0359,0.0583,0.0762,0.1121,0.1433,0.1381,0.1719,0.1896,0.1917,0.1958,0.2091,0.2322,0.2544,0.2505,0.2476,0.2512,0.251,0.251,0.251,0.251,0.251,0.2525,0.2531,0.2541,0.2563,0.2609,0.2673,0.2728,0.2681,0.2679,0.2769,0.2515,0.2155,0.184,0.1346,0.0807,0.0359,-0.009,-0.0493,-0.1121,-0.1794,-0.2108,-0.2377,0.0339,0.0038,0.0226,0.0226,0.0151,0.0076,-0.0038,-0.0193,-0.0351,-0.0432,-0.055,-0.055,-0.055,-0.0589,-0.055,-0.055,-0.055,-0.0589,-0.055,-0.0589,-0.0589,-0.0511,-0.0393,-0.0275,-0.0196,-0.0118,0.0,-0.0078,-0.0589,-0.0942,-0.1178,-0.1257,-0.122,-0.107,-0.1042,-0.0821,-0.0671,-0.0558,-0.0394,-0.0311,-0.0268,-0.0135,-0.0045,0.009,0.0224,0.0404,0.0538,0.0673,0.0628,0.0762,0.0807,0.0762,0.0807,0.0762,0.0718,0.0583,0.0269,-0.0403,-0.1121,-0.1076,-0.0897,-0.0628,-0.0404,-0.0224,-0.0135,-0.0179,-0.009,0.0135,0.0314,0.0538,0.0762,0.1031,0.1256,0.148,0.1615,0.184,0.2061,0.2139,0.2249,0.2409,0.2515,0.2422,0.2335,0.2438,0.255,0.2493,0.2473,0.2511,0.251,0.251,0.251,0.251,0.251,0.2512,0.2515,0.252,0.2525,0.2571,0.2657,0.2706,0.274,0.2782,0.2888,0.292,0.2649,0.2379,0.2155,0.175,0.1166,0.0852,0.0673,0.0,-0.0673,-0.1031,-0.139,0.1322,0.093,0.0833,0.0801,0.0766,0.067,0.06,0.0564,0.042,0.0308,0.0193,0.0155,0.0156,0.0157,0.0118,0.0079,0.0118,0.0157,0.0157,0.0157,0.0157,0.0196,0.0236,0.0354,0.0393,0.0629,0.0471,0.0432,0.0315,0.0118,-0.0119,-0.0317,-0.0398,-0.0241,-0.0082,0.0042,0.017,0.0346,0.0354,0.0403,0.0404,0.0538,0.0673,0.0852,0.1076,0.1301,0.1391,0.148,0.157,0.157,0.157,0.1525,0.157,0.1525,0.1525,0.148,0.1346,0.1031,0.0359,0.0179,0.0224,0.0404,0.0583,0.0807,0.0897,0.0852,0.0807,0.1122,0.1301,0.1436,0.166,0.184,0.1974,0.2109,0.2244,0.2424,0.2555,0.2491,0.2498,0.2516,0.2579,0.2564,0.2479,0.2487,0.2514,0.2512,0.251,0.251,0.251,0.251,0.251,0.251,0.251,0.251,0.251,0.251,0.251,0.2542,0.2628,0.2687,0.2723,0.2831,0.2903,0.292,0.292,0.2785,0.2515,0.2244,0.193,0.166,0.1391,0.1076,0.0583,0.0135,-0.0448,0.2132,0.2073,0.175,0.1636,0.1601,0.1606,0.1462,0.1317,0.132,0.1067,0.0778,0.0639,0.0655,0.0586,0.0628,0.0629,0.0589,0.055,0.0629,0.0629,0.0589,0.0668,0.0707,0.0707,0.0668,0.0707,0.0825,0.0904,0.0948,0.1242,0.0807,0.0406,0.0528,0.0576,0.0752,0.1016,0.1114,0.1266,0.1289,0.1255,0.1256,0.1346,0.1436,0.1615,0.175,0.1885,0.2109,0.2155,0.2155,0.211,0.211,0.211,0.211,0.211,0.211,0.211,0.211,0.193,0.166,0.1301,0.1391,0.157,0.166,0.166,0.1705,0.1705,0.175,0.1795,0.193,0.2155,0.2289,0.2424,0.247,0.256,0.2604,0.2649,0.2727,0.2744,0.2698,0.2706,0.2658,0.2628,0.2593,0.2572,0.2523,0.2519,0.251,0.251,0.251,0.251,0.251,0.251,0.251,0.251,0.251,0.2511,0.2516,0.2557,0.2629,0.2674,0.271,0.2785,0.2918,0.292,0.292,0.292,0.2875,0.256,0.2334,0.2289,0.2109,0.175,0.1256,0.0718,0.0224,0.2824,0.2797,0.265,0.2395,0.2018,0.2016,0.1958,0.1893,0.188,0.1784,0.1532,0.1533,0.1445,0.1346,0.1369,0.1415,0.1415,0.1415,0.1415,0.1415,0.1415,0.1415,0.1415,0.1375,0.1415,0.1415,0.1493,0.1625,0.1807,0.2153,0.2406,0.2174,0.1796,0.1686,0.1878,0.2036,0.2191,0.2205,0.214,0.2064,0.2064,0.2064,0.211,0.22,0.2424,0.2515,0.2604,0.2604,0.2649,0.2604,0.2604,0.256,0.256,0.256,0.2604,0.2604,0.2604,0.2604,0.2515,0.22,0.2019,0.2155,0.2244,0.2289,0.2334,0.2334,0.2334,0.2424,0.2515,0.2604,0.2694,0.2739,0.2739,0.2875,0.292,0.292,0.2908,0.2881,0.2801,0.2738,0.2722,0.2706,0.2669,0.2632,0.2576,0.2529,0.2518,0.251,0.251,0.251,0.251,0.251,0.251,0.2519,0.2522,0.2523,0.2526,0.2582,0.264,0.2684,0.2732,0.2803,0.2918,0.2918,0.292,0.292,0.2875,0.2785,0.2694,0.2604,0.2515,0.2379,0.184,0.1301,0.0897,0.336,0.3393,0.3393,0.3025,0.253,0.2508,0.2493,0.2501,0.2501,0.2432,0.2273,0.2239,0.2167,0.2085,0.2038,0.2032,0.2037,0.2042,0.2042,0.2042,0.2043,0.2082,0.2082,0.2086,0.209,0.2214,0.2382,0.2487,0.2748,0.3177,0.3411,0.3468,0.332,0.3168,0.2889,0.3019,0.3136,0.3047,0.296,0.2827,0.2827,0.2736,0.2691,0.2693,0.2784,0.283,0.283,0.283,0.283,0.283,0.2875,0.2875,0.2875,0.292,0.292,0.292,0.292,0.292,0.2785,0.2649,0.247,0.256,0.2604,0.2694,0.2785,0.2694,0.2694,0.2785,0.2875,0.292,0.292,0.2875,0.2875,0.292,0.292,0.292,0.292,0.2902,0.2822,0.2779,0.2767,0.2747,0.2748,0.2705,0.2668,0.2607,0.2525,0.2515,0.251,0.251,0.251,0.251,0.251,0.2523,0.2537,0.2552,0.2614,0.2632,0.2685,0.2726,0.2778,0.2839,0.2917,0.292,0.292,0.292,0.2875,0.283,0.2875,0.2875,0.2739,0.2649,0.247,0.1974,0.1705,0.3792,0.3792,0.3792,0.3558,0.3194,0.3161,0.3169,0.3143,0.3149,0.3056,0.2907,0.2678,0.2566,0.254,0.2495,0.2534,0.2571,0.2545,0.2589,0.2589,0.263,0.255,0.2558,0.2606,0.2754,0.2949,0.3086,0.3325,0.3697,0.4037,0.4314,0.4537,0.4489,0.4347,0.3888,0.3671,0.3587,0.3587,0.3542,0.3497,0.3408,0.3272,0.3138,0.3048,0.3006,0.2963,0.292,0.2963,0.2963,0.2963,0.3008,0.3008,0.3008,0.3008,0.3008,0.3008,0.2963,0.2963,0.292,0.2875,0.2873,0.283,0.2785,0.283,0.2875,0.2875,0.2875,0.292,0.292,0.292,0.292,0.292,0.292,0.292,0.292,0.292,0.292,0.2918,0.2839,0.2822,0.2794,0.2766,0.2769,0.2731,0.2748,0.2696,0.259,0.2567,0.2653,0.2663,0.2755,0.2758,0.2763,0.2773,0.2795,0.2718,0.2706,0.2723,0.277,0.2806,0.2842,0.2843,0.2867,0.2917,0.292,0.292,0.292,0.2875,0.292,0.292,0.292,0.283,0.2739,0.2649,0.2334,0.4131,0.4131,0.4131,0.4064,0.3897,0.3694,0.3591,0.3594,0.3596,0.348,0.3349,0.3222,0.3133,0.3107,0.3172,0.3194,0.3222,0.3361,0.337,0.3377,0.3385,0.3412,0.3392,0.342,0.3535,0.3712,0.3863,0.403,0.4338,0.4685,0.4952,0.5134,0.5164,0.4964,0.4567,0.4302,0.4257,0.4076,0.39,0.3767,0.3765,0.3585,0.3406,0.327,0.3184,0.3051,0.2963,0.3094,0.3139,0.3186,0.3275,0.3365,0.3365,0.3365,0.3365,0.3365,0.3363,0.3365,0.3366,0.3365,0.3186,0.3053,0.2964,0.2964,0.292,0.292,0.292,0.292,0.2964,0.2964,0.292,0.292,0.292,0.292,0.292,0.292,0.292,0.292,0.2906,0.2903,0.2841,0.3008,0.3021,0.3277,0.3325,0.3347,0.3283,0.3159,0.3197,0.3167,0.3179,0.318,0.3182,0.3142,0.3108,0.3154,0.3104,0.3126,0.3029,0.2964,0.2958,0.2943,0.291,0.2963,0.292,0.292,0.292,0.292,0.292,0.292,0.292,0.292,0.283,0.283,0.2739,0.4467,0.4467,0.4467,0.4464,0.4431,0.4128,0.3961,0.3995,0.3961,0.3897,0.378,0.3769,0.3717,0.369,0.3829,0.3884,0.391,0.4277,0.4299,0.4297,0.4257,0.4261,0.4297,0.4237,0.4288,0.4429,0.4594,0.4765,0.5,0.5218,0.5388,0.544,0.5508,0.5324,0.5057,0.4879,0.4703,0.452,0.4387,0.4346,0.4257,0.4032,0.3764,0.3628,0.3496,0.3318,0.3318,0.3361,0.3492,0.363,0.3719,0.3855,0.3855,0.3855,0.3853,0.3853,0.3853,0.3855,0.3855,0.3855,0.3721,0.3542,0.3275,0.3142,0.3142,0.3186,0.3187,0.3187,0.3142,0.3142,0.3142,0.3142,0.3142,0.3142,0.3142,0.3142,0.3187,0.3187,0.3187,0.3141,0.3186,0.3318,0.3494,0.3772,0.4025,0.4053,0.4074,0.3939,0.3844,0.38,0.3802,0.384,0.3798,0.3834,0.38,0.3735,0.3653,0.3543,0.3475,0.3395,0.3236,0.3266,0.3138,0.3008,0.2963,0.2918,0.292,0.292,0.292,0.292,0.292,0.292,0.292,0.292,0.292,0.4827,0.4827,0.4827,0.4831,0.4764,0.4498,0.4367,0.43,0.43,0.4306,0.4314,0.4157,0.4162,0.4282,0.4517,0.4627,0.4667,0.523,0.5303,0.5248,0.5218,0.5217,0.515,0.5003,0.5151,0.5213,0.5302,0.5426,0.5675,0.5744,0.5755,0.5772,0.5863,0.5816,0.5633,0.55,0.5233,0.5097,0.4964,0.4921,0.4877,0.4565,0.4387,0.4208,0.3985,0.3896,0.3896,0.3983,0.4164,0.43,0.4389,0.4389,0.4344,0.4344,0.4342,0.4387,0.4387,0.4431,0.4433,0.4478,0.4433,0.43,0.4032,0.381,0.3631,0.3631,0.3631,0.3631,0.3631,0.3631,0.3631,0.3631,0.3633,0.3633,0.3631,0.3631,0.3631,0.3631,0.3631,0.3631,0.3721,0.3853,0.4164,0.445,0.4919,0.5046,0.5102,0.5234,0.5042,0.4621,0.4621,0.4699,0.4657,0.4576,0.4554,0.4502,0.4404,0.4337,0.4174,0.4098,0.3848,0.3583,0.3451,0.3274,0.3006,0.2918,0.292,0.292,0.292,0.292,0.292,0.292,0.292,0.292,0.292,0.5229,0.5229,0.5226,0.5229,0.5229,0.513,0.4933,0.4697,0.4631,0.4739,0.4865,0.4831,0.483,0.5015,0.5413,0.5538,0.5762,0.6078,0.628,0.6293,0.6289,0.6363,0.6314,0.6141,0.6177,0.6153,0.6157,0.6072,0.6154,0.6213,0.6213,0.6213,0.6393,0.6435,0.6479,0.6479,0.6074,0.5764,0.5675,0.5586,0.5497,0.5233,0.5055,0.4832,0.4699,0.4607,0.4605,0.483,0.501,0.5102,0.5233,0.5277,0.5322,0.5322,0.5275,0.5275,0.5319,0.5319,0.5322,0.5277,0.5277,0.5277,0.5144,0.4654,0.4342,0.4166,0.4166,0.4166,0.4208,0.4208,0.421,0.421,0.421,0.421,0.421,0.421,0.421,0.421,0.421,0.4344,0.4433,0.4743,0.5008,0.5447,0.5874,0.6024,0.6189,0.6358,0.6231,0.5794,0.5602,0.5637,0.5561,0.5529,0.5436,0.5347,0.5237,0.509,0.4964,0.4788,0.4518,0.4251,0.3896,0.354,0.3184,0.3008,0.292,0.292,0.292,0.292,0.292,0.292,0.292,0.292,0.292,0.5921,0.5918,0.598,0.5984,0.5888,0.5826,0.5685,0.55,0.5245,0.5195,0.53,0.5396,0.547,0.563,0.6152,0.6428,0.638,0.7141,0.7456,0.7328,0.737,0.7364,0.7379,0.7177,0.7007,0.6987,0.683,0.664,0.6694,0.6694,0.6697,0.6874,0.7054,0.7187,0.7319,0.7408,0.7312,0.6868,0.6561,0.634,0.6166,0.5991,0.5766,0.5675,0.5586,0.5453,0.5536,0.5852,0.5944,0.6035,0.621,0.621,0.6121,0.6033,0.5944,0.5941,0.5941,0.5941,0.5944,0.6077,0.6121,0.6166,0.6207,0.5985,0.5542,0.5233,0.5053,0.4919,0.4875,0.4875,0.4877,0.4877,0.4877,0.4875,0.4875,0.4875,0.4875,0.4875,0.4966,0.5102,0.5366,0.5719,0.6074,0.652,0.6833,0.7007,0.7268,0.7555,0.7355,0.6896,0.6752,0.6752,0.6637,0.648,0.6384,0.621,0.6121,0.5985,0.5808,0.5586,0.5275,0.4786,0.4385,0.3851,0.3318,0.3186,0.3096,0.292,0.292,0.292,0.292,0.292,0.292,0.292,0.292,0.6773,0.6806,0.6924,0.6868,0.6773,0.6585,0.6614,0.6706,0.6134,0.5776,0.5825,0.594,0.6089,0.6382,0.7006,0.7278,0.7537,0.8197,0.8537,0.8317,0.8384,0.8447,0.8281,0.7925,0.7863,0.7614,0.7448,0.7356,0.7272,0.7316,0.7489,0.7577,0.7665,0.7845,0.8113,0.8245,0.8241,0.8197,0.7713,0.736,0.7139,0.6874,0.6653,0.6782,0.6609,0.6435,0.6779,0.6956,0.7044,0.718,0.7183,0.7143,0.6922,0.6786,0.6653,0.6609,0.6653,0.6697,0.6741,0.6874,0.6966,0.7054,0.7095,0.7136,0.6827,0.6163,0.5897,0.5808,0.5808,0.5808,0.5808,0.5808,0.5808,0.5808,0.5808,0.5808,0.5808,0.5897,0.6118,0.6254,0.6517,0.6871,0.7088,0.7489,0.7672,0.7937,0.8201,0.8504,0.8372,0.7929,0.7753,0.7713,0.7448,0.7268,0.7183,0.7051,0.6969,0.6833,0.6653,0.6432,0.6121,0.5497,0.4786,0.4295,0.3853,0.3494,0.3317,0.3184,0.3008,0.2962,0.2963,0.292,0.292,0.292,0.292,0.7531,0.7689,0.7722,0.7624,0.7466,0.74,0.7456,0.7548,0.7521,0.7269,0.6961,0.6984,0.7113,0.7433,0.8018,0.8341,0.8676,0.9139,0.9513,0.9506,0.9467,0.9423,0.9423,0.8986,0.8859,0.8727,0.8504,0.8193,0.8197,0.8197,0.8237,0.8328,0.8416,0.8596,0.8775,0.8907,0.9034,0.9078,0.8859,0.846,0.8193,0.8021,0.7804,0.7845,0.7713,0.7628,0.7885,0.8061,0.8149,0.8237,0.8237,0.8109,0.7893,0.7801,0.7672,0.7588,0.7496,0.7536,0.7625,0.7713,0.7848,0.8021,0.8153,0.8193,0.7929,0.718,0.6782,0.6782,0.6741,0.6782,0.6782,0.6782,0.6782,0.6782,0.6782,0.6782,0.6782,0.7003,0.7224,0.7445,0.7713,0.7929,0.8105,0.8328,0.8556,0.8736,0.8907,0.9126,0.9082,0.8811,0.846,0.8332,0.8109,0.7933,0.7893,0.776,0.7632,0.7588,0.7408,0.7187,0.6922,0.6166,0.5408,0.4875,0.4429,0.4117,0.3762,0.3361,0.3227,0.3184,0.3005,0.2963,0.292,0.292,0.292,0.8247,0.8344,0.8344,0.8317,0.8187,0.809,0.8202,0.8418,0.8559,0.8533,0.8389,0.8127,0.815,0.854,0.907,0.9408,0.9663,1.018,1.026,1.0294,1.0337,1.0255,1.0125,0.9907,0.9777,0.9602,0.9379,0.9161,0.9074,0.9034,0.9034,0.9078,0.917,0.9257,0.9345,0.9519,0.9607,0.9607,0.9607,0.9428,0.9117,0.8815,0.8644,0.8644,0.8596,0.86,0.8727,0.8859,0.8859,0.8859,0.8771,0.864,0.8464,0.8372,0.8288,0.8201,0.8201,0.8288,0.8372,0.8464,0.8596,0.8727,0.8859,0.8815,0.8815,0.8197,0.7973,0.7929,0.7797,0.7797,0.7753,0.7753,0.7753,0.7753,0.7797,0.7797,0.7845,0.7977,0.8113,0.8245,0.8464,0.8684,0.8815,0.8947,0.917,0.9213,0.9476,0.9563,0.9563,0.9519,0.9213,0.8947,0.8684,0.8508,0.8424,0.8292,0.8116,0.8116,0.8032,0.7716,0.7272,0.6656,0.6035,0.563,0.5186,0.4788,0.4387,0.3985,0.354,0.3452,0.3229,0.3006,0.2963,0.292,0.292,0.8861,0.8867,0.8899,0.8861,0.8835,0.8673,0.8842,0.9222,0.9281,0.9511,0.9745,0.9216,0.926,0.9542,0.9958,1.0269,1.0616,1.0958,1.1009,1.0906,1.0857,1.0819,1.0689,1.0516,1.0342,1.0255,1.0077,0.9903,0.9777,0.9733,0.9733,0.9733,0.9733,0.9777,0.9951,0.9994,0.9951,0.9907,0.9907,0.9951,0.9689,0.9432,0.9301,0.9213,0.9213,0.917,0.9301,0.9388,0.9388,0.9345,0.9213,0.9082,0.8995,0.8903,0.8767,0.8723,0.8684,0.8727,0.8815,0.8947,0.8995,0.9126,0.9262,0.9345,0.9345,0.9253,0.903,0.8899,0.8767,0.8636,0.8636,0.8636,0.8636,0.8636,0.8636,0.8679,0.8771,0.8863,0.8907,0.8995,0.917,0.9345,0.9432,0.9563,0.965,0.9689,0.9777,0.9907,0.9951,0.982,0.9607,0.9388,0.917,0.9038,0.8867,0.8692,0.8472,0.834,0.8252,0.7984,0.7669,0.7231,0.6833,0.652,0.6077,0.5589,0.5146,0.4699,0.43,0.3853,0.3452,0.3229,0.3006,0.2963,0.292,0.928,0.935,0.935,0.9285,0.9177,0.9145,0.9341,0.9626,0.9677,0.9948,1.0219,1.0304,1.0275,1.0361,1.065,1.0988,1.1383,1.1636,1.1628,1.1521,1.1429,1.1305,1.1176,1.0997,1.0776,1.0689,1.0641,1.0554,1.0467,1.0467,1.0467,1.0467,1.0207,1.0164,1.0164,1.0164,1.0081,1.0081,1.0081,1.0125,1.0077,0.9907,0.9864,0.9825,0.9825,0.9825,0.9864,0.9864,0.9864,0.9868,0.9825,0.965,0.9559,0.9471,0.9384,0.9297,0.9257,0.9297,0.9384,0.9384,0.9471,0.9602,0.9733,0.9777,0.9777,0.9777,0.9641,0.9598,0.9428,0.9213,0.917,0.917,0.917,0.917,0.917,0.9253,0.9345,0.9388,0.9432,0.9559,0.9689,0.9777,0.9777,0.9864,0.9864,0.9907,0.9907,0.9994,0.9994,0.9994,0.9999,0.9781,0.9607,0.9257,0.8951,0.8955,0.878,0.8608,0.8476,0.8296,0.8072,0.7893,0.754,0.7228,0.6877,0.6438,0.5991,0.55,0.4968,0.448,0.3855,0.3497,0.3274,0.3099,0.3058]},{"header":{"parameterUnit":"m.s-1","parameterCategory":1,"la1":31.0,"la2":29.5877,"lo1":-88.7671,"lo2":-86.6584,"dy":0.0162,"dx":0.0185,"nx":115,"ny":88,"refTime":"2023-09-12T12:00:00:Z","depth":0,"parameterNumber":3,"parameterNumberName":"V-component_of_WINDS"},"data":[0.0,0.0,0.0,0.0,0.0,0.0,0.0,0.0,0.0,0.0,0.0,0.0,0.0,0.0,0.0,0.0,0.0,0.0,0.0,0.0,0.0,0.0,0.0,0.0,0.0,0.0,0.0,0.0,0.0,0.0,0.0,0.0,0.0,0.0,0.0,0.0,0.0,0.0,0.0,0.0,0.0,0.0,0.0,0.0,0.0,0.0,0.0,0.0,0.0,0.0,0.0,0.0,0.0,0.0,0.0,0.0,0.0,0.0,0.0,0.0,0.0,0.0,0.0,0.0,0.0,0.0,0.0,0.0,0.0,0.0,0.0,0.0,0.0,0.0,0.0,0.0,0.0,0.0,0.0,0.0,0.0,0.0,0.0,0.0,0.0,0.0,0.0,0.0,0.0,0.0,0.0,0.0,0.0,0.0,0.0,0.0,0.0,0.0,0.0,0.0,0.0,0.0,0.0,0.0,0.0,0.0,0.0,0.0,0.0,0.0,0.0,0.0,0.0,0.0,0.0,0.0,0.0,0.0,0.0,0.0,0.0,0.0,0.0,0.0,0.0,0.0,0.0,0.0,0.0,0.0,0.0,0.0,0.0,0.0,0.0,0.0,0.0,0.0,0.0,0.0,0.0,0.0,0.0,0.0,0.0,0.0,0.0,0.0,0.0,0.0,0.0,0.0,0.0,0.0,0.0,0.0,0.0,0.0,0.0,0.0,0.0,0.0,0.0,0.0,0.0,0.0,0.0,0.0,0.0,0.0,0.0,0.0,0.0,0.0,0.0,0.0,0.0,0.0,0.0,0.0,0.0,0.0,0.0,0.0,0.0,0.0,0.0,0.0,0.0,0.0,0.0,0.0,0.0,0.0,0.0,0.0,0.0,0.0,0.0,0.0,0.0,0.0,0.0,0.0,0.0,0.0,0.0,0.0,0.0,0.0,0.0,0.0,0.0,0.0,0.0,0.0,0.0,0.0,0.0,0.0,0.0,0.0,0.0,0.0,0.0,0.0,0.0,0.0,0.0,0.0,0.0,0.0,0.0,0.0,0.0,0.0,0.0,0.0,0.0,0.0,0.0,0.0,0.0,0.0,0.0,0.0,0.0,0.0,0.0,0.0,0.0,0.0,0.0,0.0,0.0,0.0,0.0,0.0,0.0,0.0,0.0,0.0,0.0,0.0,0.0,0.0,0.0,0.0,0.0,0.0,0.0,0.0,0.0,0.0,0.0,0.0,0.0,0.0,0.0,0.0,0.0,0.0,0.0,0.0,0.0,0.0,0.0,0.0,0.0,0.0,0.0,0.0,0.0,0.0,0.0,0.0,0.0,0.0,0.0,0.0,0.0,0.0,0.0,0.0,0.0,0.0,0.0,0.0,0.0,0.0,0.0,0.0,0.0,0.0,0.0,0.0,0.0,0.0,0.0,0.0,0.0,0.0,0.0,0.0,0.0,0.0,0.0,0.0,0.0,0.0,0.0,0.0,0.0,0.0,0.0,0.0,0.0,0.0,0.0,0.0,0.0,0.0,0.0,0.0,0.0,0.0,0.0,0.0,0.0,0.0,0.0,0.0,0.0,0.0,0.0,0.0,0.0,0.0,0.0,0.0,0.0,0.0,0.0,0.0,0.0,0.0,0.0,0.0,0.0,0.0,0.0,0.0,0.0,0.0,0.0,0.0,0.0,0.0,0.0,0.0,0.0,0.0,0.0,0.0,0.0,0.0,0.0,0.0,0.0,0.0,0.0,0.0,0.0,0.0,0.0,0.0,0.0,0.0,0.0,0.0,0.0,0.0,0.0,0.0,0.0,0.0,0.0,0.0,0.0,0.0,0.0,0.0,0.0,0.0,0.0,0.0,0.0,0.0,0.0,0.0,0.0,0.0,0.0,0.0,0.0,0.0,0.0,0.0,0.0,0.0,0.0,0.0,0.0,0.0,0.0,0.0,0.0,0.0,0.0,0.0,0.0,0.0,0.0,0.0,0.0,0.0,0.0,0.0,0.0,0.0,0.0,0.0,0.0,0.0,0.0,0.0,0.0,0.0,0.0,0.0,0.0,0.0,0.0,0.0,0.0,0.0,0.0,0.0,0.0,0.0,0.0,0.0,0.0,0.0,0.0,0.0,0.0,0.0,0.0,0.0,0.0,0.0,0.0,0.0,0.0,0.0,0.0,0.0,0.0,0.0,0.0,0.0,0.0,0.0,0.0,0.0,0.0,0.0,0.0,0.0,0.0,0.0,0.0,0.0,0.0,0.0,0.0,0.0,0.0,0.0,0.0,0.0,0.0,0.0,0.0,0.0,0.0,0.0,0.0,0.0,0.0,0.0,0.0,0.0,0.0,0.0,0.0,0.0,0.0,0.0,0.0,0.0,0.0,0.0,0.0,0.0,0.0,0.0,0.0,0.0,0.0,0.0,0.0,0.0,0.0,0.0,0.0,0.0,0.0,0.0,0.0,0.0,0.0,0.0,0.0,0.0,0.0,0.0,0.0,0.0,0.0,0.0,0.0,0.0,0.0,0.0,0.0,0.0,0.0,0.0,0.0,0.0,0.0,0.0,0.0,0.0,0.0,0.0,0.0,0.0,0.0,0.0,0.0,0.0,0.0,0.0,0.0,0.0,0.0,0.0,0.0,0.0,0.0,0.0,0.0,0.0,0.0,0.0,0.0,0.0,0.0,0.0,0.0,0.0,0.0,0.0,0.0,0.0,0.0,0.0,0.0,0.0,0.0,0.0,0.0,0.0,0.0,0.0,0.0,0.0,0.0,0.0,0.0,0.0,0.0,0.0,0.0,0.0,0.0,0.0,0.0,0.0,0.0,0.0,0.0,0.0,0.0,0.0,0.0,0.0,0.0,0.0,0.0,0.0,0.0,0.0,0.0,0.0,0.0,0.0,0.0,0.0,0.0,0.0,0.0,0.0,0.0,0.0,0.0,0.0,0.0,0.0,0.0,0.0,0.0,0.0,0.0,0.0,0.0,0.0,0.0,0.0,0.0,0.0,0.0,0.0,0.0,0.0,0.0,0.0,0.0,0.0,0.0,0.0,0.0,0.0,0.0,0.0,0.0,0.0,0.0,0.0,0.0,0.0,0.0,0.0,0.0,0.0,0.0,0.0,0.0,0.0,0.0,0.0,0.0,0.0,0.0,0.0,0.0,0.0,0.0,0.0,0.0,0.0,0.0,0.0,0.0,0.0,0.0,0.0,0.0,0.0,0.0,0.0,0.0,0.0,0.0,0.0,0.0,0.0,0.0,0.0,0.0,0.0,0.0,0.0,0.0,0.0,0.0,0.0,0.0,0.0,0.0,0.0,0.0,0.0,0.0,0.0,0.0,0.0,0.0,0.0,0.0,0.0,0.0,0.0,0.0,0.0,0.0,0.0,0.0,0.0,0.0,0.0,0.0,0.0,0.0,0.0,0.0,0.0,0.0,0.0,0.0,0.0,0.0,0.0,0.0,0.0,0.0,0.0,0.0,0.0,0.0,0.0,0.0,0.0,0.0,0.0,0.0,0.0,0.0,0.0,0.0,0.0,0.0,0.0,0.0,0.0,0.0,0.0,0.0,0.0,0.0,0.0,0.0,0.0,0.0,0.0,0.0,0.0,0.0,0.0,0.0,0.0,0.0,0.0,0.0,0.0,0.0,0.0,0.0,0.0,0.0,0.0,0.0,0.0,0.0,0.0,0.0,0.0,0.0,0.0,0.0,0.0,0.0,0.0,0.0,0.0,0.0,0.0,0.0,0.0,0.0,0.0,0.0,0.0,0.0,0.0,0.0,0.0,0.0,0.0,0.0,0.0,0.0,0.0,0.0,0.0,0.0,0.0,0.0,0.0,0.0,0.0,0.0,0.0,0.0,0.0,0.0,0.0,0.0,0.0,0.0,0.0,0.0,0.0,0.0,0.0,0.0,0.0,0.0,0.0,0.0,0.0,0.0,0.0,0.0,0.0,0.0,0.0,0.0,0.0,0.0,0.0,0.0,0.0,0.0,0.0,0.0,0.0,0.0,0.0,0.0,0.0,0.0,0.0,0.0,0.0,0.0,0.0,0.0,0.0,0.0,0.0,0.0,0.0,0.0,0.0,0.0,0.0,0.0,0.0,0.0,0.0,0.0,0.0,0.0,0.0,0.0,0.0,0.0,0.0,0.0,0.0,0.0,0.0,0.0,0.0,0.0,0.0,0.0,0.0,0.0,0.0,0.0,0.0,0.0,0.0,0.0,0.0,0.0,0.0,0.0,0.0,0.0,0.0,0.0,0.0,0.0,0.0,0.0,0.0,0.0,0.0,0.0,0.0,3.7156,0.0,0.0,0.0,0.0,0.0,0.0,0.0,0.0,0.0,0.0,0.0,0.0,0.0,0.0,0.0,0.0,0.0,0.0,0.0,0.0,0.0,0.0,0.0,0.0,0.0,0.0,0.0,0.0,0.0,0.0,0.0,0.0,0.0,0.0,0.0,0.0,0.0,0.0,0.0,0.0,0.0,0.0,0.0,0.0,0.0,0.0,0.0,0.0,0.0,0.0,0.0,0.0,0.0,0.0,0.0,0.0,0.0,0.0,0.0,0.0,0.0,0.0,0.0,0.0,0.0,0.0,0.0,0.0,0.0,0.0,0.0,0.0,0.0,0.0,0.0,0.0,0.0,0.0,0.0,0.0,0.0,0.0,0.0,0.0,0.0,0.0,0.0,0.0,0.0,0.0,0.0,0.0,0.0,0.0,0.0,0.0,0.0,0.0,0.0,0.0,0.0,0.0,0.0,0.0,0.0,0.0,0.0,0.0,0.0,0.0,3.828,3.816,3.8058,3.7986,3.7945,0.0,0.0,0.0,0.0,0.0,0.0,0.0,0.0,0.0,0.0,0.0,0.0,0.0,0.0,0.0,0.0,0.0,0.0,0.0,0.0,0.0,0.0,0.0,0.0,0.0,0.0,0.0,0.0,0.0,0.0,0.0,0.0,0.0,0.0,0.0,0.0,0.0,0.0,0.0,0.0,0.0,0.0,0.0,0.0,0.0,0.0,0.0,0.0,0.0,0.0,0.0,0.0,0.0,0.0,0.0,0.0,0.0,0.0,0.0,0.0,0.0,0.0,0.0,0.0,0.0,0.0,0.0,0.0,0.0,0.0,0.0,0.0,0.0,0.0,0.0,0.0,0.0,0.0,0.0,0.0,0.0,0.0,0.0,0.0,0.0,0.0,0.0,0.0,0.0,0.0,0.0,0.0,0.0,0.0,0.0,0.0,0.0,0.0,0.0,0.0,0.0,0.0,0.0,0.0,0.0,0.0,0.0,0.0,0.0,0.0,0.0,0.0,3.8792,3.8746,3.8761,0.0,0.0,0.0,0.0,0.0,0.0,0.0,0.0,0.0,0.0,0.0,0.0,0.0,0.0,0.0,0.0,0.0,0.0,0.0,0.0,0.0,0.0,0.0,0.0,0.0,0.0,0.0,0.0,0.0,0.0,0.0,0.0,0.0,0.0,0.0,0.0,0.0,0.0,0.0,0.0,0.0,0.0,0.0,0.0,0.0,0.0,0.0,0.0,0.0,0.0,0.0,0.0,0.0,0.0,0.0,0.0,0.0,0.0,0.0,0.0,0.0,0.0,0.0,0.0,0.0,0.0,0.0,0.0,0.0,0.0,0.0,0.0,0.0,0.0,0.0,0.0,0.0,0.0,0.0,0.0,0.0,0.0,0.0,0.0,0.0,0.0,0.0,0.0,0.0,0.0,0.0,0.0,0.0,0.0,0.0,0.0,0.0,0.0,0.0,0.0,0.0,0.0,0.0,0.0,0.0,0.0,0.0,0.0,0.0,0.0,3.988,3.9615,3.9486,0.0,3.9554,0.0,0.0,0.0,0.0,0.0,0.0,0.0,0.0,0.0,0.0,0.0,0.0,0.0,0.0,0.0,0.0,0.0,0.0,0.0,0.0,0.0,0.0,0.0,0.0,0.0,0.0,0.0,0.0,0.0,0.0,0.0,0.0,0.0,0.0,0.0,0.0,0.0,0.0,0.0,0.0,0.0,0.0,0.0,0.0,0.0,0.0,0.0,0.0,0.0,0.0,0.0,0.0,0.0,0.0,0.0,0.0,0.0,0.0,0.0,0.0,0.0,0.0,0.0,0.0,0.0,0.0,0.0,0.0,0.0,0.0,0.0,0.0,0.0,0.0,0.0,0.0,0.0,0.0,0.0,0.0,0.0,0.0,0.0,0.0,0.0,0.0,0.0,0.0,0.0,0.0,0.0,0.0,0.0,0.0,0.0,0.0,0.0,0.0,0.0,0.0,0.0,0.0,0.0,0.0,0.0,0.0,0.0,0.0,0.0,0.0,3.9724,3.9526,3.9464,3.9483,0.0,0.0,0.0,0.0,0.0,0.0,0.0,0.0,0.0,0.0,0.0,0.0,0.0,0.0,0.0,0.0,0.0,0.0,0.0,0.0,0.0,0.0,0.0,0.0,0.0,0.0,0.0,0.0,0.0,0.0,0.0,0.0,0.0,0.0,0.0,0.0,0.0,0.0,0.0,0.0,0.0,0.0,0.0,0.0,0.0,0.0,0.0,0.0,0.0,0.0,0.0,0.0,0.0,0.0,0.0,0.0,0.0,0.0,0.0,0.0,0.0,0.0,0.0,0.0,0.0,0.0,0.0,0.0,0.0,0.0,0.0,0.0,0.0,0.0,0.0,0.0,0.0,0.0,0.0,0.0,0.0,0.0,0.0,0.0,0.0,0.0,0.0,0.0,0.0,0.0,0.0,0.0,0.0,0.0,0.0,0.0,0.0,0.0,0.0,0.0,0.0,0.0,0.0,0.0,0.0,0.0,0.0,0.0,0.0,0.0,3.9724,3.9452,3.929,3.9298,3.9414,3.9582,0.0,0.0,0.0,0.0,0.0,0.0,0.0,0.0,0.0,0.0,0.0,0.0,0.0,0.0,0.0,0.0,0.0,0.0,0.0,0.0,0.0,0.0,0.0,0.0,0.0,0.0,0.0,0.0,0.0,0.0,0.0,0.0,0.0,0.0,0.0,0.0,0.0,0.0,0.0,0.0,0.0,0.0,0.0,0.0,0.0,0.0,0.0,0.0,0.0,0.0,0.0,0.0,0.0,0.0,0.0,0.0,0.0,0.0,0.0,0.0,0.0,0.0,0.0,0.0,0.0,0.0,0.0,0.0,0.0,0.0,0.0,0.0,0.0,0.0,0.0,0.0,0.0,0.0,0.0,0.0,0.0,0.0,0.0,0.0,0.0,0.0,0.0,0.0,0.0,0.0,0.0,0.0,0.0,0.0,0.0,0.0,0.0,0.0,0.0,0.0,0.0,0.0,0.0,0.0,0.0,0.0,0.0,0.0,3.9876,3.9575,3.9251,3.8935,3.912,3.9285,0.0,0.0,0.0,0.0,0.0,0.0,0.0,0.0,0.0,0.0,0.0,0.0,0.0,0.0,0.0,0.0,0.0,0.0,0.0,0.0,0.0,0.0,0.0,0.0,0.0,0.0,0.0,0.0,0.0,0.0,0.0,0.0,0.0,0.0,0.0,0.0,0.0,0.0,0.0,0.0,0.0,0.0,0.0,0.0,0.0,0.0,0.0,0.0,0.0,0.0,0.0,0.0,0.0,0.0,0.0,0.0,0.0,0.0,0.0,0.0,0.0,0.0,0.0,0.0,0.0,0.0,0.0,0.0,0.0,0.0,0.0,0.0,0.0,0.0,0.0,0.0,0.0,0.0,0.0,0.0,0.0,0.0,0.0,0.0,0.0,0.0,0.0,0.0,0.0,0.0,0.0,0.0,0.0,0.0,0.0,0.0,0.0,0.0,0.0,0.0,0.0,0.0,0.0,0.0,0.0,0.0,0.0,0.0,0.0,3.959,3.9119,3.8766,3.8664,3.8861,3.9141,0.0,0.0,0.0,0.0,0.0,0.0,0.0,0.0,0.0,0.0,0.0,0.0,0.0,0.0,0.0,0.0,0.0,0.0,0.0,0.0,0.0,0.0,0.0,0.0,0.0,0.0,0.0,0.0,0.0,0.0,0.0,0.0,0.0,0.0,0.0,0.0,0.0,0.0,0.0,0.0,0.0,0.0,0.0,0.0,0.0,0.0,0.0,0.0,0.0,0.0,0.0,0.0,0.0,0.0,0.0,0.0,0.0,0.0,0.0,0.0,0.0,0.0,0.0,0.0,0.0,0.0,0.0,0.0,0.0,0.0,0.0,0.0,0.0,0.0,0.0,0.0,0.0,0.0,0.0,0.0,0.0,0.0,0.0,0.0,0.0,0.0,0.0,0.0,0.0,0.0,0.0,0.0,0.0,0.0,0.0,0.0,0.0,0.0,0.0,0.0,0.0,0.0,0.0,0.0,0.0,0.0,0.0,0.0,0.0,3.9112,0.0,3.835,3.835,3.8655,3.8985,0.0,0.0,0.0,0.0,0.0,0.0,0.0,0.0,0.0,0.0,0.0,0.0,0.0,0.0,0.0,0.0,0.0,0.0,0.0,0.0,0.0,0.0,0.0,0.0,0.0,0.0,0.0,0.0,0.0,0.0,0.0,0.0,0.0,0.0,0.0,0.0,0.0,0.0,0.0,0.0,0.0,0.0,0.0,0.0,0.0,0.0,0.0,0.0,0.0,0.0,0.0,0.0,0.0,0.0,0.0,0.0,0.0,0.0,0.0,0.0,0.0,0.0,0.0,0.0,0.0,0.0,0.0,0.0,0.0,0.0,0.0,0.0,0.0,0.0,0.0,0.0,0.0,0.0,0.0,0.0,0.0,0.0,0.0,0.0,0.0,0.0,0.0,0.0,0.0,0.0,0.0,0.0,0.0,0.0,0.0,0.0,0.0,0.0,0.0,0.0,0.0,0.0,0.0,0.0,0.0,0.0,0.0,0.0,3.7623,3.8431,3.817,3.8001,3.8019,3.8394,3.8828,0.0,0.0,0.0,0.0,0.0,0.0,0.0,0.0,0.0,0.0,0.0,0.0,0.0,0.0,0.0,0.0,0.0,0.0,0.0,0.0,0.0,0.0,0.0,0.0,0.0,0.0,0.0,0.0,0.0,0.0,0.0,0.0,0.0,0.0,0.0,0.0,0.0,0.0,0.0,0.0,0.0,0.0,0.0,0.0,0.0,0.0,0.0,0.0,0.0,0.0,0.0,0.0,0.0,0.0,0.0,0.0,0.0,0.0,0.0,0.0,0.0,0.0,0.0,0.0,0.0,0.0,0.0,0.0,0.0,0.0,0.0,0.0,0.0,0.0,0.0,0.0,0.0,0.0,0.0,0.0,0.0,0.0,0.0,0.0,0.0,0.0,0.0,0.0,0.0,0.0,0.0,0.0,0.0,0.0,0.0,0.0,0.0,0.0,0.0,0.0,0.0,0.0,0.0,0.0,0.0,0.0,0.0,0.0,0.0,3.7995,3.7739,3.7649,3.7792,3.8212,3.8741,0.0,0.0,0.0,0.0,0.0,0.0,0.0,0.0,0.0,0.0,0.0,0.0,0.0,0.0,0.0,0.0,0.0,0.0,0.0,0.0,0.0,0.0,0.0,0.0,0.0,0.0,0.0,0.0,0.0,0.0,0.0,0.0,0.0,0.0,0.0,0.0,0.0,0.0,0.0,0.0,0.0,0.0,0.0,0.0,0.0,0.0,0.0,0.0,0.0,0.0,0.0,0.0,0.0,0.0,0.0,0.0,0.0,0.0,0.0,0.0,0.0,0.0,0.0,0.0,0.0,0.0,0.0,0.0,0.0,0.0,0.0,0.0,0.0,0.0,0.0,0.0,0.0,0.0,0.0,0.0,0.0,0.0,0.0,0.0,0.0,0.0,0.0,0.0,0.0,0.0,0.0,0.0,0.0,0.0,0.0,0.0,0.0,0.0,0.0,0.0,0.0,0.0,0.0,0.0,0.0,0.0,0.0,0.0,0.0,3.6987,3.7177,3.7337,3.7504,3.8047,3.8618,3.9229,0.0,0.0,0.0,0.0,0.0,0.0,0.0,0.0,0.0,0.0,0.0,0.0,0.0,0.0,0.0,0.0,0.0,0.0,0.0,0.0,0.0,0.0,0.0,0.0,0.0,0.0,0.0,0.0,0.0,0.0,0.0,0.0,0.0,0.0,0.0,0.0,0.0,0.0,0.0,0.0,0.0,0.0,0.0,0.0,0.0,0.0,0.0,0.0,0.0,0.0,0.0,0.0,0.0,0.0,0.0,0.0,0.0,0.0,0.0,0.0,0.0,0.0,0.0,0.0,0.0,0.0,0.0,0.0,0.0,0.0,0.0,0.0,0.0,0.0,0.0,0.0,0.0,0.0,0.0,0.0,0.0,0.0,0.0,0.0,0.0,0.0,0.0,0.0,0.0,0.0,0.0,0.0,0.0,0.0,0.0,0.0,0.0,0.0,0.0,0.0,0.0,0.0,0.0,0.0,0.0,0.0,0.0,0.0,3.5659,3.6472,3.6995,3.7207,3.7825,3.8508,0.0,0.0,0.0,0.0,0.0,0.0,0.0,0.0,0.0,0.0,0.0,0.0,0.0,0.0,0.0,0.0,0.0,0.0,0.0,0.0,0.0,0.0,0.0,0.0,0.0,0.0,0.0,0.0,0.0,0.0,0.0,0.0,0.0,0.0,0.0,0.0,0.0,0.0,0.0,0.0,0.0,0.0,0.0,0.0,0.0,0.0,0.0,0.0,0.0,0.0,0.0,0.0,0.0,0.0,0.0,0.0,0.0,0.0,0.0,0.0,0.0,0.0,0.0,0.0,0.0,0.0,0.0,0.0,0.0,0.0,0.0,0.0,0.0,0.0,0.0,0.0,0.0,0.0,0.0,0.0,0.0,0.0,0.0,0.0,0.0,0.0,0.0,0.0,0.0,0.0,0.0,0.0,0.0,0.0,0.0,0.0,0.0,0.0,0.0,0.0,0.0,0.0,0.0,0.0,0.0,0.0,0.0,0.0,0.0,3.529,3.557,3.6138,3.7075,3.7685,3.8334,0.0,0.0,0.0,0.0,0.0,0.0,0.0,0.0,0.0,0.0,0.0,0.0,0.0,0.0,0.0,0.0,0.0,0.0,0.0,0.0,0.0,0.0,0.0,0.0,0.0,0.0,0.0,0.0,0.0,0.0,0.0,0.0,0.0,0.0,0.0,0.0,0.0,0.0,0.0,0.0,0.0,0.0,0.0,0.0,0.0,0.0,0.0,0.0,0.0,0.0,0.0,0.0,0.0,0.0,0.0,0.0,0.0,0.0,0.0,0.0,0.0,0.0,0.0,0.0,0.0,0.0,0.0,0.0,0.0,0.0,0.0,0.0,0.0,0.0,0.0,0.0,0.0,0.0,0.0,0.0,0.0,0.0,0.0,0.0,0.0,0.0,0.0,0.0,0.0,0.0,0.0,0.0,0.0,0.0,0.0,0.0,0.0,0.0,0.0,0.0,0.0,0.0,0.0,0.0,0.0,0.0,0.0,0.0,3.3415,3.4071,3.4686,3.5451,3.6387,3.7363,3.8207,0.0,0.0,0.0,0.0,0.0,0.0,0.0,0.0,0.0,0.0,0.0,0.0,0.0,0.0,0.0,0.0,0.0,0.0,0.0,0.0,0.0,0.0,0.0,0.0,0.0,0.0,0.0,0.0,0.0,0.0,0.0,0.0,0.0,0.0,0.0,0.0,0.0,0.0,0.0,0.0,0.0,0.0,0.0,0.0,0.0,0.0,0.0,0.0,0.0,0.0,0.0,0.0,0.0,0.0,0.0,0.0,0.0,0.0,0.0,0.0,0.0,0.0,0.0,0.0,0.0,0.0,0.0,0.0,0.0,0.0,0.0,0.0,0.0,0.0,0.0,0.0,0.0,0.0,0.0,0.0,0.0,0.0,0.0,0.0,0.0,0.0,0.0,0.0,0.0,0.0,0.0,0.0,0.0,0.0,0.0,0.0,0.0,0.0,0.0,0.0,0.0,0.0,0.0,0.0,0.0,0.0,0.0,0.0,3.2527,3.2468,3.3739,3.4706,3.5322,3.6896,3.8076,0.0,0.0,0.0,0.0,0.0,0.0,0.0,0.0,0.0,0.0,0.0,0.0,0.0,0.0,0.0,0.0,0.0,0.0,0.0,0.0,0.0,0.0,0.0,0.0,0.0,0.0,0.0,0.0,0.0,0.0,0.0,0.0,0.0,0.0,0.0,0.0,0.0,0.0,0.0,0.0,0.0,0.0,0.0,0.0,0.0,0.0,0.0,0.0,0.0,0.0,0.0,0.0,0.0,0.0,0.0,0.0,0.0,0.0,0.0,0.0,0.0,0.0,0.0,0.0,0.0,0.0,0.0,0.0,0.0,0.0,0.0,0.0,0.0,0.0,0.0,0.0,0.0,0.0,0.0,0.0,0.0,0.0,0.0,0.0,0.0,0.0,0.0,0.0,0.0,0.0,0.0,0.0,0.0,0.0,0.0,0.0,0.0,0.0,0.0,0.0,0.0,0.0,0.0,0.0,0.0,0.0,0.0,0.0,3.1738,3.2158,3.2549,3.3155,3.4068,3.6277,3.7875,0.0,0.0,0.0,0.0,0.0,0.0,0.0,0.0,0.0,0.0,0.0,0.0,0.0,0.0,0.0,0.0,0.0,0.0,0.0,0.0,0.0,0.0,0.0,0.0,0.0,0.0,0.0,0.0,0.0,0.0,0.0,0.0,0.0,0.0,0.0,0.0,0.0,0.0,0.0,0.0,0.0,0.0,0.0,0.0,0.0,0.0,0.0,0.0,4.1041,0.0,0.0,0.0,0.0,0.0,0.0,0.0,0.0,0.0,0.0,0.0,0.0,0.0,0.0,0.0,0.0,0.0,0.0,0.0,0.0,0.0,0.0,0.0,0.0,0.0,0.0,0.0,0.0,0.0,0.0,0.0,0.0,0.0,0.0,0.0,0.0,0.0,0.0,0.0,0.0,0.0,0.0,0.0,0.0,0.0,0.0,0.0,0.0,0.0,0.0,0.0,0.0,0.0,0.0,0.0,0.0,0.0,0.0,0.0,3.1059,3.132,3.1792,3.2373,3.3165,3.5025,3.663,0.0,0.0,0.0,0.0,0.0,0.0,0.0,0.0,0.0,0.0,0.0,0.0,0.0,0.0,0.0,0.0,0.0,0.0,0.0,0.0,0.0,0.0,0.0,0.0,0.0,0.0,0.0,0.0,0.0,0.0,0.0,0.0,0.0,0.0,0.0,0.0,0.0,0.0,0.0,0.0,0.0,0.0,0.0,0.0,0.0,0.0,0.0,0.0,0.0,0.0,0.0,0.0,0.0,0.0,0.0,0.0,0.0,0.0,0.0,0.0,0.0,0.0,0.0,0.0,0.0,0.0,0.0,0.0,0.0,0.0,0.0,0.0,0.0,0.0,0.0,0.0,0.0,0.0,0.0,0.0,0.0,0.0,0.0,0.0,0.0,0.0,0.0,0.0,0.0,0.0,0.0,0.0,0.0,0.0,0.0,0.0,0.0,0.0,0.0,0.0,0.0,0.0,0.0,0.0,0.0,0.0,0.0,3.0609,3.0506,3.0333,3.1123,3.1755,3.2218,3.3515,3.4924,3.6483,0.0,0.0,0.0,0.0,0.0,0.0,0.0,0.0,0.0,0.0,0.0,0.0,0.0,0.0,0.0,0.0,0.0,0.0,0.0,0.0,0.0,0.0,0.0,0.0,0.0,0.0,0.0,0.0,0.0,0.0,0.0,0.0,0.0,0.0,0.0,0.0,0.0,0.0,3.8713,3.8223,0.0,0.0,0.0,0.0,0.0,0.0,0.0,0.0,4.0244,0.0,0.0,0.0,0.0,0.0,0.0,0.0,0.0,0.0,0.0,0.0,0.0,0.0,0.0,0.0,0.0,0.0,0.0,0.0,0.0,0.0,0.0,0.0,0.0,0.0,0.0,0.0,0.0,0.0,0.0,0.0,0.0,0.0,0.0,0.0,0.0,0.0,0.0,0.0,0.0,0.0,0.0,0.0,0.0,0.0,0.0,0.0,0.0,0.0,0.0,0.0,0.0,0.0,0.0,0.0,0.0,3.0356,3.0194,3.006,2.9897,3.0158,3.0523,3.1015,3.2239,3.3379,3.4397,0.0,0.0,0.0,0.0,0.0,0.0,0.0,0.0,0.0,0.0,0.0,0.0,0.0,0.0,0.0,0.0,0.0,0.0,0.0,0.0,0.0,0.0,0.0,0.0,0.0,0.0,0.0,0.0,0.0,0.0,0.0,0.0,0.0,0.0,0.0,0.0,0.0,0.0,0.0,3.7845,3.7576,0.0,0.0,0.0,0.0,0.0,0.0,0.0,0.0,3.9846,0.0,0.0,0.0,0.0,0.0,0.0,0.0,0.0,0.0,0.0,0.0,0.0,0.0,0.0,0.0,0.0,0.0,0.0,0.0,0.0,0.0,0.0,0.0,0.0,0.0,0.0,0.0,0.0,0.0,0.0,0.0,0.0,0.0,0.0,0.0,0.0,0.0,0.0,0.0,0.0,0.0,0.0,0.0,0.0,0.0,0.0,0.0,0.0,0.0,0.0,0.0,0.0,0.0,0.0,0.0,3.0054,2.9913,2.9732,2.9544,2.9766,3.0092,3.0493,3.1361,3.2229,0.0,0.0,0.0,0.0,0.0,0.0,0.0,0.0,0.0,0.0,0.0,0.0,0.0,0.0,0.0,0.0,0.0,0.0,0.0,0.0,0.0,0.0,0.0,0.0,0.0,0.0,0.0,0.0,0.0,0.0,0.0,0.0,0.0,0.0,0.0,0.0,0.0,0.0,0.0,0.0,3.781,3.7613,3.7466,0.0,0.0,0.0,0.0,0.0,0.0,3.9467,3.9859,0.0,0.0,0.0,0.0,0.0,0.0,0.0,0.0,0.0,0.0,0.0,0.0,0.0,0.0,0.0,0.0,0.0,0.0,0.0,0.0,0.0,0.0,0.0,0.0,0.0,0.0,0.0,0.0,0.0,0.0,0.0,0.0,0.0,0.0,0.0,0.0,0.0,0.0,0.0,0.0,0.0,0.0,0.0,0.0,0.0,0.0,0.0,0.0,0.0,0.0,0.0,0.0,0.0,0.0,0.0,2.9705,2.9637,2.9441,2.9243,2.9522,2.9875,3.0225,3.0744,3.1395,0.0,0.0,0.0,0.0,0.0,0.0,0.0,0.0,0.0,0.0,0.0,0.0,0.0,0.0,0.0,0.0,0.0,0.0,0.0,0.0,0.0,0.0,0.0,0.0,0.0,0.0,0.0,0.0,0.0,0.0,0.0,0.0,0.0,0.0,0.0,0.0,0.0,0.0,0.0,0.0,0.0,3.7739,3.7827,3.7771,0.0,0.0,0.0,0.0,3.8342,3.9122,0.0,0.0,0.0,0.0,0.0,0.0,0.0,0.0,0.0,0.0,0.0,0.0,0.0,0.0,0.0,0.0,0.0,0.0,0.0,0.0,0.0,0.0,0.0,0.0,0.0,0.0,0.0,0.0,0.0,0.0,0.0,0.0,0.0,0.0,0.0,0.0,0.0,0.0,0.0,0.0,0.0,0.0,0.0,0.0,0.0,0.0,0.0,0.0,0.0,0.0,0.0,0.0,0.0,0.0,0.0,0.0,2.9357,2.9236,2.9082,2.8967,2.922,2.956,3.0017,3.0506,3.1081,0.0,0.0,0.0,0.0,0.0,0.0,0.0,0.0,0.0,0.0,0.0,0.0,0.0,0.0,0.0,0.0,0.0,0.0,0.0,0.0,0.0,0.0,0.0,0.0,0.0,0.0,0.0,0.0,0.0,0.0,0.0,0.0,0.0,0.0,0.0,0.0,0.0,0.0,0.0,0.0,0.0,3.7936,3.8577,3.8666,3.8841,0.0,0.0,3.8717,3.91,3.8684,0.0,0.0,0.0,0.0,0.0,0.0,0.0,0.0,0.0,0.0,0.0,0.0,0.0,0.0,0.0,0.0,0.0,0.0,0.0,0.0,0.0,0.0,0.0,0.0,0.0,0.0,0.0,0.0,0.0,0.0,0.0,0.0,0.0,0.0,0.0,0.0,0.0,0.0,0.0,0.0,0.0,0.0,0.0,0.0,0.0,0.0,0.0,0.0,0.0,0.0,0.0,0.0,0.0,0.0,0.0,2.9409,2.9182,2.9006,2.8897,2.8858,2.9144,2.9464,2.9814,3.0274,3.0818,0.0,0.0,0.0,0.0,0.0,0.0,0.0,0.0,0.0,0.0,0.0,0.0,0.0,0.0,0.0,0.0,0.0,0.0,0.0,0.0,0.0,0.0,0.0,0.0,0.0,0.0,0.0,0.0,0.0,0.0,0.0,0.0,0.0,0.0,0.0,0.0,0.0,0.0,0.0,0.0,0.0,0.0,3.9139,3.9482,0.0,0.0,0.0,3.9521,3.9722,0.0,0.0,0.0,0.0,0.0,0.0,0.0,0.0,0.0,0.0,0.0,0.0,0.0,0.0,0.0,0.0,0.0,0.0,0.0,0.0,0.0,0.0,0.0,0.0,0.0,0.0,0.0,0.0,0.0,0.0,0.0,0.0,0.0,0.0,0.0,0.0,0.0,0.0,0.0,0.0,0.0,0.0,0.0,0.0,0.0,0.0,0.0,0.0,0.0,0.0,0.0,0.0,0.0,0.0,0.0,0.0,0.0,2.8928,2.8811,2.8747,2.8771,2.9045,2.935,2.9697,3.0119,0.0,0.0,0.0,0.0,0.0,0.0,0.0,0.0,0.0,0.0,0.0,0.0,0.0,0.0,0.0,0.0,0.0,0.0,0.0,0.0,0.0,0.0,0.0,0.0,0.0,0.0,0.0,3.7564,0.0,0.0,0.0,0.0,0.0,0.0,0.0,0.0,0.0,0.0,0.0,0.0,0.0,0.0,3.9547,4.0084,4.0562,4.0926,0.0,0.0,4.0542,4.0411,4.0694,4.0976,0.0,0.0,0.0,0.0,0.0,0.0,0.0,0.0,0.0,0.0,0.0,0.0,0.0,0.0,0.0,0.0,0.0,0.0,0.0,0.0,0.0,0.0,0.0,0.0,0.0,0.0,0.0,0.0,0.0,0.0,0.0,0.0,0.0,0.0,0.0,0.0,0.0,0.0,0.0,0.0,0.0,0.0,0.0,0.0,0.0,0.0,0.0,0.0,0.0,0.0,0.0,0.0,0.0,0.0,0.0,2.8468,2.8565,2.8597,2.8621,2.8842,2.9175,2.9697,3.0033,3.0389,0.0,0.0,0.0,0.0,0.0,0.0,0.0,0.0,0.0,0.0,0.0,0.0,0.0,0.0,0.0,0.0,0.0,0.0,0.0,0.0,0.0,0.0,0.0,0.0,0.0,0.0,0.0,0.0,0.0,0.0,0.0,0.0,0.0,0.0,0.0,0.0,0.0,0.0,0.0,0.0,0.0,4.0302,4.1803,4.2059,4.2283,0.0,0.0,4.1687,4.1354,4.0815,4.0672,4.128,0.0,0.0,0.0,0.0,0.0,0.0,0.0,0.0,0.0,0.0,0.0,0.0,0.0,0.0,0.0,0.0,0.0,0.0,0.0,0.0,0.0,0.0,0.0,0.0,0.0,0.0,0.0,0.0,0.0,0.0,0.0,0.0,0.0,0.0,0.0,0.0,0.0,0.0,0.0,0.0,0.0,0.0,0.0,0.0,0.0,0.0,0.0,0.0,0.0,0.0,0.0,0.0,0.0,2.8556,2.8517,2.8508,2.8517,2.8597,2.8803,2.9052,2.9321,2.9738,3.0135,0.0,0.0,0.0,0.0,0.0,0.0,0.0,0.0,0.0,0.0,0.0,0.0,0.0,0.0,0.0,0.0,0.0,0.0,0.0,0.0,0.0,0.0,0.0,0.0,0.0,0.0,0.0,0.0,3.7967,3.814,3.8322,0.0,0.0,0.0,0.0,0.0,0.0,0.0,0.0,0.0,0.0,4.177,4.2426,4.2924,0.0,0.0,4.3169,4.2898,4.2774,4.2554,4.2462,4.2702,4.2844,0.0,0.0,0.0,0.0,0.0,0.0,0.0,0.0,0.0,0.0,0.0,0.0,0.0,0.0,0.0,0.0,0.0,0.0,0.0,0.0,0.0,0.0,0.0,0.0,0.0,0.0,0.0,0.0,0.0,0.0,0.0,0.0,0.0,0.0,0.0,0.0,0.0,0.0,0.0,0.0,0.0,0.0,0.0,0.0,0.0,0.0,0.0,0.0,0.0,0.0,0.0,0.0,2.8323,2.842,2.8372,2.8411,2.8541,2.8724,2.8897,2.9098,2.9477,2.9859,0.0,0.0,0.0,0.0,0.0,0.0,0.0,0.0,0.0,0.0,0.0,0.0,0.0,0.0,0.0,0.0,0.0,0.0,0.0,0.0,0.0,0.0,0.0,0.0,0.0,0.0,0.0,0.0,3.7757,3.8003,3.8274,0.0,0.0,0.0,0.0,0.0,0.0,0.0,0.0,0.0,0.0,4.2844,4.3125,4.3661,4.4002,4.3873,4.3823,4.3809,4.3761,4.3761,4.3777,4.3726,0.0,0.0,0.0,0.0,0.0,0.0,0.0,0.0,0.0,0.0,0.0,0.0,0.0,0.0,0.0,0.0,0.0,0.0,0.0,0.0,0.0,0.0,0.0,0.0,0.0,0.0,0.0,0.0,0.0,0.0,2.7523,0.0,0.0,0.0,0.0,0.0,0.0,0.0,0.0,0.0,0.0,0.0,0.0,0.0,0.0,0.0,0.0,0.0,0.0,0.0,0.0,0.0,0.0,2.8005,2.8005,2.8152,2.8259,2.8396,2.8541,2.8748,2.9075,2.9373,2.9671,2.9995,0.0,0.0,0.0,0.0,0.0,0.0,0.0,0.0,0.0,0.0,0.0,0.0,0.0,0.0,0.0,0.0,0.0,0.0,0.0,0.0,0.0,0.0,0.0,0.0,0.0,0.0,3.7127,3.7577,3.8003,0.0,0.0,0.0,0.0,0.0,0.0,0.0,0.0,0.0,0.0,4.2431,4.3324,4.4144,4.4341,4.4346,4.4221,4.4231,4.425,4.4102,4.4151,4.4181,0.0,0.0,0.0,0.0,0.0,0.0,0.0,0.0,0.0,0.0,0.0,0.0,0.0,0.0,0.0,0.0,0.0,0.0,0.0,0.0,0.0,0.0,0.0,0.0,0.0,0.0,0.0,2.5793,2.6062,0.0,0.0,0.0,0.0,0.0,0.0,0.0,0.0,0.0,0.0,0.0,2.9131,2.924,0.0,0.0,0.0,0.0,0.0,0.0,0.0,0.0,0.0,0.0,0.0,0.0,2.785,2.8113,2.8186,2.8275,2.8411,2.8541,2.8645,2.8748,2.9075,2.9486,2.9973,0.0,0.0,0.0,0.0,0.0,0.0,0.0,0.0,0.0,0.0,0.0,0.0,0.0,0.0,0.0,0.0,0.0,0.0,0.0,0.0,0.0,0.0,0.0,0.0,0.0,3.6926,0.0,0.0,0.0,0.0,0.0,0.0,0.0,0.0,0.0,0.0,0.0,4.1401,4.2362,4.34,4.4199,4.4565,4.4739,4.4758,0.0,0.0,0.0,0.0,0.0,0.0,0.0,0.0,0.0,0.0,0.0,0.0,0.0,0.0,4.3302,4.292,4.267,4.243,4.2243,0.0,0.0,0.0,0.0,0.0,0.0,0.0,0.0,0.0,0.0,0.0,0.0,0.0,0.0,2.644,0.0,2.7255,0.0,0.0,0.0,0.0,0.0,0.0,0.0,0.0,2.9289,2.9176,2.9099,2.9226,2.9352,0.0,2.9477,2.897,0.0,0.0,0.0,0.0,0.0,0.0,0.0,0.0,2.765,2.8039,2.8146,2.8284,2.8468,2.8589,2.8668,2.87,2.9029,2.9457,2.993,3.0231,3.0551,0.0,0.0,0.0,0.0,0.0,0.0,0.0,0.0,0.0,0.0,0.0,0.0,0.0,0.0,0.0,0.0,0.0,0.0,0.0,0.0,0.0,0.0,0.0,3.6846,0.0,0.0,0.0,0.0,0.0,0.0,0.0,0.0,0.0,4.0456,4.1356,4.2273,4.294,4.4006,4.477,4.4883,0.0,0.0,0.0,0.0,0.0,0.0,0.0,4.5068,4.5103,4.5159,4.5151,4.503,4.4739,4.4517,4.4426,0.0,0.0,4.3267,4.2975,4.2728,4.2492,4.2351,4.2207,4.2016,4.1909,4.1801,0.0,0.0,0.0,0.0,0.0,0.0,0.0,0.0,2.7146,2.7456,0.0,2.7941,0.0,0.0,0.0,0.0,0.0,2.9571,0.0,0.0,2.9397,2.9289,2.9131,2.9131,2.9226,2.9415,2.9415,2.8907,2.789,2.7849,0.0,0.0,0.0,0.0,0.0,0.0,2.7412,2.784,2.8088,2.8317,2.8612,2.8723,2.885,2.8881,2.9275,2.9554,2.9788,3.0022,3.0274,3.0506,3.0834,0.0,0.0,0.0,0.0,0.0,0.0,0.0,0.0,0.0,0.0,0.0,0.0,0.0,0.0,0.0,0.0,0.0,0.0,0.0,0.0,3.664,0.0,0.0,0.0,0.0,0.0,0.0,0.0,0.0,0.0,0.0,4.1434,4.2318,4.3086,4.3318,0.0,0.0,0.0,0.0,4.5369,4.5298,4.5359,4.5369,4.5317,4.5307,4.5307,4.5307,0.0,0.0,4.5222,4.5079,4.4936,4.4852,4.4699,4.4378,4.3664,4.3375,4.3105,4.2806,4.267,4.2532,4.2328,4.2082,4.1913,2.6822,0.0,0.0,0.0,0.0,2.7842,2.8083,2.8158,2.8484,2.8445,2.8157,2.8449,0.0,0.0,0.0,0.0,0.0,0.0,2.9477,2.9509,2.9446,2.9415,2.9446,2.9446,2.9526,2.9699,2.9699,2.9395,2.8793,2.8324,2.7442,2.6166,0.0,0.0,0.0,0.0,2.774,2.8201,2.8299,2.8468,2.8747,2.8771,2.885,2.8904,2.9013,2.9236,2.9554,2.9748,3.0033,3.0401,3.0716,0.0,0.0,0.0,0.0,0.0,0.0,0.0,0.0,0.0,0.0,0.0,0.0,0.0,0.0,0.0,0.0,0.0,0.0,0.0,3.6343,3.7033,3.7612,0.0,0.0,0.0,0.0,0.0,0.0,0.0,0.0,0.0,4.3203,4.3114,4.3334,0.0,0.0,4.5117,4.5297,4.54,4.5457,4.5438,4.5448,0.0,4.539,4.541,4.5458,4.5458,4.5467,4.5438,4.5371,4.5241,4.5113,4.5026,4.4858,4.4627,4.4288,4.3905,4.3528,4.316,4.305,4.2863,4.2456,4.2251,4.2121,2.8983,2.8371,2.8301,2.8518,2.8912,2.9443,2.964,2.9639,2.9962,2.9956,2.9664,2.9624,2.964,2.9704,2.9607,0.0,0.0,0.0,2.9509,2.9602,2.9509,2.9526,2.9682,2.9668,2.9761,2.9929,2.9976,2.9768,2.9272,2.9001,2.8366,2.733,0.0,0.0,2.7346,2.7595,2.7944,2.8414,2.8605,2.8787,2.8975,2.906,2.9107,2.9144,2.9175,2.935,2.9598,2.9814,3.0055,3.038,3.0675,3.1096,0.0,0.0,0.0,0.0,0.0,0.0,0.0,0.0,0.0,0.0,0.0,3.6544,3.6561,0.0,0.0,0.0,3.7102,3.7236,3.7297,3.793,0.0,0.0,0.0,0.0,0.0,0.0,0.0,4.305,4.3314,4.3618,4.4169,4.3943,4.3963,4.4649,4.501,4.5224,4.5369,0.0,4.5531,4.5531,4.5531,4.5522,4.5485,4.5513,4.5531,4.5531,4.555,4.5522,4.5466,4.54,4.5301,4.5235,4.5103,4.4907,4.4627,4.4331,4.3968,4.3549,4.3375,4.3178,4.2767,4.2514,4.2348,3.0508,3.0535,2.984,2.9741,3.0115,3.0624,3.0902,3.1062,3.1396,3.1584,3.162,3.1034,3.0842,3.0971,3.0171,0.0,2.9634,2.9634,2.9634,2.9634,2.9634,2.9713,2.9839,2.9839,2.996,3.0158,3.0296,3.0084,2.9609,2.9856,2.9774,2.9349,2.7812,2.727,2.7725,2.791,2.8158,2.8559,2.8928,2.9159,2.9305,2.9434,2.9518,2.9518,2.9653,2.9732,2.9832,3.0065,3.0253,3.0417,3.0729,3.1332,3.228,0.0,0.0,0.0,0.0,0.0,0.0,0.0,0.0,0.0,0.0,0.0,0.0,0.0,0.0,0.0,3.822,0.0,3.8807,3.9064,0.0,0.0,0.0,4.1053,4.2186,4.2546,4.305,4.3931,0.0,0.0,4.4501,4.468,4.4808,4.4833,4.5114,4.5328,4.5389,4.5524,4.5594,4.5594,4.5594,4.5594,4.5586,4.5586,4.5586,4.5586,4.5594,4.5594,4.5605,4.5531,4.5486,4.5409,4.5329,4.5181,4.4802,4.4659,4.4435,4.3931,4.3667,4.3445,4.3142,4.2842,4.2552,3.1566,3.1683,3.1519,3.1453,3.1537,3.1825,3.1778,3.1542,3.1772,3.1343,3.0492,3.0321,3.0309,3.0325,3.0107,3.0019,2.9958,2.9988,2.9988,2.9988,2.9958,3.0066,3.0176,3.0176,3.0357,3.0642,3.0777,3.0881,3.0966,3.0733,3.0681,3.0838,3.017,2.9521,2.897,2.8684,2.8716,2.9106,2.9198,2.9305,2.945,2.9586,2.9653,2.9653,2.9732,2.9826,2.9935,3.0103,3.0274,3.0464,3.0794,3.1432,3.2397,3.3445,0.0,0.0,0.0,0.0,0.0,0.0,0.0,0.0,0.0,3.7382,3.7361,0.0,3.8387,0.0,3.8659,3.8807,3.896,3.9729,0.0,0.0,4.1829,4.2721,4.32,4.3502,4.3785,4.4116,4.4285,4.444,4.4632,4.484,4.5003,4.5159,4.5297,4.5399,4.5477,4.555,4.5594,4.5594,4.5594,4.5594,4.5594,4.5594,4.5594,4.5594,4.5594,4.5594,4.5594,4.5605,4.5559,4.5495,4.5429,4.5256,4.4979,4.4783,4.4578,4.4255,4.3976,4.3684,4.3269,4.3032,4.277,3.1363,3.1519,3.1519,3.1723,3.2086,3.2387,3.2348,3.2163,3.2259,3.1887,3.1238,3.0949,3.0675,3.0341,3.0385,3.0385,3.031,3.031,3.0325,3.0325,3.0387,3.0463,3.0613,3.0717,3.0896,3.119,3.1408,3.1667,3.1877,3.1861,3.199,3.2173,3.1848,3.1462,3.0984,3.0054,2.9561,2.9464,2.9643,2.9776,2.9886,3.0011,3.0038,3.0038,3.0087,3.0199,3.0347,3.0431,3.0555,3.0814,3.1398,3.2125,3.3074,3.4123,3.5079,0.0,0.0,0.0,0.0,0.0,0.0,0.0,0.0,0.0,0.0,0.0,3.9103,3.9346,3.9693,3.9951,4.0128,4.0778,4.1324,4.1729,4.2648,4.332,4.3562,4.3894,4.415,4.427,4.4444,4.4605,4.4757,4.4998,4.5173,4.532,4.5429,4.5477,4.5514,4.5559,4.5594,4.5594,4.5594,4.5603,4.564,4.5646,4.5635,4.5654,4.5635,4.5654,4.5635,4.5635,4.561,4.5559,4.5477,4.5329,4.5084,4.4846,4.4632,4.4426,4.4195,4.3881,4.3461,4.3214,4.2976,3.0821,3.094,3.0969,3.1457,3.2229,3.2519,3.2689,3.2683,3.2683,3.2625,3.2522,3.1981,3.1378,3.0732,3.0851,3.0821,3.0732,3.0717,3.0717,3.0747,3.0866,3.1014,3.1175,3.135,3.1596,3.1866,3.2176,3.2398,3.259,3.306,3.3324,3.3329,3.3139,3.3032,3.3016,3.1762,3.0665,2.9824,3.0103,3.0316,3.0438,3.0526,3.0551,3.0551,3.0572,3.0695,3.0865,3.0905,3.1021,3.1286,3.2164,3.3076,3.3933,3.4923,3.5844,0.0,3.6705,0.0,0.0,0.0,0.0,0.0,0.0,0.0,0.0,3.9251,3.9565,4.0271,4.0894,4.1368,4.1631,4.1849,4.2148,4.2591,4.305,4.3408,4.3614,4.3979,4.4259,4.4401,4.4592,4.4757,4.49,4.5151,4.536,4.5419,4.5531,4.5575,4.554,4.5575,4.562,4.5612,4.5593,4.5637,4.5682,4.5684,4.568,4.568,4.568,4.5688,4.568,4.568,4.5676,4.5593,4.5495,4.5361,4.514,4.4895,4.4699,4.4524,4.4344,4.4104,4.3732,4.3427,4.316,3.1655,3.1783,3.1881,3.2027,3.222,3.2383,3.2489,3.2556,3.2541,3.2229,3.1722,3.1603,3.1469,3.1321,3.1335,3.1335,3.1335,3.135,3.1364,3.1495,3.1538,3.1752,3.2132,3.216,3.241,3.2761,3.2922,3.3182,3.3445,3.3652,3.3882,3.4068,3.4137,3.3941,3.3487,0.0,0.0,0.0,3.0501,3.0609,3.0667,3.0814,3.0915,3.0915,3.1061,0.0,3.1201,3.1372,3.1506,3.1635,3.2547,0.0,0.0,0.0,0.0,0.0,0.0,0.0,0.0,0.0,0.0,0.0,3.9917,4.0009,4.0075,4.0595,4.1086,4.1442,4.1516,4.1653,4.1995,4.229,4.2571,4.2825,4.3267,4.3597,4.3753,4.4011,4.4259,4.4383,4.4632,4.487,4.5038,4.5301,4.5475,4.5565,4.5632,4.5676,4.5668,4.5676,4.5684,4.5676,4.5676,4.5684,4.5692,4.5688,4.5696,4.5688,4.5688,4.5708,4.5688,4.5708,4.5676,4.5612,4.5531,4.541,4.5151,4.4955,4.4802,4.4619,4.4454,4.4252,4.391,4.3632,4.3322,3.2274,0.0,3.2465,3.2535,0.0,3.2656,3.2791,3.2865,3.2496,3.2155,3.1823,3.1949,3.2033,3.2033,3.2033,3.2048,3.2048,3.2033,3.2061,3.216,3.2272,3.252,3.2792,3.2888,3.3113,3.3455,3.3601,3.3781,3.4,3.4184,3.4399,3.4594,3.4715,3.47,3.4489,3.4432,3.3345,3.1262,3.1083,3.1038,3.1137,3.1293,3.1404,3.1406,0.0,0.0,0.0,0.0,0.0,0.0,0.0,0.0,0.0,0.0,0.0,3.7126,3.7474,3.7805,3.8247,3.8951,3.9705,4.0479,4.0983,4.1151,4.0977,4.1349,4.1648,4.178,4.1805,4.1956,4.2231,4.2554,4.2825,4.3087,4.3462,4.3751,4.3897,4.4135,4.4373,4.4551,4.4783,4.5007,4.5169,4.541,4.5566,4.564,4.5715,4.5746,4.5734,4.5712,4.5688,4.5688,4.5731,4.5746,4.5742,4.5749,4.5757,4.5791,4.5757,4.5749,4.5749,4.5746,4.5735,4.5651,4.5549,4.54,4.5235,4.5022,4.4796,4.4653,4.451,4.4368,4.4162,4.3862,4.3495,3.2841,3.3018,3.3044,3.3124,3.3219,3.3245,3.334,3.3492,0.0,0.0,0.0,3.2683,3.2776,3.2792,3.2819,3.2819,3.2846,3.2846,3.283,3.2911,3.314,3.3324,3.3481,3.3642,3.3848,3.4126,3.425,3.4374,3.4521,3.4739,3.4923,3.5041,3.5158,3.5327,3.5515,3.5249,3.4322,3.2808,3.2178,3.1956,3.2089,3.2254,3.2309,3.2309,3.2383,3.2456,3.2581,3.3299,3.3722,3.3829,3.5241,3.6054,3.6109,3.6873,3.7424,3.7584,3.8206,3.8667,3.8951,4.0139,4.0917,4.1041,4.1679,4.1945,4.167,4.1758,4.1845,4.1888,4.204,4.2251,4.2496,4.2807,4.3105,4.3355,4.3667,4.3897,4.4017,4.4262,4.451,4.4712,4.4943,4.5164,4.5312,4.5513,4.5646,4.5708,4.5761,4.581,4.5793,4.5749,4.5719,4.5739,4.5761,4.581,4.5812,4.58,4.5833,4.5847,4.584,4.5807,4.58,4.581,4.5773,4.5673,4.5538,4.541,4.5288,4.5057,4.4808,4.4706,4.4565,4.4444,4.4368,4.4064,4.3662,3.3578,3.3755,3.4009,3.4126,3.4134,3.4234,3.43,3.4275,3.3633,3.3382,3.3471,3.3523,3.3539,3.3523,3.3523,3.3617,3.3704,3.3704,3.3832,3.4059,3.4084,3.4259,3.448,3.4521,3.4667,3.4923,3.5065,3.5182,3.5264,3.5402,3.5487,3.5509,3.5627,3.5871,3.6105,3.5665,3.5401,3.5333,3.4503,3.4062,3.4081,3.4227,3.43,3.4283,3.4339,3.4393,3.4411,3.4641,3.4801,3.4889,3.5758,3.6274,3.6381,3.713,3.7879,3.8521,3.87,3.9342,4.0624,4.0945,4.1355,4.2014,4.2192,4.2181,4.1966,4.1962,4.2051,4.2205,4.2313,4.2516,4.2883,4.3214,4.3461,4.3629,4.3908,4.4094,4.4166,4.4421,4.4632,4.4789,4.5042,4.5262,4.5438,4.5582,4.5715,4.5764,4.5786,4.5819,4.5807,4.58,4.5793,4.5793,4.5793,4.58,4.5807,4.5807,4.5814,4.5814,4.5814,4.5807,4.5807,4.5817,4.5765,4.5648,4.5547,4.5429,4.5256,4.5091,4.4895,4.4751,4.4632,4.4537,4.444,4.4203,4.3871,3.4374,3.457,3.4723,3.4778,3.4778,3.4866,3.4937,3.4961,3.4658,3.4431,3.425,3.4325,3.4349,3.4349,3.4275,3.4275,3.4349,3.4382,3.4464,3.4586,3.4723,3.4897,3.5038,3.5078,3.5218,3.547,3.5554,3.5605,3.5683,3.581,3.5898,3.6002,3.622,3.6471,3.6719,3.6601,3.6637,3.6843,3.549,3.4817,3.4925,3.4995,3.5031,3.5013,3.5048,3.5101,3.5118,3.5615,3.5899,3.5968,3.6719,3.7184,3.7271,3.763,3.8187,3.9014,3.9481,4.0219,4.1353,4.1821,4.2235,4.2595,4.2652,4.2632,4.2552,4.2409,4.2348,4.2452,4.2689,4.2957,4.325,4.3531,4.3765,4.3905,4.4094,4.4248,4.4364,4.4532,4.4719,4.4943,4.5175,4.5371,4.5547,4.5676,4.5761,4.5793,4.5807,4.5814,4.5854,4.5854,4.5827,4.5814,4.5807,4.5814,4.5847,4.5814,4.5814,4.5834,4.5821,4.5807,4.58,4.581,4.5765,4.5684,4.5584,4.5448,4.5258,4.5114,4.4943,4.4796,4.4693,4.46,4.4491,4.4277,4.3889,3.5131,3.5321,3.5402,3.543,3.5436,3.5436,3.5504,3.5588,3.5588,3.5385,3.5118,3.5071,3.5065,3.5048,3.4954,3.493,3.4984,3.5062,3.5115,3.5168,3.5345,3.5481,3.5588,3.565,3.5744,3.5958,3.6006,3.6054,3.6126,3.6249,3.6392,3.6553,3.6816,3.7032,3.7225,3.7393,3.7559,3.7667,3.6381,3.5739,3.5861,3.5878,3.5896,3.5896,3.5897,3.5895,3.5981,3.6538,3.6931,3.7017,3.7609,3.7967,3.807,3.8103,3.857,3.9563,4.027,4.107,4.2032,4.2668,4.3032,4.3032,4.3105,4.3142,4.3124,4.2995,4.2862,4.2824,4.3087,4.3375,4.3565,4.3832,4.402,4.4155,4.4296,4.443,4.4551,4.468,4.487,4.5125,4.5311,4.5485,4.5599,4.5715,4.5803,4.5826,4.584,4.5834,4.588,4.5906,4.588,4.586,4.5827,4.5841,4.5887,4.5854,4.5848,4.5887,4.5848,4.5822,4.5827,4.5819,4.5788,4.5735,4.561,4.5476,4.5329,4.5181,4.5003,4.4858,4.4757,4.4699,4.4592,4.435,4.3939,3.58,3.5932,3.6058,3.6148,3.6178,3.6195,3.6216,3.6199,3.6216,3.6216,3.611,3.5717,3.5554,3.5532,3.5532,3.5644,3.5827,3.5871,3.598,3.6118,3.6195,3.6216,3.6237,3.6322,3.6419,3.6464,3.6612,3.6736,3.6801,3.6937,3.711,3.7282,3.732,3.7449,3.7631,3.7667,3.7774,3.7966,3.7805,3.7699,3.7666,3.7666,3.7684,3.7684,3.7648,3.7666,3.7575,3.7737,3.7808,3.7893,3.7997,3.8154,3.8272,3.8401,3.9138,4.0617,4.0956,4.1702,4.3133,4.3389,4.3463,4.3444,4.3495,4.3545,4.3545,4.3682,4.3632,4.3391,4.3442,4.3647,4.3849,4.4085,4.4266,4.435,4.4482,4.4632,4.4745,4.4943,4.5125,4.5275,4.5362,4.5584,4.5528,4.5685,4.5817,4.5867,4.5874,4.5887,4.5918,4.5905,4.5905,4.588,4.588,4.588,4.5905,4.5905,4.5893,4.5899,4.5905,4.5873,4.5861,4.5841,4.5805,4.5781,4.566,4.5522,4.54,4.5286,4.5125,4.4912,4.4783,4.4707,4.4632,4.4318,4.3968,3.6409,3.6489,3.6609,3.671,3.6776,3.6836,3.6838,3.6838,3.6838,3.6838,3.6801,3.662,3.6409,3.6148,3.6127,3.6216,3.6364,3.643,3.653,3.6594,3.6673,3.6733,3.6776,3.6816,3.6913,3.7032,3.7151,3.7282,3.7376,3.7541,3.7703,3.7791,3.7827,3.7897,3.8036,3.7984,3.8018,3.8172,3.8139,3.8106,3.8072,3.809,3.809,3.8055,3.8021,3.8002,3.8123,3.814,3.8188,3.8332,3.8444,3.8572,3.871,3.877,3.9567,4.1182,4.2266,4.3077,4.3742,4.3779,4.3798,4.3798,4.386,4.3889,4.3905,4.4036,4.4055,4.3923,4.3892,4.3955,4.4116,4.4285,4.4416,4.451,4.4605,4.47,4.4876,4.4581,4.445,4.4643,4.4792,4.4903,4.5052,4.5493,4.5834,4.5899,4.5893,4.5808,4.591,4.5955,4.5966,4.5958,4.5944,4.5927,4.5904,4.5892,4.5892,4.5892,4.5892,4.5892,4.5886,4.5874,4.5847,4.5812,4.5688,4.5556,4.5419,4.5319,4.5192,4.4881,4.4347,4.4071,4.4002,4.3489,4.2992,3.6935,3.6974,3.7127,3.7241,3.73,3.7339,3.7376,3.7376,3.7376,3.7358,3.7376,3.7376,3.7207,3.6933,3.6774,3.6753,3.6836,3.6954,3.6995,3.7052,3.7166,3.7261,3.7318,3.7338,3.7431,3.7541,3.7614,3.7631,3.7539,3.7423,3.7575,3.7822,3.7874,3.8069,3.8352,3.8303,3.8269,3.8338,3.8307,3.8274,3.8257,3.8274,3.8274,3.8224,3.8171,3.8203,3.8338,3.8421,3.8512,3.871,3.8815,3.8931,3.9055,3.9101,3.9858,4.1556,4.3189,4.4085,4.4067,4.4082,4.4067,4.4101,4.4158,4.4185,4.4199,4.4277,4.4358,4.4325,4.4277,4.4277,4.431,4.4416,4.4402,4.4304,4.4372,4.4448,4.4315,4.3895,4.3704,4.388,4.4017,4.4133,4.4283,4.4712,4.5086,4.5097,4.5161,4.5237,4.5357,4.5445,4.5645,4.5686,4.5827,4.598,4.5922,4.5922,4.5916,4.5935,4.5941,4.5941,4.5916,4.5931,4.5912,4.5867,4.5742,4.561,4.5462,4.5362,4.4743,4.433,4.3793,4.3293,4.3257,4.2605,4.2266,3.7245,3.7394,3.7595,3.7703,3.7774,3.7774,3.7792,3.7791,3.7774,3.7792,3.7774,3.7792,3.7844,3.7862,3.7413,3.7245,3.7375,3.7432,3.7541,3.765,3.7721,3.7756,3.7792,3.7915,3.7948,3.7893,3.7942,3.77,3.711,3.6497,3.6504,3.729,3.7381,3.7811,3.8478,3.8569,3.8556,3.851,3.8478,3.8462,3.8415,3.8462,3.8449,3.8372,3.8417,3.846,3.8507,3.8683,3.8829,3.8989,3.9059,3.9151,3.9272,3.9373,4.0157,4.1726,4.3332,4.4266,4.4266,4.43,4.43,4.43,4.4354,4.4383,4.4397,4.4454,4.4482,4.4482,4.4481,4.4411,4.436,4.4373,4.4224,4.3661,4.3653,4.3468,4.2973,4.3053,4.3062,4.3154,4.3262,4.3427,4.3472,4.347,4.3682,4.3704,4.3613,4.3702,4.3942,4.4418,4.4792,4.4986,4.5375,4.5958,4.5958,4.5986,4.5986,4.5986,4.5975,4.5933,4.5966,4.5994,4.5902,4.5783,4.5479,4.5344,4.5403,4.4913,4.3953,4.3363,4.29,4.2545,4.2488,4.238,4.1994,3.7862,3.7984,3.8153,3.8234,3.8251,3.83,3.835,3.835,3.8332,3.8332,3.835,3.8332,3.8348,3.838,3.82,3.805,3.7984,3.8001,3.8069,3.8135,3.8186,3.8201,3.8232,3.83,3.8008,3.7624,3.7695,3.7418,3.6776,3.6481,3.6495,3.6844,3.7366,3.7786,3.807,3.8519,3.8713,3.8664,3.8618,3.8588,3.8667,3.877,3.8815,3.88,3.871,3.8743,3.8811,3.8974,3.9115,3.9245,3.9344,3.9464,3.9595,4.0127,4.0898,4.2007,4.3141,4.4025,4.4457,4.4532,4.4565,4.4565,4.4578,4.4592,4.4605,4.4619,4.4646,4.4591,4.4146,4.39,4.3888,4.3907,4.3832,4.362,4.3259,4.3021,4.2852,4.2552,4.2325,4.24,4.2492,4.2722,4.3164,4.3388,4.34,4.3446,4.3451,4.3417,4.35,4.3797,4.3976,4.3996,4.421,4.4404,4.4404,4.5433,4.6002,4.6002,4.5938,4.5569,4.5467,4.5218,4.5087,4.461,4.4524,4.4408,4.4254,4.3912,4.3031,4.2728,4.2236,4.1778,4.1702,4.1495,4.1067,3.8385,3.8467,3.8559,3.8603,3.8634,3.868,3.8728,3.8765,3.8743,3.8758,3.8777,3.877,3.8766,3.8766,3.8766,3.8725,3.8572,3.8496,3.8515,3.8575,3.8572,3.849,3.8327,3.8309,3.7886,3.7151,3.692,3.6616,3.6184,3.5959,3.5985,3.6281,3.6846,3.7384,3.7844,3.8345,3.8654,3.8847,3.8873,3.8869,3.895,3.9069,3.9192,3.9232,3.9165,3.911,3.9137,3.9264,3.9395,3.9489,3.9594,3.9654,3.9764,4.0542,4.124,4.1825,4.2605,4.3454,4.4171,4.4303,4.4416,4.4693,4.4706,4.4719,4.4719,4.4531,4.443,4.4278,4.3708,4.3213,4.3232,4.3054,4.2894,4.2922,4.2611,4.2334,4.2231,4.1827,4.1622,4.164,4.1673,4.2003,4.2445,4.2542,4.2558,4.2675,4.267,4.2656,4.2656,4.2947,4.3083,4.3122,4.3408,4.3602,4.3724,4.4481,4.4831,4.487,4.5064,4.487,4.4676,4.4422,4.4101,4.3585,4.3286,4.3156,4.2963,4.2707,4.2442,4.2169,4.159,4.1016,4.0793,4.0501,4.0352,3.8788,3.8822,3.8807,3.8848,3.8906,3.8906,3.8925,3.8935,3.8923,3.8877,3.8869,3.8943,3.879,3.8934,3.8753,3.898,3.8859,3.8625,3.8626,3.8777,3.8779,3.8447,3.789,3.7853,3.7408,3.6554,3.5806,3.5491,3.5491,3.4931,3.4953,3.5565,3.5773,3.6633,3.8128,3.8159,3.8518,3.9056,3.9251,3.9259,3.9237,3.9401,3.952,3.9599,3.9682,3.9635,3.9427,3.9557,3.9642,3.9693,3.9693,3.9701,3.9825,4.0479,4.0976,4.1196,4.1806,4.2586,4.3372,4.3517,4.3832,4.4297,4.4638,4.4537,4.441,4.4047,4.3707,4.3627,4.3077,4.2618,4.2564,4.2087,4.1694,4.1495,4.1698,4.1482,4.104,4.0829,4.0837,4.0945,4.1019,4.0922,4.0946,4.1175,4.1272,4.1257,4.1218,4.1238,4.1354,4.182,4.2136,4.233,4.2578,4.2806,4.3136,4.3486,4.3466,4.3491,4.3763,4.3816,4.3666,4.3461,4.3267,4.283,4.2625,4.2485,4.2154,4.1899,4.1598,4.1243,4.0699,4.0481,4.0358,4.0261,4.0183,3.9137,3.9137,3.9193,3.9225,3.9253,3.9253,3.9248,3.9157,3.8704,3.8482,3.8408,3.791,3.7648,3.7648,3.7648,3.7679,3.7673,3.7623,3.7865,3.8244,3.7885,3.7536,3.7337,3.7274,3.6863,3.6033,3.5228,3.4888,3.4899,3.473,3.481,3.5063,3.5649,3.6445,3.7471,3.8019,3.8689,3.9383,3.9489,3.9539,3.9611,3.9735,3.9815,3.987,3.9954,3.9954,3.9889,3.987,3.9881,3.9922,3.9892,3.9889,3.9913,4.0091,4.0507,4.1075,4.134,4.1869,4.26,4.2806,4.2905,4.3175,4.332,4.3346,4.3368,4.3226,4.3088,4.3062,4.2459,4.2023,4.194,4.1397,4.1212,4.1621,4.1293,4.1008,4.0835,4.0823,4.0872,4.0883,4.0903,4.0888,4.0888,4.0888,4.0888,4.0888,4.0888,4.0888,4.0946,4.1165,4.1296,4.1374,4.1684,4.1946,4.2145,4.2267,4.2247,4.2456,4.2743,4.285,4.2694,4.2578,4.2364,4.2189,4.1985,4.1791,4.1463,4.1224,4.0997,4.0828,4.0635,4.0477,4.0308,4.0215,4.0186,3.854,3.8484,3.8521,3.8527,3.8515,3.8527,3.8546,3.8489,3.8075,3.7897,3.78,3.739,3.7145,3.7134,3.7145,3.7145,3.7096,3.6836,3.6968,3.7412,3.726,3.6927,3.6652,3.6316,3.6018,3.5541,3.5004,3.4781,3.485,3.4889,3.4898,3.5022,3.5477,3.6291,3.7205,3.7805,3.8576,3.9569,3.9758,3.9792,3.987,3.9975,4.0027,4.0077,4.0147,4.0166,4.0186,4.0118,4.0087,4.0057,4.0046,4.0026,3.9965,4.0003,4.023,4.0648,4.0867,4.1152,4.1895,4.2072,4.2275,4.2506,4.2695,4.2794,4.2737,4.266,4.249,4.2428,4.179,4.1357,4.1316,4.1048,4.101,4.1383,4.1061,4.0788,4.0821,4.0877,4.0903,4.0903,4.0888,4.0888,4.0888,4.0888,4.0888,4.0888,4.0888,4.0917,4.0917,4.0965,4.0945,4.0954,4.1146,4.1228,4.1069,4.1049,4.1049,4.1406,4.1824,4.1849,4.1781,4.1723,4.1587,4.1471,4.1311,4.1349,4.1087,4.1022,4.0862,4.0726,4.0654,4.0554,4.0444,4.0325,4.029,3.7271,3.7134,3.7152,3.7224,3.719,3.7273,3.7344,3.7242,3.7206,3.7259,3.7242,3.7086,3.7076,3.7112,3.6953,3.6972,3.7036,3.6434,3.615,3.6348,3.6549,3.6535,3.6023,3.5467,3.5183,3.5087,3.503,3.5037,3.5079,3.5096,3.5149,3.5185,3.5247,3.5982,3.7271,3.7566,3.8392,3.9798,4.0007,4.0017,4.0038,4.0138,4.0215,4.0215,4.0272,4.0291,4.0291,4.0282,4.0234,4.0127,4.0117,4.0108,4.0106,4.0117,4.0136,4.0231,4.0117,4.0566,4.1158,4.1341,4.1628,4.223,4.2421,4.2783,4.2502,4.209,4.1808,4.1796,4.1209,4.0803,4.0866,4.0825,4.0887,4.0886,4.0876,4.0853,4.0878,4.0883,4.0883,4.0888,4.0888,4.0888,4.0888,4.0907,4.0912,4.0917,4.0917,4.0939,4.0971,4.098,4.0984,4.1,4.0999,4.0986,4.0967,4.097,4.097,4.1069,4.1361,4.1317,4.1232,4.1184,4.1121,4.0985,4.0888,4.0888,4.0883,4.0878,4.0877,4.0809,4.0739,4.0687,4.0603,4.0484,4.0386,3.7509,3.7461,3.7412,3.7392,3.7363,3.7392,3.7403,3.7356,3.6844,3.6672,3.6604,3.6032,3.586,3.5775,3.5812,3.5755,3.5765,3.5611,3.5467,3.5486,3.5595,3.5634,3.5451,3.524,3.5124,3.516,3.5204,3.5237,3.5242,3.5246,3.5262,3.5278,3.5281,3.6088,3.749,3.7721,3.8583,3.991,4.0187,4.0205,4.0215,4.028,4.0335,4.0354,4.0363,4.0372,4.0372,4.0391,4.0309,4.0186,4.0167,4.0186,4.0177,4.0177,4.0196,4.0187,4.0234,4.031,4.0548,4.0678,4.0846,4.1031,4.1335,4.1243,4.128,4.119,4.1081,4.1074,4.0895,4.0851,4.0862,4.0858,4.0898,4.0888,4.0883,4.0869,4.0903,4.0888,4.0888,4.0888,4.0888,4.0907,4.0912,4.0945,4.0958,4.0963,4.0964,4.0968,4.0999,4.1013,4.1023,4.1013,4.1006,4.0992,4.0975,4.0978,4.0975,4.0983,4.1098,4.1124,4.1073,4.1038,4.0975,4.0888,4.0888,4.0888,4.0888,4.0898,4.0878,4.0877,4.0821,4.0751,4.0701,4.0607,4.0527,3.6684,3.6678,3.6634,3.6589,3.658,3.6597,3.6642,3.6591,3.6203,3.5997,3.5906,3.5542,3.5285,3.527,3.5285,3.5278,3.5246,3.5273,3.5273,3.5239,3.5304,3.5296,3.5261,3.525,3.5246,3.5289,3.5324,3.5365,3.5369,3.5391,3.5372,3.5391,3.5372,3.6274,3.7825,3.7947,3.869,4.0034,4.0366,4.0375,4.0349,4.0411,4.0427,4.0447,4.0427,4.0447,4.0455,4.0444,4.0383,4.0297,4.0288,4.0297,4.0325,4.0314,4.0341,4.0339,4.0345,4.0417,4.0457,4.0504,4.0523,4.0593,4.0648,4.0694,4.0765,4.08,4.0834,4.0879,4.0897,4.0898,4.0903,4.0898,4.0888,4.0888,4.0888,4.0888,4.0888,4.0888,4.0888,4.0888,4.0917,4.0945,4.0945,4.0975,4.0996,4.0988,4.0974,4.1013,4.105,4.1042,4.1057,4.1048,4.1039,4.1046,4.103,4.1031,4.1026,4.1037,4.1028,4.1039,4.1015,4.0971,4.0945,4.0917,4.0912,4.0888,4.0912,4.0907,4.0898,4.0878,4.0858,4.0812,4.0761,4.0713,4.0641,3.5437,3.5434,3.5441,3.5393,3.5429,3.542,3.5587,3.5479,3.5533,3.5489,3.5476,3.5457,3.5417,3.5402,3.5424,3.5385,3.536,3.5395,3.5381,3.5374,3.5393,3.5398,3.5361,3.5335,3.5357,3.5398,3.5412,3.5434,3.5448,3.5481,3.5507,3.5514,3.5514,3.6458,3.7723,3.8036,3.8926,4.02,4.0504,4.0477,4.0462,4.0492,4.0534,4.0561,4.0534,4.0534,4.0542,4.0537,4.0503,4.0462,4.0427,4.0454,4.0504,4.0512,4.0508,4.0518,4.0526,4.06,4.0674,4.07,4.0707,4.0725,4.0788,4.0812,4.0823,4.0862,4.0883,4.0883,4.0893,4.0903,4.0903,4.0888,4.0888,4.0907,4.0907,4.0912,4.0912,4.0912,4.0893,4.0912,4.0954,4.0971,4.1007,4.1015,4.1026,4.1031,4.103,4.1033,4.1064,4.1073,4.1081,4.1087,4.109,4.1093,4.1093,4.1093,4.1092,4.1088,4.1087,4.1079,4.1052,4.1015,4.0975,4.0958,4.0935,4.093,4.0917,4.0917,4.0907,4.0898,4.0878,4.0844,4.0818,4.0779,4.0725,3.5562,3.5537,3.5556,3.5556,3.555,3.5556,3.5556,3.5556,3.5548,3.5548,3.5548,3.5574,3.5562,3.5556,3.5568,3.5562,3.5519,3.5544,3.5544,3.5553,3.5547,3.556,3.5528,3.5475,3.546,3.5474,3.5493,3.5494,3.5483,3.5515,3.5528,3.5573,3.5663,3.6428,3.7842,3.815,3.8895,4.0287,4.0639,4.0628,4.0589,4.0636,4.0681,4.072,4.0681,4.0688,4.072,4.0732,4.0712,4.0699,4.0662,4.0635,4.0654,4.0655,4.0649,4.0681,4.07,4.0739,4.0776,4.0781,4.0809,4.0851,4.0856,4.0858,4.0878,4.0883,4.0898,4.0898,4.0903,4.0888,4.0912,4.0907,4.0912,4.0917,4.095,4.0963,4.0978,4.0978,4.0963,4.0967,4.0996,4.0983,4.0977,4.0983,4.1003,4.1056,4.0995,4.1028,4.0954,4.0859,4.0723,4.0527,4.0564,4.0464,4.0522,4.064,4.0915,4.1034,4.111,4.1098,4.107,4.105,4.101,4.0999,4.098,4.0971,4.0948,4.0926,4.0917,4.0907,4.0903,4.0893,4.0873,4.0848,4.0807,3.5704,3.5684,3.5684,3.5684,3.5704,3.5704,3.5699,3.5699,3.5704,3.5704,3.5684,3.5704,3.5684,3.5679,3.5684,3.5674,3.5659,3.5658,3.5637,3.5635,3.5631,3.5601,3.5601,3.5565,3.5534,3.5528,3.5534,3.5547,3.5534,3.5547,3.5584,3.5596,3.5622,3.6547,3.7918,3.8175,3.9083,4.0365,4.0764,4.0775,4.0754,4.0771,4.0826,4.0837,4.0807,4.0807,4.0837,4.0858,4.084,4.083,4.0844,4.0815,4.0794,4.0756,4.0767,4.0798,4.0829,4.0851,4.0842,4.0839,4.0854,4.0903,4.0903,4.0893,4.0903,4.0888,4.0888,4.0888,4.0888,4.0893,4.0945,4.0945,4.095,4.0943,4.0964,4.0996,4.1,4.1,4.098,4.0995,4.1033,4.1037,4.1022,4.0813,4.0496,4.0347,3.9726,3.9706,3.9626,3.9544,3.9618,3.9574,3.9684,3.9738,3.9815,4.0091,4.0607,4.0849,4.111,4.1113,4.109,4.1074,4.1051,4.1022,4.1,4.0991,4.0964,4.0937,4.0939,4.095,4.0945,4.0941,4.0907,4.0883,4.0873,3.583,3.5811,3.5815,3.5815,3.5811,3.583,3.5807,3.5803,3.5826,3.5803,3.5807,3.5807,3.5803,3.5826,3.5803,3.5775,3.575,3.5718,3.5723,3.5718,3.5693,3.5664,3.5639,3.5639,3.5648,3.5631,3.5626,3.5626,3.5626,3.5612,3.564,3.566,3.564,3.6447,3.7679,3.8271,3.896,4.0294,4.0752,4.0903,4.0902,4.0891,4.0911,4.0911,4.0906,4.093,4.0939,4.0932,4.0925,4.0933,4.0984,4.0975,4.0936,4.0868,4.0858,4.0917,4.0917,4.0903,4.0893,4.0883,4.0912,4.0917,4.0917,4.0921,4.0921,4.0926,4.0926,4.0926,4.0911,4.0943,4.0975,4.0984,4.0976,4.0991,4.1009,4.102,4.1029,4.1029,4.1009,4.1025,4.1022,4.1026,4.0651,4.033,3.9961,3.9528,3.8877,3.846,3.8432,3.8504,3.8715,3.8902,3.9089,3.9145,3.9202,3.9269,3.9825,4.0398,4.078,4.0946,4.0992,4.1093,4.1069,4.1041,4.103,4.1011,4.101,4.0993,4.0995,4.0988,4.0975,4.0971,4.0939,4.0936,4.0912,3.5892,3.5895,3.5869,3.5885,3.5895,3.5872,3.5885,3.5875,3.5895,3.5872,3.5872,3.5891,3.5895,3.5875,3.5872,3.5868,3.5861,3.5799,3.5788,3.5783,3.5767,3.5773,3.5763,3.5756,3.576,3.5739,3.5722,3.5708,3.5689,3.5689,3.5737,3.5766,3.5775,3.6414,3.7281,3.7994,3.8838,3.9939,4.061,4.0968,4.0986,4.099,4.097,4.0986,4.0979,4.1009,4.1046,4.1026,4.1013,4.1073,4.107,4.1081,4.1042,4.0984,4.0975,4.0954,4.0974,4.095,4.0921,4.0954,4.0978,4.0982,4.0975,4.0964,4.0964,4.0984,4.0964,4.0972,4.0964,4.0976,4.0979,4.0993,4.1007,4.1022,4.1042,4.1076,4.1076,4.1067,4.0992,4.0888,4.0925,4.0818,4.0312,3.9743,3.915,3.8731,3.8214,3.7931,3.7921,3.8049,3.8278,3.8444,3.8606,3.8625,3.8645,3.8678,3.8943,3.965,4.0131,4.0531,4.0678,4.1015,4.1089,4.1073,4.1078,4.1081,4.1066,4.1028,4.1025,4.1026,4.1009,4.0988,4.0968,4.0952,4.0954,3.5953,3.5958,3.5945,3.5945,3.5958,3.5951,3.5946,3.5941,3.5953,3.595,3.595,3.595,3.595,3.595,3.595,3.595,3.5925,3.5875,3.5866,3.584,3.585,3.5846,3.5853,3.5846,3.5839,3.5841,3.582,3.5776,3.5772,3.5803,3.583,3.5834,3.5861,3.63,3.7143,3.8029,3.8834,3.9682,4.0539,4.1048,4.1064,4.1067,4.1044,4.1056,4.1059,4.1067,4.1091,4.1081,4.1064,4.109,4.1109,4.1107,4.11,4.1069,4.1058,4.0999,4.0984,4.0992,4.0952,4.0988,4.098,4.0984,4.0995,4.0983,4.0986,4.0986,4.0993,4.1,4.1007,4.1003,4.1039,4.105,4.1064,4.1074,4.1087,4.1098,4.1107,4.1093,4.0858,4.0565,4.0273,4.0075,3.9852,3.9195,3.8399,3.788,3.7479,3.7374,3.7347,3.7403,3.7517,3.7456,3.7525,3.7681,3.774,3.7865,3.8146,3.8831,3.9538,3.994,4.0415,4.0756,4.0998,4.1097,4.1111,4.1111,4.1102,4.1074,4.1056,4.1052,4.1059,4.1042,4.1009,4.0984,4.0972,3.6012,3.6017,3.6019,3.6019,3.6018,3.6013,3.6009,3.6004,3.6017,3.5992,3.6011,3.6011,3.6009,3.6011,3.599,3.6009,3.599,3.5942,3.5919,3.5916,3.5909,3.5912,3.5916,3.5925,3.5912,3.5919,3.5923,3.5867,3.5839,3.5897,3.5919,3.5917,3.5917,3.6217,3.6944,3.7676,3.8678,3.9543,4.0411,4.0873,4.106,4.1103,4.1101,4.1111,4.1099,4.1104,4.1111,4.1112,4.1097,4.1098,4.1098,4.1117,4.1098,4.1117,4.1081,4.1039,4.1019,4.102,4.1009,4.102,4.1036,4.1022,4.1009,4.1014,4.1017,4.1022,4.1005,4.1033,4.1042,4.1053,4.1069,4.1097,4.1103,4.1108,4.1112,4.1094,4.1014,4.0853,4.0417,4.0064,3.9629,3.9174,3.8812,3.8489,3.7671,3.7086,3.6684,3.6584,3.654,3.6401,3.6398,3.6262,3.6298,3.6551,3.6727,3.6921,3.7356,3.806,3.884,3.9452,4.002,4.0549,4.0796,4.1103,4.1103,4.1106,4.1112,4.1113,4.1087,4.1077,4.1103,4.1083,4.1059,4.1033,4.1016,3.6009,3.599,3.5975,3.6015,3.5935,3.5934,3.597,3.5964,3.5982,3.6017,3.6012,3.601,3.601,3.601,3.601,3.601,3.6009,3.5991,3.5971,3.5971,3.5968,3.5968,3.5989,3.5998,3.5982,3.5986,3.5988,3.5935,3.5916,3.5953,3.5945,3.5916,3.596,3.6118,3.6536,3.7406,3.7824,3.8725,3.9652,4.0458,4.0987,4.1105,4.1106,4.1107,4.1107,4.1108,4.1112,4.1112,4.1112,4.1113,4.1113,4.1113,4.1113,4.1113,4.1112,4.1104,4.1088,4.1081,4.1033,4.1059,4.109,4.1078,4.1087,4.1072,4.1073,4.1072,4.1073,4.1094,4.1083,4.109,4.1092,4.1113,4.1112,4.1109,4.1106,4.1098,4.1049,4.0836,4.0373,3.9466,3.9015,3.8153,3.7539,3.7291,3.6963,3.6398,3.5969,3.5928,3.5889,3.5889,3.5889,3.5889,3.5889,3.6103,3.6201,3.6337,3.6649,3.7311,3.8227,3.9006,3.9577,4.0204,4.0883,4.1114,4.1115,4.1111,4.1111,4.1105,4.1112,4.1113,4.111,4.1098,4.1094,4.1079,4.1064,3.453,3.4531,3.453,3.453,3.4589,3.5039,3.5273,3.537,3.5779,3.6013,3.6011,3.6011,3.6011,3.6011,3.6011,3.6011,3.6011,3.6011,3.6011,3.6011,3.6011,3.6012,3.6013,3.6014,3.6015,3.6015,3.6016,3.5976,3.5972,3.5984,3.5977,3.5994,3.6054,3.6332,3.6723,3.7608,3.8451,3.9312,4.0115,4.0741,4.1015,4.1113,4.1113,4.1113,4.1113,4.1111,4.111,4.1108,4.1108,4.1106,4.1105,4.1106,4.1105,4.1106,4.1107,4.1109,4.1112,4.1092,4.1078,4.108,4.1103,4.1108,4.1111,4.1093,4.1113,4.1113,4.1113,4.1113,4.1112,4.111,4.1106,4.11,4.1114,4.1106,4.1101,4.1111,4.1042,4.0823,4.0387,3.9379,3.8375,3.7578,3.686,3.6579,3.6473,3.6223,3.5931,3.5908,3.5889,3.5889,3.5889,3.5889,3.5889,3.5928,3.5967,3.6045,3.6103,3.6766,3.7993,3.8694,3.9182,3.9786,4.0659,4.1107,4.1106,4.1103,4.1115,4.1115,4.1116,4.1104,4.1108,4.1113,4.1108,4.11,4.109,3.2747,3.278,3.3212,3.3389,3.3448,3.4095,3.437,3.4468,3.5017,3.5311,3.5429,3.5546,3.5761,3.5996,3.6015,3.6015,3.6015,3.6015,3.6015,3.6015,3.6015,3.6015,3.6015,3.6014,3.6013,3.601,3.6012,3.5993,3.6073,3.6211,3.6386,3.6327,3.6443,3.6855,3.7558,3.8164,3.8847,3.9666,4.0565,4.1014,4.1111,4.111,4.1108,4.1104,4.1099,4.1112,4.1109,4.1106,4.1103,4.1103,4.1103,4.1104,4.1103,4.1104,4.1104,4.1106,4.1111,4.11,4.1092,4.1093,4.1113,4.1111,4.1109,4.1105,4.1103,4.1104,4.1105,4.1117,4.1112,4.1108,4.1099,4.1111,4.1105,4.1098,4.1111,4.11,4.1034,4.0725,4.0118,3.904,3.8077,3.7256,3.6596,3.6125,3.5947,3.5928,3.5889,3.5889,3.5889,3.5889,3.5889,3.5889,3.5889,3.5889,3.5889,3.5889,3.5889,3.6356,3.7584,3.8422,3.8948,3.986,4.0874,4.1107,4.1107,4.1117,4.1114,4.1111,4.1107,4.1099,4.1109,4.1099,4.1109,4.1113,4.1111,3.0981,3.1103,3.2707,3.33,3.3321,3.3438,3.3484,3.3509,3.3607,3.3733,3.3936,3.4467,3.5306,3.5796,3.5971,3.601,3.6011,3.6011,3.601,3.601,3.6011,3.6009,3.6009,3.6009,3.6009,3.6009,3.6006,3.6004,3.6198,3.6717,3.6983,3.7185,3.7242,3.773,3.8274,3.8795,3.9261,3.9999,4.0722,4.1074,4.1114,4.1111,4.1108,4.1101,4.1115,4.1109,4.1098,4.1115,4.1115,4.1118,4.1118,4.1118,4.1118,4.1118,4.1118,4.1118,4.1118,4.1107,4.1099,4.1112,4.1109,4.1103,4.1099,4.1099,4.1117,4.1117,4.1115,4.1113,4.1107,4.1115,4.1108,4.11,4.1117,4.1112,4.1109,4.1106,4.0925,4.0513,3.9831,3.8694,3.8013,3.7584,3.7077,3.6785,3.6084,3.6025,3.5889,3.5889,3.5889,3.5889,3.5889,3.5889,3.5889,3.5889,3.5889,3.5908,3.5986,3.6571,3.7603,3.8246,3.8753,3.9825,4.1088,4.1107,4.1107,4.1107,4.111,4.1112,4.1106,4.1108,4.1098,4.1115,4.1114,4.1107,4.1113,3.073,3.0811,3.1471,3.1765,3.185,3.2379,3.2597,3.2699,3.3111,3.3351,3.3422,3.4263,3.4833,3.5248,3.5833,3.6007,3.6007,3.6007,3.6007,3.6007,3.6007,3.6007,3.6007,3.6009,3.6007,3.6027,3.6004,3.6311,3.6791,3.7203,3.7971,3.8278,3.8259,3.8615,3.9095,3.9674,4.0135,4.0389,4.0842,4.11,4.11,4.11,4.1118,4.1113,4.11,4.1114,4.1109,4.1109,4.1106,4.1109,4.1109,4.1112,4.1112,4.1112,4.1109,4.1109,4.1109,4.1109,4.1114,4.1113,4.1103,4.1115,4.1111,4.1108,4.1106,4.1106,4.1106,4.11,4.1114,4.1109,4.1103,4.11,4.11,4.111,4.1107,4.1107,4.0951,4.0562,4.0058,3.9162,3.8928,3.8694,3.8168,3.7642,3.6844,3.6162,3.6006,3.5889,3.5889,3.5889,3.5889,3.5889,3.5889,3.6025,3.6064,3.6084,3.6123,3.6921,3.7759,3.8383,3.9065,4.0078,4.1088,4.1088,4.1107,4.1107,4.111,4.1117,4.1103,4.1109,4.1114,4.1103,4.1111,4.1112,4.1103,3.0676,3.0672,3.0672,3.0711,3.0853,3.1423,3.1679,3.1777,3.2227,3.2722,3.3027,3.3597,3.4209,3.4703,3.5214,3.5782,3.588,3.5958,3.5958,3.5958,3.5977,3.5975,3.5975,3.6033,3.6111,3.6202,3.6348,3.6713,3.7536,3.7737,3.8501,3.9143,3.9431,3.9698,4.0052,4.063,4.0993,4.1,4.1046,4.1075,4.1075,4.1061,4.1064,4.1084,4.1097,4.1114,4.1114,4.1114,4.1114,4.1114,4.111,4.111,4.111,4.1107,4.1107,4.1107,4.1107,4.1107,4.1117,4.1106,4.1117,4.1112,4.1109,4.1103,4.1117,4.1103,4.1103,4.1117,4.111,4.1107,4.1107,4.111,4.111,4.1107,4.1107,4.1107,4.1107,4.0854,4.0351,3.9747,3.9571,3.9279,3.8692,3.8088,3.7562,3.6704,3.6103,3.5967,3.5889,3.5889,3.5889,3.5889,3.5889,3.6084,3.6279,3.6493,3.6802,3.7642,3.8402,3.8987,3.9727,4.0604,4.1068,4.1107,4.1107,4.1107,4.111,4.1114,4.111,4.111,4.11,4.1106,4.1117,4.1105,4.1117,3.0606,3.0606,3.0606,3.0634,3.0713,3.0717,3.0794,3.0876,3.0934,3.1375,3.2017,3.2233,3.3065,3.4183,3.4598,3.5143,3.565,3.5828,3.5903,3.5903,3.5919,3.5906,3.6022,3.6137,3.6517,3.6953,3.7138,3.7529,3.8397,3.8814,3.9393,3.982,4.018,4.051,4.085,4.0929,4.0996,4.0996,4.1,4.1003,4.1011,4.1002,4.1013,4.102,4.1062,4.1085,4.1107,4.1085,4.1085,4.1085,4.1081,4.1081,4.1081,4.1081,4.1081,4.1081,4.1085,4.1085,4.1107,4.111,4.1091,4.1114,4.1117,4.1114,4.111,4.111,4.111,4.1107,4.1107,4.1107,4.1107,4.1107,4.1107,4.1107,4.1107,4.1107,4.1107,4.1088,4.0604,4.0351,3.9961,3.9552,3.8984,3.8458,3.8104,3.7383,3.6471,3.6139,3.6231,3.6367,3.6537,3.6576,3.6634,3.6771,3.7063,3.7127,3.752,3.8341,3.9003,3.951,4.0016,4.0662,4.0994,4.1068,4.1107,4.1107,4.1107,4.111,4.1107,4.1107,4.1107,4.1114,4.11,4.1106,4.1106,3.0601,3.0601,3.0601,3.061,3.0632,3.0637,3.063,3.0649,3.0669,3.0839,3.1207,3.1653,3.2172,3.3018,3.4111,3.4756,3.5067,3.5721,3.5818,3.5896,3.5974,3.6266,3.6483,3.6775,3.7137,3.7689,3.7948,3.8343,3.9214,3.9587,3.9968,4.0358,4.0591,4.0793,4.0878,4.0927,4.0931,4.093,4.0967,4.0999,4.098,4.0976,4.0991,4.0983,4.1029,4.1059,4.1085,4.1036,4.1032,4.1048,4.1041,4.1034,4.1034,4.1034,4.1034,4.1034,4.1015,4.1034,4.1054,4.1034,4.1048,4.1078,4.1104,4.1104,4.1107,4.1107,4.1107,4.1107,4.1104,4.1104,4.1107,4.1107,4.1107,4.1107,4.1107,4.1107,4.1107,4.1107,4.0912,4.0874,4.0623,4.0474,4.0062,3.9434,3.8979,3.8742,3.8003,3.7523,3.7481,3.7621,3.7757,3.7776,3.7796,3.7819,3.79,3.7955,3.8371,3.9172,3.9591,3.989,4.04,4.0812,4.0971,4.1085,4.1107,4.1107,4.1107,4.1107,4.1107,4.1107,4.1107,4.1107,4.1114,4.1114,4.11,3.0574,3.0574,3.0574,3.0554,3.0559,3.0582,3.0604,3.06,3.0604,3.0632,3.0784,3.1258,3.1697,3.2388,3.3611,3.4764,3.4997,3.6134,3.6663,3.6643,3.6648,3.7041,3.7351,3.7555,3.8001,3.8496,3.8811,3.9164,4.0001,3.9973,4.0246,4.0633,4.0802,4.0787,4.0821,4.0842,4.0883,4.0864,4.0878,4.0922,4.0931,4.0935,4.096,4.0953,4.0984,4.1018,4.1018,4.0995,4.0945,4.0972,4.0964,4.0971,4.0971,4.0971,4.0952,4.0952,4.0952,4.0971,4.0971,4.0971,4.0984,4.1,4.1041,4.1071,4.1071,4.1048,4.1068,4.1068,4.1071,4.1071,4.1071,4.1071,4.1071,4.1071,4.1071,4.1071,4.1068,4.1068,4.1068,4.1052,4.1048,4.1018,4.0964,4.0567,3.9974,3.9814,3.9596,3.9118,3.8598,3.8583,3.8602,3.8559,3.8563,3.8501,3.8583,3.8785,3.9284,4.0,4.0221,4.0326,4.0555,4.0924,4.1013,4.1081,4.1085,4.1088,4.1107,4.1107,4.1107,4.1107,4.1107,4.1107,4.1107,4.1107,4.1107,3.0479,3.0479,3.0479,3.0499,3.0509,3.055,3.0588,3.0598,3.0598,3.0636,3.0694,3.0795,3.1346,3.2256,3.3742,3.485,3.5751,3.7212,3.7735,3.7939,3.7727,3.8023,3.815,3.8327,3.88,3.9265,3.9607,3.9867,4.07,4.0552,4.0629,4.0745,4.0752,4.0739,4.0725,4.0744,4.0779,4.0776,4.0793,4.0818,4.0823,4.0859,4.0878,4.0897,4.092,4.0928,4.0928,4.09,4.0902,4.0907,4.0898,4.0898,4.0903,4.0903,4.0883,4.0878,4.0878,4.0874,4.0893,4.0888,4.0893,4.0907,4.0935,4.0975,4.0992,4.0992,4.0992,4.0992,4.0992,4.0992,4.0992,4.0992,4.1011,4.1011,4.0992,4.0992,4.0992,4.0992,4.0992,4.0992,4.0984,4.0952,4.0902,4.0636,4.0424,4.0369,4.0106,3.9755,3.9287,3.9044,3.9044,3.8975,3.8981,3.9029,3.9209,3.951,3.9816,4.0412,4.0567,4.0693,4.0894,4.0957,4.0988,4.1022,4.1062,4.1088,4.1107,4.1107,4.1107,4.1107,4.1107,4.1107,4.1107,4.1107,4.1107,3.0433,3.0433,3.0414,3.0433,3.0433,3.045,3.0502,3.0519,3.053,3.079,3.1383,3.1388,3.1843,3.2822,3.4421,3.5212,3.6125,3.7064,3.7782,3.8117,3.8355,3.8541,3.8767,3.9051,3.956,3.9978,4.0294,4.0327,4.0571,4.0661,4.0661,4.0661,4.0653,4.0626,4.0619,4.0619,4.0642,4.0687,4.07,4.0712,4.0724,4.0779,4.0801,4.0828,4.0844,4.0835,4.0815,4.0809,4.0807,4.0815,4.0779,4.0773,4.0767,4.0767,4.0754,4.0754,4.0748,4.0748,4.0767,4.0773,4.0773,4.0773,4.079,4.0849,4.0883,4.0921,4.0921,4.0921,4.0897,4.0897,4.0917,4.0917,4.0917,4.0917,4.0917,4.0917,4.0917,4.0917,4.0917,4.0903,4.0893,4.0839,4.0787,4.0692,4.0514,4.061,4.0506,4.0144,3.9907,3.9657,3.9547,3.9482,3.9572,3.9655,3.9944,4.0272,4.0463,4.0718,4.0793,4.0833,4.0845,4.0873,4.0928,4.098,4.1029,4.1081,4.1107,4.1107,4.1107,4.1107,4.1107,4.1107,4.1107,4.1107,4.1107,3.0286,3.0267,3.0235,3.0254,3.0292,3.0324,3.049,3.0802,3.0926,3.1251,3.1669,3.2029,3.2472,3.3198,3.4891,3.5993,3.618,3.8066,3.904,3.9065,3.8818,3.9257,3.9572,3.9688,3.9996,4.0396,4.0542,4.0494,4.0545,4.0545,4.0564,4.0534,4.0523,4.05,4.0476,4.046,4.0438,4.0496,4.0566,4.0602,4.0648,4.0694,4.0707,4.07,4.0712,4.073,4.068,4.0675,4.0681,4.0688,4.0641,4.0641,4.0655,4.0668,4.0681,4.0662,4.0662,4.0662,4.0681,4.0662,4.0655,4.0648,4.0622,4.0655,4.0718,4.0779,4.0782,4.0798,4.0804,4.0804,4.0823,4.0823,4.0823,4.0804,4.0804,4.0804,4.0804,4.0804,4.0812,4.0815,4.0761,4.0694,4.0642,4.0593,4.0561,4.0512,4.0446,4.0274,4.0172,4.0134,4.008,4.008,4.0198,4.0342,4.0595,4.0641,4.0655,4.0655,4.0681,4.0712,4.0754,4.0814,4.0859,4.0932,4.1018,4.1048,4.1055,4.1107,4.1107,4.1107,4.1107,4.1107,4.1107,4.1107,4.1107,3.0087,3.0079,2.9992,3.0045,3.0087,3.0169,3.0622,3.1381,3.1558,3.1744,3.2013,3.2647,3.3057,3.3817,3.5626,3.6588,3.7253,3.8772,3.9738,4.0203,3.987,3.9957,4.0031,4.0302,4.0215,4.0342,4.0433,4.043,4.0465,4.0457,4.0406,4.0389,4.0372,4.0358,4.0325,4.0298,4.0279,4.0288,4.0383,4.0449,4.0489,4.0534,4.0571,4.053,4.0579,4.0626,4.0511,4.0481,4.0466,4.0462,4.0481,4.0508,4.0546,4.0549,4.0571,4.0579,4.0571,4.0564,4.0557,4.0534,4.0539,4.0523,4.0496,4.0469,4.0523,4.0629,4.0668,4.0681,4.0681,4.0681,4.0681,4.0681,4.0681,4.0681,4.0681,4.0681,4.0681,4.0668,4.0636,4.0635,4.0574,4.0515,4.0458,4.0406,4.0411,4.036,4.0307,4.0224,4.0252,4.0321,4.0356,4.0383,4.0433,4.0446,4.0481,4.0504,4.0558,4.0561,4.0571,4.0607,4.0655,4.0724,4.0814,4.0869,4.0952,4.0964,4.0999,4.1029,4.1081,4.1065,4.1085,4.1107,4.1107,4.1107,4.1107,2.9926,2.9866,2.9857,2.9883,2.9943,2.9959,3.0468,3.129,3.1939,3.2618,3.3284,3.3578,3.401,3.4781,3.6353,3.7241,3.7766,3.9002,3.9817,3.9979,4.0008,4.0019,4.0019,4.0119,4.0167,4.0196,4.0224,4.0269,4.0288,4.0288,4.026,4.0261,4.0243,4.0225,4.0206,4.0177,4.0128,4.0118,4.0167,4.0233,4.0269,4.0323,4.0386,4.0358,4.0383,4.0419,4.033,4.0295,4.0278,4.026,4.026,4.0306,4.0368,4.0366,4.0411,4.0447,4.0444,4.0417,4.04,4.0383,4.0377,4.0323,4.0297,4.0269,4.0321,4.0462,4.053,4.053,4.0557,4.053,4.053,4.053,4.053,4.053,4.053,4.053,4.053,4.0492,4.0454,4.0414,4.0383,4.0321,4.0286,4.0261,4.0253,4.0234,4.0177,4.0128,4.0138,4.0158,4.0233,4.028,4.0306,4.0341,4.0368,4.0394,4.0438,4.0447,4.046,4.05,4.0546,4.0648,4.0736,4.0804,4.0854,4.0887,4.0941,4.0995,4.1006,4.1029,4.1042,4.1085,4.1107,4.1107,4.1107,2.9737,2.971,2.971,2.9738,2.9774,2.98,3.0478,3.1553,3.2081,3.2996,3.4121,3.4345,3.4781,3.5571,3.689,3.7732,3.805,3.9187,3.9671,3.9804,3.9792,3.9834,3.9867,3.9922,3.9954,3.9996,4.0029,4.008,4.0099,4.0128,4.0128,4.0118,4.0118,4.0098,4.0077,4.0036,4.0015,4.0015,4.0015,4.0038,4.009,4.0177,4.0234,4.0234,4.0225,4.0244,4.0196,4.0167,4.0167,4.0167,4.0187,4.0215,4.0252,4.0252,4.0289,4.0307,4.0307,4.0289,4.0252,4.0252,4.0225,4.0196,4.0167,4.0177,4.0177,4.0288,4.0313,4.0321,4.0347,4.0347,4.0356,4.0356,4.0356,4.0356,4.0347,4.0347,4.0358,4.0332,4.0325,4.0298,4.0252,4.0206,4.0177,4.0148,4.0118,4.0108,4.0046,4.0026,4.0026,4.0036,4.0108,4.0148,4.0206,4.0243,4.0281,4.0308,4.0344,4.0344,4.0381,4.0402,4.0465,4.0591,4.0688,4.0706,4.0765,4.0833,4.0878,4.092,4.098,4.1007,4.1025,4.1062,4.1085,4.1107,4.1107,2.956,2.9578,2.9569,2.956,2.9588,2.9636,3.0583,3.1897,3.2103,3.3033,3.4408,3.4695,3.533,3.6084,3.6842,3.7668,3.8444,3.918,3.9531,3.9661,3.9654,3.9684,3.972,3.9766,3.9811,3.9834,3.9859,3.9903,3.9954,3.9965,3.9965,3.9965,3.9965,3.9954,3.9911,3.99,3.9911,3.9922,3.9922,3.9911,3.9975,4.0057,4.0087,4.0108,4.0108,4.0118,4.0087,4.0067,4.0067,4.0077,4.0108,4.0138,4.0157,4.0158,4.0168,4.0177,4.0206,4.0196,4.0177,4.0148,4.0157,4.0128,4.0117,4.0077,4.0077,4.0078,4.0109,4.0139,4.0168,4.0196,4.0196,4.0196,4.0196,4.0196,4.0196,4.0187,4.0187,4.0186,4.0177,4.0157,4.0118,4.0077,4.0057,4.0026,4.0005,3.9975,3.9954,3.9922,3.9911,3.9943,4.0015,4.0067,4.0118,4.0147,4.0206,4.0244,4.0291,4.0318,4.0336,4.037,4.0392,4.0492,4.0561,4.0593,4.0662,4.0732,4.0809,4.0844,4.0907,4.0952,4.1007,4.1025,4.1062,4.1085,4.1107,2.9431,2.9429,2.9429,2.945,2.9443,2.9453,3.0435,3.1859,3.2027,3.2924,3.4087,3.451,3.4967,3.5837,3.6688,3.7546,3.8428,3.9127,3.9414,3.9527,3.9533,3.9589,3.9626,3.9656,3.9696,3.972,3.9712,3.9735,3.9758,3.9758,3.9758,3.9758,3.9826,3.9837,3.9837,3.9837,3.9878,3.9878,3.9878,3.9867,3.9859,3.9922,3.9933,3.9962,3.9962,3.9962,3.9933,3.9933,3.9933,3.9951,3.9962,4.0005,4.0007,4.0027,4.0048,4.0068,4.0098,4.0068,4.0048,4.0048,4.0027,3.9996,3.9965,3.9954,3.9954,3.9954,3.9967,3.9977,4.0038,4.0108,4.0118,4.0118,4.0118,4.0118,4.0118,4.0078,4.0077,4.0067,4.0057,4.0007,3.9975,3.9954,3.9954,3.9933,3.9933,3.9922,3.9922,3.99,3.99,3.99,3.9919,3.9973,4.0015,4.0098,4.0167,4.0186,4.0225,4.0282,4.031,4.0327,4.0353,4.0368,4.0436,4.0473,4.0554,4.0646,4.0694,4.0744,4.0832,4.0908,4.0971,4.1003,4.1022,4.1094,4.1156]}]]